[[{"header":{"parameterUnit":"m.s-1","parameterCategory":1,"la1":30.6,"la2":29.2853,"lo1":-89.7004,"lo2":-87.6739,"dy":0.0162,"dx":0.0183,"nx":112,"ny":82,"refTime":"2023-05-12T06:00:00:Z","depth":0,"parameterNumber":2,"parameterNumberName":"U-component_of_WINDS"},"data":[0.0,0.0,0.0,0.0,0.0,0.0,0.0,0.0,0.0,0.0,0.0,0.0,0.0,0.0,0.0,0.0,0.0,0.0,0.0,0.0,0.0,0.0,0.0,0.0,0.0,0.0,0.0,0.0,0.0,0.0,0.0,0.0,0.0,0.0,0.0,0.0,0.0,0.0,0.0,0.0,0.0,0.0,0.0,0.0,0.0,0.0,0.0,0.0,0.0,0.0,0.0,0.0,0.0,0.0,0.0,0.0,0.0,0.0,0.0,0.0,0.0,0.0,0.0,0.0,0.0,0.0,0.0,0.0,0.0,0.0,0.0,0.0,0.0,0.0,0.0,0.0,0.0,0.0,0.0,0.0,0.0,0.0,0.0,0.0,0.0,0.0,0.0,0.0,0.0,0.0,0.0,-2.0132,-2.1893,-2.275,-2.1939,-2.2002,-2.1608,-2.0471,0.0,0.0,0.0,0.0,0.0,0.0,0.0,0.0,0.0,0.0,0.0,0.0,0.0,0.0,0.0,0.0,0.0,0.0,0.0,0.0,0.0,0.0,0.0,0.0,0.0,0.0,0.0,0.0,0.0,0.0,0.0,0.0,0.0,0.0,0.0,0.0,0.0,0.0,0.0,0.0,0.0,0.0,0.0,0.0,0.0,0.0,0.0,0.0,0.0,0.0,0.0,0.0,0.0,0.0,0.0,0.0,0.0,0.0,0.0,0.0,0.0,0.0,0.0,0.0,0.0,0.0,0.0,0.0,0.0,0.0,0.0,0.0,0.0,0.0,0.0,0.0,0.0,0.0,0.0,0.0,0.0,0.0,0.0,0.0,0.0,0.0,0.0,0.0,0.0,0.0,0.0,0.0,0.0,0.0,0.0,0.0,0.0,0.0,0.0,0.0,0.0,0.0,0.0,0.0,-2.1325,-2.1548,-2.2492,-2.275,-2.1939,-2.2506,-2.2471,-2.1375,0.0,0.0,0.0,0.0,0.0,0.0,0.0,0.0,0.0,0.0,0.0,0.0,0.0,0.0,0.0,0.0,0.0,0.0,0.0,0.0,0.0,0.0,0.0,0.0,0.0,0.0,0.0,0.0,0.0,0.0,0.0,0.0,0.0,0.0,0.0,0.0,0.0,0.0,0.0,0.0,0.0,0.0,0.0,0.0,0.0,0.0,0.0,0.0,0.0,0.0,0.0,0.0,0.0,0.0,0.0,0.0,0.0,0.0,0.0,0.0,0.0,0.0,0.0,0.0,0.0,0.0,0.0,0.0,0.0,0.0,0.0,0.0,0.0,0.0,0.0,0.0,0.0,0.0,0.0,0.0,0.0,0.0,0.0,0.0,0.0,0.0,0.0,0.0,0.0,0.0,0.0,0.0,0.0,0.0,0.0,0.0,0.0,0.0,0.0,0.0,0.0,0.0,0.0,-2.0727,-2.1287,-2.1858,-2.2261,-2.1928,-2.059,-2.0835,-2.0777,-2.0111,-1.9691,0.0,0.0,0.0,0.0,0.0,0.0,0.0,0.0,0.0,0.0,0.0,0.0,0.0,0.0,0.0,0.0,0.0,0.0,0.0,0.0,0.0,0.0,0.0,0.0,0.0,0.0,0.0,0.0,0.0,0.0,0.0,0.0,0.0,0.0,0.0,0.0,0.0,0.0,0.0,0.0,0.0,0.0,0.0,0.0,0.0,0.0,0.0,0.0,0.0,0.0,0.0,0.0,0.0,0.0,0.0,0.0,0.0,0.0,0.0,0.0,0.0,0.0,0.0,0.0,0.0,0.0,0.0,0.0,0.0,0.0,0.0,0.0,0.0,0.0,0.0,0.0,0.0,0.0,0.0,0.0,0.0,0.0,0.0,0.0,0.0,0.0,0.0,0.0,0.0,0.0,0.0,0.0,0.0,0.0,0.0,0.0,0.0,0.0,0.0,0.0,0.0,0.0,-2.1091,-2.1378,-2.1561,-2.1753,-2.1175,-1.9431,-1.9497,-1.9425,-1.9048,-1.9152,0.0,0.0,0.0,0.0,0.0,0.0,0.0,0.0,0.0,0.0,0.0,0.0,0.0,0.0,0.0,0.0,0.0,0.0,0.0,0.0,0.0,0.0,0.0,0.0,0.0,0.0,0.0,0.0,0.0,0.0,0.0,0.0,0.0,0.0,0.0,0.0,0.0,0.0,0.0,0.0,0.0,0.0,0.0,0.0,0.0,0.0,0.0,0.0,0.0,0.0,0.0,0.0,0.0,0.0,0.0,0.0,0.0,0.0,0.0,0.0,0.0,0.0,0.0,0.0,0.0,0.0,0.0,0.0,0.0,0.0,0.0,0.0,0.0,0.0,0.0,0.0,0.0,0.0,0.0,0.0,0.0,0.0,0.0,0.0,0.0,0.0,0.0,0.0,0.0,0.0,0.0,0.0,0.0,0.0,0.0,0.0,0.0,0.0,0.0,0.0,0.0,0.0,-2.2322,-2.2372,-2.0835,-2.1428,-2.1175,-1.9431,-2.0009,-2.0161,-1.943,-1.9839,0.0,0.0,0.0,0.0,0.0,0.0,0.0,0.0,0.0,0.0,0.0,0.0,0.0,0.0,0.0,0.0,0.0,0.0,0.0,0.0,0.0,0.0,0.0,0.0,0.0,0.0,0.0,0.0,0.0,0.0,0.0,0.0,0.0,0.0,0.0,0.0,0.0,0.0,0.0,0.0,0.0,0.0,0.0,0.0,0.0,0.0,0.0,0.0,0.0,0.0,0.0,0.0,0.0,0.0,0.0,0.0,0.0,0.0,0.0,0.0,0.0,0.0,0.0,0.0,0.0,0.0,0.0,0.0,0.0,0.0,0.0,0.0,0.0,0.0,0.0,0.0,0.0,0.0,0.0,0.0,0.0,0.0,0.0,0.0,0.0,0.0,0.0,0.0,0.0,0.0,0.0,0.0,0.0,0.0,0.0,0.0,0.0,0.0,0.0,0.0,0.0,0.0,-2.1146,-2.1301,0.0,-2.059,-2.052,-1.897,-1.9196,-1.9191,-1.8884,0.0,0.0,0.0,0.0,0.0,0.0,0.0,0.0,0.0,0.0,0.0,0.0,0.0,0.0,0.0,0.0,0.0,0.0,0.0,0.0,0.0,0.0,0.0,0.0,0.0,0.0,0.0,0.0,0.0,0.0,0.0,0.0,0.0,0.0,0.0,0.0,0.0,0.0,0.0,0.0,0.0,0.0,0.0,0.0,0.0,0.0,0.0,0.0,0.0,0.0,0.0,0.0,0.0,0.0,0.0,0.0,0.0,0.0,0.0,0.0,0.0,0.0,0.0,0.0,0.0,0.0,0.0,0.0,0.0,0.0,0.0,0.0,0.0,0.0,0.0,0.0,0.0,0.0,0.0,0.0,0.0,0.0,0.0,0.0,0.0,0.0,0.0,0.0,0.0,0.0,0.0,0.0,0.0,0.0,0.0,0.0,0.0,0.0,0.0,0.0,0.0,0.0,-1.9388,-2.0345,-2.0687,0.0,-2.0169,-2.0126,-1.8951,-1.8848,-1.8754,-1.8575,0.0,0.0,0.0,0.0,0.0,0.0,0.0,0.0,0.0,0.0,0.0,0.0,0.0,0.0,0.0,0.0,0.0,0.0,0.0,0.0,0.0,0.0,0.0,0.0,0.0,0.0,0.0,0.0,0.0,0.0,0.0,0.0,0.0,0.0,0.0,0.0,0.0,0.0,0.0,0.0,0.0,0.0,0.0,0.0,0.0,0.0,0.0,0.0,0.0,0.0,0.0,0.0,0.0,0.0,0.0,0.0,0.0,0.0,0.0,0.0,0.0,0.0,0.0,0.0,0.0,0.0,0.0,0.0,0.0,0.0,0.0,0.0,0.0,0.0,0.0,0.0,0.0,0.0,0.0,0.0,0.0,0.0,0.0,0.0,0.0,0.0,0.0,0.0,0.0,0.0,0.0,0.0,0.0,0.0,0.0,0.0,0.0,0.0,0.0,0.0,0.0,0.0,-1.94,-2.0472,-2.084,-1.9981,-2.0331,-2.0257,-1.936,-1.9297,-1.9152,0.0,0.0,0.0,0.0,0.0,0.0,0.0,0.0,0.0,0.0,0.0,0.0,0.0,0.0,0.0,0.0,0.0,0.0,0.0,0.0,0.0,0.0,0.0,0.0,0.0,0.0,0.0,0.0,0.0,0.0,0.0,0.0,0.0,0.0,0.0,0.0,0.0,0.0,0.0,0.0,0.0,0.0,0.0,0.0,0.0,0.0,0.0,0.0,0.0,0.0,0.0,0.0,0.0,0.0,0.0,0.0,0.0,0.0,0.0,0.0,0.0,0.0,0.0,0.0,0.0,0.0,0.0,0.0,0.0,0.0,0.0,0.0,0.0,0.0,0.0,0.0,0.0,0.0,0.0,0.0,0.0,0.0,0.0,0.0,0.0,0.0,0.0,0.0,0.0,0.0,0.0,0.0,0.0,0.0,0.0,0.0,0.0,0.0,0.0,0.0,0.0,0.0,0.0,-1.8924,-2.002,-2.0464,-1.9574,-2.0175,-2.038,-1.9772,-1.9727,-1.9265,-1.8284,0.0,0.0,0.0,0.0,0.0,0.0,0.0,0.0,0.0,0.0,0.0,0.0,0.0,0.0,0.0,0.0,0.0,0.0,0.0,0.0,0.0,0.0,0.0,0.0,0.0,0.0,0.0,0.0,0.0,0.0,0.0,0.0,0.0,0.0,0.0,0.0,0.0,0.0,0.0,0.0,0.0,0.0,0.0,0.0,0.0,0.0,0.0,0.0,0.0,0.0,0.0,0.0,0.0,0.0,0.0,0.0,0.0,0.0,0.0,0.0,0.0,0.0,0.0,0.0,0.0,0.0,0.0,0.0,0.0,0.0,0.0,0.0,0.0,0.0,0.0,0.0,0.0,0.0,0.0,0.0,0.0,0.0,0.0,0.0,0.0,0.0,0.0,0.0,0.0,0.0,0.0,0.0,0.0,0.0,0.0,0.0,0.0,0.0,0.0,0.0,0.0,0.0,-1.872,-1.9666,-2.0099,-1.9605,-2.0196,-2.0471,-2.0223,-2.0176,-1.9846,-1.8984,0.0,0.0,0.0,0.0,0.0,0.0,0.0,0.0,0.0,0.0,0.0,0.0,0.0,0.0,0.0,0.0,0.0,0.0,0.0,0.0,0.0,0.0,0.0,0.0,0.0,0.0,0.0,0.0,0.0,0.0,0.0,0.0,0.0,0.0,0.0,0.0,0.0,0.0,0.0,0.0,0.0,0.0,0.0,0.0,0.0,0.0,0.0,0.0,0.0,0.0,0.0,0.0,0.0,0.0,0.0,0.0,0.0,0.0,0.0,0.0,0.0,0.0,0.0,0.0,0.0,0.0,0.0,0.0,0.0,0.0,0.0,0.0,0.0,0.0,0.0,0.0,0.0,0.0,0.0,0.0,0.0,0.0,0.0,0.0,0.0,0.0,0.0,0.0,0.0,0.0,0.0,0.0,0.0,0.0,0.0,0.0,0.0,0.0,0.0,0.0,0.0,0.0,-1.8731,-1.9471,-1.9971,-1.9971,-2.0332,-2.0566,-2.0566,-2.0566,-2.048,-2.0298,0.0,0.0,0.0,0.0,0.0,0.0,0.0,0.0,0.0,0.0,0.0,0.0,0.0,0.0,0.0,0.0,0.0,0.0,0.0,0.0,0.0,0.0,0.0,0.0,0.0,0.0,0.0,0.0,0.0,0.0,0.0,0.0,0.0,0.0,0.0,0.0,0.0,0.0,0.0,0.0,0.0,0.0,0.0,0.0,0.0,0.0,0.0,0.0,0.0,0.0,0.0,0.0,0.0,0.0,0.0,0.0,0.0,0.0,0.0,0.0,-1.0336,0.0,0.0,0.0,0.0,0.0,0.0,0.0,0.0,0.0,0.0,0.0,0.0,0.0,0.0,0.0,0.0,0.0,0.0,0.0,0.0,0.0,0.0,0.0,0.0,0.0,0.0,0.0,0.0,0.0,0.0,0.0,0.0,0.0,0.0,0.0,0.0,0.0,0.0,0.0,0.0,0.0,-1.9071,-1.9857,-2.043,-2.043,-2.0508,-2.0566,-2.0566,-2.0566,-2.0272,-1.9545,-1.939,0.0,0.0,0.0,0.0,0.0,0.0,0.0,0.0,0.0,0.0,0.0,0.0,0.0,0.0,0.0,0.0,0.0,0.0,0.0,0.0,0.0,0.0,0.0,0.0,0.0,0.0,0.0,0.0,0.0,0.0,0.0,0.0,0.0,0.0,0.0,0.0,0.0,0.0,0.0,0.0,0.0,0.0,0.0,0.0,0.0,0.0,0.0,0.0,0.0,0.0,0.0,0.0,0.0,0.0,0.0,0.0,0.0,0.0,0.0,0.0,-1.0561,0.0,0.0,0.0,0.0,0.0,0.0,0.0,0.0,0.0,0.0,0.0,0.0,0.0,0.0,0.0,0.0,0.0,0.0,0.0,0.0,0.0,0.0,0.0,0.0,0.0,0.0,0.0,0.0,0.0,0.0,0.0,0.0,0.0,0.0,0.0,0.0,0.0,0.0,0.0,0.0,-1.9125,-1.9985,-2.0566,-2.0566,-2.0566,-2.0566,-2.0566,-2.0566,-2.0371,-1.9932,-1.9512,0.0,0.0,0.0,0.0,0.0,0.0,0.0,0.0,0.0,0.0,0.0,0.0,0.0,0.0,0.0,0.0,0.0,0.0,0.0,0.0,0.0,0.0,0.0,0.0,0.0,0.0,0.0,0.0,0.0,0.0,0.0,0.0,0.0,0.0,0.0,0.0,0.0,0.0,0.0,0.0,0.0,0.0,0.0,0.0,0.0,0.0,0.0,0.0,0.0,0.0,0.0,0.0,0.0,-0.7707,-0.786,-0.8793,-0.7989,-0.8732,-1.0709,-1.0922,-1.133,-1.1787,-1.1482,0.0,0.0,0.0,0.0,0.0,0.0,0.0,0.0,0.0,0.0,0.0,0.0,0.0,0.0,0.0,0.0,0.0,0.0,0.0,0.0,0.0,0.0,0.0,0.0,-1.8014,-1.8713,0.0,0.0,0.0,0.0,0.0,0.0,0.0,0.0,0.0,0.0,0.0,0.0,-1.9116,-2.0012,-2.0596,-2.0674,-2.0684,-2.0713,-2.0791,-2.0801,-2.0801,-2.0801,-2.0137,-1.9668,0.0,0.0,0.0,0.0,0.0,0.0,0.0,0.0,0.0,0.0,0.0,0.0,0.0,0.0,0.0,0.0,0.0,0.0,0.0,0.0,0.0,0.0,0.0,0.0,0.0,0.0,0.0,0.0,0.0,0.0,0.0,0.0,-1.3584,-1.304,0.0,0.0,0.0,0.0,0.0,0.0,0.0,0.0,0.0,0.0,0.0,0.0,0.0,-0.8182,-0.8244,-0.7848,-0.8014,-0.8718,-0.8875,-0.9485,-1.051,-1.0363,-1.0918,-1.2051,-1.2378,0.0,-1.147,-1.1377,0.0,0.0,0.0,0.0,0.0,0.0,0.0,0.0,0.0,0.0,0.0,0.0,0.0,0.0,0.0,0.0,0.0,0.0,0.0,0.0,0.0,0.0,-1.8663,-1.7844,-1.8043,-1.8324,0.0,-1.8018,-1.7619,-1.7631,-1.7366,0.0,0.0,0.0,0.0,0.0,0.0,0.0,-1.9229,-2.0036,-2.0713,-2.1103,-2.1143,-2.1299,-2.168,-2.1709,-2.1709,-2.1709,-2.1602,-2.1201,-2.043,-2.0283,0.0,0.0,0.0,0.0,0.0,0.0,0.0,0.0,0.0,0.0,0.0,0.0,0.0,0.0,0.0,0.0,0.0,0.0,0.0,0.0,0.0,0.0,0.0,0.0,0.0,0.0,0.0,0.0,0.0,-1.1676,-1.1709,-1.2015,-1.1594,-1.0756,0.0,0.0,0.0,0.0,0.0,0.0,0.0,0.0,0.0,-1.083,-0.9408,-0.8771,-0.9069,-0.8812,-0.8602,-0.8453,-0.8636,-0.9187,-1.0204,-1.0277,-1.0829,-1.1862,-1.1979,-1.1831,-1.1471,-1.1761,-1.1749,-1.1633,0.0,0.0,0.0,0.0,-1.3212,-1.3847,-1.3813,-1.4311,0.0,-1.4007,0.0,0.0,0.0,0.0,0.0,0.0,0.0,0.0,0.0,0.0,-1.6885,-1.7398,-1.762,-1.774,-1.774,-1.7534,-1.7385,0.0,-1.7282,-1.6693,-1.5677,0.0,0.0,0.0,0.0,-1.9551,-1.9664,-2.0615,-2.1387,-2.1582,-2.1602,-2.168,-2.1865,-2.1885,-2.1885,-2.1885,-2.1885,-2.1709,-2.1328,-2.083,-2.0215,0.0,0.0,0.0,0.0,0.0,0.0,0.0,0.0,0.0,0.0,0.0,0.0,0.0,0.0,0.0,0.0,0.0,0.0,0.0,0.0,0.0,0.0,0.0,0.0,0.0,0.0,0.0,0.0,-1.1041,-1.1102,-1.1518,-1.141,-1.0749,0.0,0.0,0.0,0.0,0.0,0.0,-1.1209,-1.0403,-1.0329,-1.1353,-1.0032,-0.9366,-0.9452,-0.9136,-0.8651,-0.8164,-0.7922,-0.8328,-0.9299,-0.9457,-1.0024,-1.1003,-1.1151,-1.1173,-1.1226,-1.18,-1.1983,-1.1883,-1.2298,-1.2377,-1.2291,-1.2621,-1.3097,-1.3562,-1.3837,-1.4276,-1.4686,-1.4297,0.0,-1.4001,-1.3552,0.0,0.0,0.0,0.0,-1.4141,-1.5551,-1.5662,-1.5645,-1.6644,-1.6927,-1.6927,-1.7009,-1.67,-1.6589,0.0,-1.7456,-1.6962,-1.569,0.0,0.0,0.0,0.0,-2.0156,-2.0391,-2.1018,-2.1572,-2.2031,-2.1781,-2.1736,-2.2197,-2.2207,-2.2207,-2.2207,-2.1935,-2.1851,-2.2207,-2.1308,-2.0864,-2.0908,0.0,0.0,0.0,0.0,0.0,0.0,0.0,0.0,0.0,0.0,0.0,0.0,0.0,0.0,0.0,0.0,0.0,0.0,0.0,0.0,0.0,0.0,0.0,0.0,0.0,0.0,0.0,0.0,0.0,-1.2497,-1.2796,0.0,0.0,0.0,0.0,-1.0581,-1.004,-1.035,-1.1797,-1.1265,-1.0656,-1.0033,-0.9888,-0.9342,-0.8328,-0.7353,-0.727,-0.8164,-0.727,-0.727,-0.8246,-0.8246,-0.8814,-0.9801,-1.0093,-1.0267,-1.033,-1.1151,-1.1235,-1.0795,-1.189,-1.1989,-1.1565,-1.2143,-1.2917,-1.3652,-1.3347,-1.386,-1.4344,-1.2926,-1.2256,-1.2188,-1.295,-1.2802,0.0,0.0,-1.3988,-1.49,-1.5561,-1.6464,-1.6968,-1.6018,-1.5779,-1.5861,-1.6101,-1.49,-1.4458,0.0,-1.8143,-1.8695,-1.8177,0.0,-1.9932,-2.0283,-2.0449,-2.083,-2.168,-2.0782,-2.0706,-2.2262,-2.1407,-2.1373,-2.295,-2.3076,-2.3076,-2.3076,-2.1966,-2.1878,-2.2989,-2.1929,-2.146,-2.1836,-2.0634,0.0,0.0,0.0,0.0,0.0,0.0,0.0,0.0,0.0,0.0,0.0,0.0,0.0,0.0,0.0,0.0,0.0,0.0,0.0,0.0,0.0,0.0,0.0,0.0,0.0,0.0,0.0,0.0,-1.2462,-1.2387,0.0,-1.0053,-1.1051,-1.1499,-1.0792,-1.1518,-1.1891,-1.1686,-1.148,-1.0971,-1.0151,-0.9336,-0.8817,-0.8687,-0.7494,-0.7152,-0.7494,-0.7152,-0.7152,-0.7494,-0.8263,-0.8862,-0.9199,-0.9271,-0.9388,-0.9384,-0.9738,-1.0533,-1.1782,-1.303,-1.332,-1.3166,-1.3373,-1.3688,-1.3957,-1.3783,-1.4008,-1.4213,-1.3676,-1.338,-1.3353,-1.3681,-1.3627,-1.3494,-1.3714,-1.4144,-1.4664,-1.4886,-1.5347,-1.5756,-1.5329,-1.5241,-1.5294,-1.5347,-1.4905,-1.4726,-1.5626,-1.6415,-1.6652,-1.607,-1.8175,-1.9774,-1.9068,-2.0604,-2.1934,-2.2246,-2.1444,-2.1107,-2.1623,-2.0651,-2.0427,-2.1836,-2.1933,-2.1933,-2.1933,-2.1569,-2.1114,-2.0773,-2.0395,-2.0185,-2.0369,-2.0633,-1.9321,0.0,0.0,0.0,0.0,0.0,0.0,0.0,0.0,0.0,0.0,0.0,0.0,0.0,0.0,0.0,0.0,0.0,0.0,0.0,0.0,0.0,0.0,0.0,0.0,0.0,0.0,-1.3101,-1.208,-1.2282,-1.1948,-1.0451,-1.1585,-1.2263,-1.1645,-1.2634,-1.2922,-1.2271,-1.219,-1.1653,-1.0388,-0.9549,-0.8845,-0.8277,-0.7489,-0.7139,-0.7139,-0.7139,-0.7139,-0.7139,-0.7929,-0.8312,-0.8367,-0.8367,-0.8403,-0.8458,-0.8897,-0.9953,-1.1428,-1.293,-1.373,-1.4088,-1.4088,-1.4088,-1.4088,-1.4088,-1.4088,-1.4102,-1.4202,-1.4229,-1.4255,-1.4355,-1.4382,-1.4382,-1.4382,-1.4522,-1.4669,-1.4669,-1.4816,-1.4963,-1.4963,-1.4963,-1.504,-1.5089,-1.5095,-1.5183,-1.5217,-1.568,-1.5915,-1.5628,-1.7811,-1.9388,-1.8683,-2.0597,-2.2074,-2.2056,-2.1277,-2.0872,-2.123,-1.9903,-1.9596,-2.115,-2.0941,-2.0869,-2.1266,-2.0474,-1.9909,-1.948,-1.9052,-1.8952,-1.904,-1.9394,-1.8234,-1.5443,0.0,0.0,0.0,0.0,0.0,0.0,0.0,0.0,0.0,0.0,0.0,0.0,0.0,0.0,0.0,0.0,0.0,0.0,0.0,0.0,0.0,0.0,0.0,-1.2801,-1.379,-1.3839,-1.1434,-1.2627,-1.3208,-1.208,-1.2513,-1.2899,-1.32,-1.3233,-1.328,-1.3477,-1.349,-1.2594,-1.0514,-1.0529,-0.9405,-0.7146,-0.7153,-0.7153,-0.7153,-0.7153,-0.7153,-0.7153,-0.7153,-0.7238,-0.738,-0.738,-0.7461,-0.7691,-0.8796,-0.9254,-0.949,-1.1494,-1.2966,-1.4024,-1.4024,-1.4115,-1.4115,-1.4115,-1.4115,-1.4162,-1.4442,-1.4536,-1.4589,-1.4877,-1.4963,-1.4963,-1.4963,-1.497,-1.4977,-1.4977,-1.4983,-1.499,-1.499,-1.499,-1.5134,-1.5335,-1.5443,-1.5491,-1.5772,-1.6218,-1.6704,-1.712,-1.8006,-1.8866,-1.93,-2.044,0.0,-2.1214,-2.0143,-1.9928,-2.1119,-1.906,-1.8596,-2.097,-2.0095,-1.988,-2.1148,-1.8912,-1.8148,-1.9356,-1.823,-1.7768,-1.8188,-1.6877,-1.6259,-1.6259,0.0,0.0,0.0,0.0,0.0,0.0,0.0,0.0,0.0,0.0,0.0,0.0,0.0,0.0,0.0,0.0,0.0,0.0,0.0,0.0,0.0,0.0,-1.5764,-1.5195,-1.5061,-1.489,-1.4387,-1.3564,-1.2982,-1.2826,-1.318,-1.3434,-1.3514,-1.3728,-1.3111,-1.1544,-1.1464,-1.0373,-0.8093,-0.822,-0.793,-0.7309,-0.7417,-0.7475,-0.7475,-0.7475,-0.7475,-0.7475,-0.7475,-0.7499,-0.7536,-0.7536,-0.756,-0.7597,-0.7969,-0.852,-0.9427,-1.0859,-1.1626,-1.2086,-1.2987,-1.3901,-1.4723,-1.4723,-1.4723,-1.4736,-1.4816,-1.4843,-1.4856,-1.4937,-1.4963,-1.4963,-1.4963,-1.5117,-1.5277,-1.5277,-1.5431,-1.5591,-1.5591,-1.5591,-1.5605,-1.5665,-1.5691,-1.5732,-1.5812,-1.5913,-1.604,-1.6195,-1.7165,-1.8071,-1.8194,-1.9204,0.0,-2.1133,-1.9437,-1.8683,-1.9777,-1.7712,-1.6908,-1.8481,-1.8287,-1.8305,-1.8662,-1.801,-1.74,-1.6828,-1.6501,-1.6824,-1.7817,-1.5965,-1.5433,0.0,0.0,0.0,0.0,0.0,0.0,0.0,0.0,0.0,0.0,0.0,0.0,0.0,0.0,0.0,0.0,0.0,0.0,0.0,0.0,0.0,0.0,-1.6578,-1.7288,-1.6799,-1.5988,-1.5162,-1.4623,-1.3621,-1.306,-1.336,-1.3547,-1.3694,-1.3821,-1.4102,-1.3471,-1.1538,-1.1542,-1.0534,-0.8133,-0.8139,-0.8011,-0.7465,-0.7556,-0.76,-0.76,-0.76,-0.76,-0.76,-0.76,-0.7631,0.0,-0.7689,-0.7726,-0.7784,-0.7784,-0.8161,0.0,0.0,0.0,0.0,0.0,-1.3477,-1.4218,-1.4777,-1.4963,-1.4983,-1.5104,-1.5144,-1.517,-1.5291,-1.5331,-1.5331,-1.5331,-1.5444,-1.5578,-1.5578,-1.5705,-1.5832,-1.5832,-1.5832,-1.5832,-1.5832,-1.5832,-1.5832,-1.5832,-1.5832,0.0,-1.5832,-1.6445,-1.6901,-1.6842,-1.7958,-1.9007,-1.9668,-1.8532,-1.7928,-1.8625,-1.6893,-1.6223,-1.7541,-1.7117,0.0,0.0,0.0,-1.6565,-1.5798,-1.5454,0.0,0.0,0.0,-1.5297,-1.6898,0.0,0.0,0.0,-1.4168,-1.3961,0.0,0.0,0.0,0.0,0.0,0.0,0.0,0.0,0.0,0.0,0.0,0.0,0.0,0.0,0.0,0.0,-1.7915,-1.8775,-1.7764,-1.6404,-1.5047,-1.3608,-1.3333,-1.3373,-1.3667,-1.3639,-1.3765,-1.3939,-1.4143,-1.3755,-1.232,0.0,0.0,0.0,0.0,-0.8636,-0.7624,-0.7641,-0.7648,-0.7648,-0.7648,-0.7648,-0.7648,-0.7648,-0.7719,-0.7838,-0.7838,-0.7916,-0.8038,-0.8038,-0.8038,-0.811,-0.8878,-0.9868,-1.1066,-1.227,-1.2825,-1.3288,-1.4501,0.0,0.0,-1.5357,-1.5444,-1.5491,-1.5752,-1.5832,-1.5832,-1.5832,-1.5832,-1.5832,-1.5832,-1.5832,-1.5832,-1.5832,-1.5832,-1.5832,-1.5832,-1.5832,-1.5832,-1.5832,-1.5832,-1.5832,-1.5832,-1.5832,-1.5825,-1.5724,-1.6699,-1.7531,-1.7631,-1.7536,-1.7499,-1.7638,0.0,0.0,-1.7357,-1.6387,-1.6163,-1.7416,-1.6366,-1.5716,-1.5749,-1.5007,-1.5517,-1.739,-1.5604,-1.5583,-1.7505,-1.6386,-1.573,-1.5596,-1.4143,-1.3838,0.0,0.0,0.0,0.0,0.0,0.0,0.0,0.0,0.0,0.0,0.0,0.0,0.0,0.0,0.0,-1.7245,-1.7633,-1.7734,-1.702,-1.5921,-1.5053,-1.4809,-1.4033,-1.3674,-1.3975,-1.4208,-1.3931,-1.2919,-1.3165,-1.2304,-1.0021,-0.9965,-0.9347,-0.7969,-0.7988,-0.7959,-0.777,-0.7892,-0.7953,-0.7953,0.0,0.0,-0.7953,-0.7953,-0.797,-0.7994,-0.7994,-0.8011,-0.8038,-0.8038,-0.8038,-0.8035,-0.8167,-0.9018,-1.0272,-1.0466,-1.1905,-1.3726,-1.4016,-1.4791,-1.5671,-1.5732,-1.5745,-1.5758,-1.5812,-1.5832,0.0,-1.5832,-1.5832,-1.5832,-1.5832,-1.5832,-1.5832,-1.5832,-1.5832,-1.5832,-1.5832,-1.5832,-1.5832,-1.5832,-1.5832,-1.5832,-1.5832,-1.5832,-1.5832,-1.5825,-1.6001,-1.6543,-1.7513,-1.6773,-1.6586,-1.7482,-1.6437,-1.5831,-1.6077,-1.5817,-1.5812,-1.6183,-1.5878,-1.5783,-1.5751,-1.5665,-1.5758,-1.6123,-1.5758,-1.5752,-1.6204,-1.592,-1.5242,-1.4256,-1.5,-1.4842,0.0,0.0,0.0,0.0,0.0,0.0,0.0,0.0,0.0,0.0,0.0,-1.7358,0.0,0.0,-1.8056,-1.8533,-1.8024,-1.7414,-1.7037,-1.6164,-1.5321,-1.4689,-1.4232,-1.4142,-1.4289,-1.3937,-1.3462,-1.2826,-1.2415,-1.1435,-0.9485,-0.9573,-0.9052,-0.7818,-0.7889,-0.7926,-0.7926,-0.8001,-0.8038,-0.8038,-0.8038,-0.8038,-0.8038,-0.8038,-0.8038,-0.8038,-0.8038,-0.8038,-0.8038,-0.8038,-0.8038,-0.8038,-0.8038,-0.8432,-0.9118,-0.9702,-1.0872,-1.2037,-1.2716,-1.3782,-1.4854,-1.4854,-1.5242,-1.5832,-1.5832,-1.5832,-1.5832,-1.5832,-1.5832,-1.5832,-1.5832,-1.5832,-1.5832,-1.5832,-1.5832,-1.5832,-1.5832,-1.5832,-1.5832,-1.5832,-1.5832,-1.5832,-1.5832,-1.5832,-1.5832,-1.5832,-1.5832,-1.6048,-1.6693,-1.6157,-1.6292,-1.7483,-1.6466,-1.6027,-1.6685,-1.6162,-1.573,-1.5832,-1.5832,-1.5832,-1.5832,-1.5832,-1.5832,-1.5832,-1.5832,-1.5832,-1.5832,-1.5832,-1.5146,-1.3878,-1.4561,-1.4172,0.0,0.0,0.0,0.0,0.0,0.0,0.0,0.0,-1.8502,-1.8496,-1.8459,-1.8407,-1.8524,-1.8193,-1.8261,-1.9202,-1.8013,-1.7033,-1.7024,-1.6354,-1.5362,-1.4005,-1.4102,-1.4239,-1.4239,-1.3309,-1.2625,-1.2351,-1.1635,-1.0623,-0.9296,-0.9429,-0.9118,-0.8038,-0.8038,-0.8038,-0.8038,-0.8038,-0.8038,-0.8038,-0.8038,-0.8038,-0.8038,-0.8038,-0.8038,-0.8038,-0.8038,-0.8038,-0.8038,-0.8038,-0.8038,-0.8038,-0.8038,-0.8038,-0.8137,-0.9217,-0.9805,-1.0194,-1.1165,-1.2522,-1.3878,-1.3878,-1.4752,-1.5832,-1.5832,-1.5832,-1.5832,-1.5832,-1.5832,-1.5832,-1.5832,-1.5832,-1.5832,-1.5832,-1.5832,-1.5832,-1.5832,-1.5832,-1.5832,-1.5832,-1.5832,-1.5832,-1.5832,-1.5832,-1.5832,-1.5832,-1.5832,-1.5832,-1.5832,-1.5832,-1.6157,-1.7239,-1.6432,-1.6195,-1.7232,-1.6374,-1.5832,-1.5832,-1.5832,-1.5832,-1.5832,-1.5832,-1.5832,-1.5832,-1.5832,-1.5832,-1.5832,-1.5514,-1.4727,-1.3471,-1.3278,-1.2517,-1.8278,-1.9204,-1.9206,-1.8273,-1.8594,-1.9285,0.0,0.0,-1.8884,-2.0081,-1.9998,-1.9408,-1.8531,-1.8638,-1.8602,-1.7751,-1.6659,-1.5967,-1.6169,-1.5333,-1.432,-1.3273,-1.314,-1.3158,-1.3158,-1.227,-1.1189,-0.9971,-1.0052,-0.9575,-0.8209,-0.8226,-0.8137,-0.8038,-0.8038,-0.8038,-0.8038,-0.8038,-0.8038,-0.8038,-0.8038,-0.8038,-0.8038,-0.8038,-0.8038,-0.8038,-0.8038,-0.8038,-0.8038,-0.8038,-0.8038,-0.8038,-0.8038,-0.8038,-0.8041,-0.8137,-0.9019,-0.9998,-1.0194,-1.1843,-1.3878,-1.3878,-1.4752,-1.5832,-1.5832,-1.5832,-1.5832,-1.5832,-1.5832,-1.5832,-1.5832,-1.5832,-1.5832,-1.5832,-1.5832,-1.5832,-1.5832,-1.5832,-1.5832,-1.5832,-1.5832,-1.5832,-1.5832,-1.5832,-1.5832,-1.5832,-1.5832,-1.5832,-1.5832,-1.5832,-1.5832,-1.6042,-1.5896,-1.5854,-1.5988,-1.5838,-1.5832,-1.5832,-1.5832,-1.5832,-1.5832,-1.5832,-1.5832,-1.5832,-1.5832,-1.5832,-1.5832,-1.4659,-1.3469,-1.2149,-1.0919,-1.0364,-1.7407,-1.8324,0.0,0.0,-1.8765,-1.9314,-1.9756,-1.9618,-1.9576,-2.0446,-2.046,-1.9976,-1.8948,-1.8364,-1.7827,0.0,-1.6035,-1.5291,-1.5996,-1.4851,-1.3671,-1.3314,-1.2052,-1.1517,-1.2035,-1.1191,-1.036,-0.9786,-0.9174,-0.8627,-0.8038,-0.8038,-0.8038,-0.8038,-0.8038,-0.8038,-0.8038,-0.8038,-0.8038,-0.8038,-0.8038,-0.8038,-0.8038,-0.8038,-0.8038,-0.8038,-0.8038,-0.8038,-0.8038,-0.8038,-0.8038,-0.8038,-0.8038,-0.8038,-0.8038,-0.8038,-0.8333,-0.8825,-0.8825,-1.0092,-1.1648,-1.1648,-1.3006,-1.4657,-1.4657,-1.5242,-1.5832,-1.5832,-1.5832,-1.5832,-1.5832,-1.5832,-1.5832,-1.5832,-1.5832,-1.5832,-1.5832,-1.5832,-1.5832,-1.5832,-1.5832,-1.5832,-1.5832,-1.5832,-1.5832,-1.5832,-1.5832,-1.5832,-1.5832,-1.5832,-1.5832,-1.5832,-1.6479,-1.6615,-1.5906,-1.5832,-1.5832,-1.5832,-1.5832,-1.5832,-1.5832,-1.5832,-1.5832,-1.5832,-1.5832,-1.5832,-1.5832,-1.4551,-1.3188,-1.1905,-1.0613,-0.9559,-1.7372,0.0,0.0,-1.9193,-1.9525,-1.9639,-1.9639,-1.9638,-1.9717,-2.01,-1.9923,-1.9353,-1.8301,-1.7415,-1.6796,-1.657,-1.5383,-1.4824,-1.5748,-1.443,-1.3327,-1.3019,-1.1264,-1.0134,-1.0468,-0.9913,-0.941,-0.941,-0.8528,-0.8038,-0.8038,-0.8038,-0.8038,-0.8038,-0.8038,-0.8038,-0.8038,-0.8038,-0.8038,-0.8038,-0.8038,-0.8038,-0.8038,-0.8038,-0.8038,-0.8038,-0.8038,-0.8038,-0.8038,-0.8038,-0.8038,-0.8038,-0.8038,-0.8038,-0.8038,-0.8038,-0.8038,-0.8038,-0.8038,-0.8924,-0.9998,-0.9998,-1.1551,-1.3397,-1.3397,-1.4268,-1.5242,-1.5242,-1.5242,-1.5343,-1.573,-1.5534,-1.5337,-1.573,-1.5832,-1.5832,-1.5832,-1.5832,-1.5832,-1.5832,-1.5832,-1.5832,-1.5832,-1.5832,-1.5832,-1.5832,-1.5832,-1.5832,-1.5832,-1.5832,-1.5832,-1.5832,-1.6918,-1.7144,-1.5933,-1.615,-1.6157,-1.5832,-1.5832,-1.5832,-1.5832,-1.5832,-1.5832,-1.5832,-1.5832,-1.5832,-1.5832,-1.4135,-1.2816,-1.182,-1.0258,-0.8977,0.0,0.0,-1.9083,-2.0855,-2.0933,-2.0527,-2.0527,-1.9737,-1.9027,-1.9036,-1.8149,-1.709,-1.6026,-1.5779,-1.5474,-1.4708,-1.4509,-1.4716,-1.5291,-1.4235,-1.3014,-1.2104,-1.0774,-0.9505,0.0,-0.8035,-0.8038,-0.8038,-0.8038,-0.8038,-0.8038,-0.8038,-0.8038,-0.8038,-0.8038,-0.8038,-0.8038,-0.8038,-0.8038,-0.8038,-0.8038,-0.8038,-0.8038,-0.8038,-0.8038,-0.8038,-0.8038,-0.8038,-0.8038,-0.8038,-0.8038,-0.8038,-0.8038,-0.8038,-0.8038,-0.8038,-0.8038,-0.8038,-0.8038,-0.8924,-0.9998,-0.9998,-1.0877,-1.1945,-1.1945,-1.2909,-1.3968,-1.3968,-1.3968,-1.4262,-1.5439,-1.4854,-1.4262,-1.5534,-1.5832,-1.5832,-1.5832,-1.5832,-1.5832,-1.5832,-1.5832,-1.5832,-1.5832,-1.5832,-1.5832,-1.5832,-1.5832,-1.5832,-1.5832,-1.5832,-1.5832,-1.5832,-1.6918,-1.7144,-1.5933,-1.6918,-1.713,-1.5838,-1.5832,-1.5832,-1.5832,-1.5832,-1.5832,-1.5832,-1.5832,-1.5832,-1.5825,-1.3199,-1.1951,-1.189,-0.9271,-0.8038,0.0,0.0,-1.8667,-1.9611,-1.9076,-1.8381,-1.8381,-1.8141,-1.7908,-1.7908,-1.7456,-1.6724,-1.5617,-1.5554,-1.5416,-1.4379,-1.4723,-1.517,-1.5364,-1.3649,-1.2245,-1.1935,-0.9998,0.0,0.0,0.0,0.0,-0.8038,-0.8038,-0.8038,-0.8038,-0.8038,-0.8038,-0.8038,-0.8038,-0.8038,-0.8038,-0.8038,-0.8038,-0.8038,-0.8038,-0.8038,-0.8038,-0.8038,-0.8038,-0.8038,-0.8038,-0.8038,-0.8038,-0.8038,-0.8038,-0.8038,-0.8038,-0.8038,-0.8038,-0.8038,-0.8038,-0.8038,-0.8038,-0.8336,-0.8627,-0.8627,-0.9604,-1.0779,-1.1653,-1.2813,-1.407,-1.4949,-1.5146,-1.5242,-1.573,-1.5439,-1.5242,-1.573,-1.5832,-1.5832,-1.5832,-1.5832,-1.5832,-1.5832,-1.5832,-1.5832,-1.5832,-1.5832,-1.5832,-1.5832,-1.5832,-1.5832,-1.5832,-1.5832,-1.5832,-1.5832,-1.6157,-1.6254,-1.5875,-1.6158,-1.6265,-1.5832,-1.5832,-1.5832,-1.5832,-1.5832,-1.5832,-1.5832,-1.5832,-1.5832,-1.5825,-1.3193,-1.1854,-1.1795,-0.9176,-0.8038,-1.7387,-1.7339,-1.7441,-1.9091,-1.8691,-1.7819,-1.7423,-1.7009,-1.6764,-1.6764,-1.5898,-1.4933,-1.4318,-1.4413,-1.4246,-1.3077,-1.3768,-1.4559,-1.4656,-1.2554,-1.1284,-1.1833,-0.9604,0.0,0.0,0.0,0.0,-0.8038,-0.8038,-0.8038,-0.8038,-0.8038,-0.8038,-0.8038,-0.8038,-0.8038,-0.8038,-0.8038,-0.8038,-0.8038,-0.8038,-0.8038,-0.8038,-0.8038,-0.8038,-0.8038,-0.8038,-0.8038,-0.8038,-0.8038,-0.8038,-0.8038,-0.8038,-0.8038,-0.8038,-0.8038,-0.8038,-0.8038,-0.8038,-0.8038,-0.8038,-0.8038,-0.8627,-0.9509,-1.0877,-1.2134,-1.3494,-1.4752,-1.5146,-1.5242,-1.5635,-1.5439,-1.5242,-1.573,-1.5832,-1.5832,-1.5832,-1.5832,-1.5832,-1.5832,-1.5832,-1.5832,-1.5832,-1.5832,-1.5832,-1.5832,-1.5832,-1.5832,-1.5832,-1.5832,-1.5832,-1.5832,-1.6259,-1.6261,-1.5805,-1.6264,-1.6265,-1.5832,-1.5832,-1.5832,-1.5832,-1.5832,-1.5832,-1.5832,-1.5832,-1.5832,-1.5825,-1.3193,-1.1854,-1.1795,-0.9176,-0.8038,-1.6365,-1.6012,-1.5567,-1.9263,-1.9376,-1.8381,-1.7334,-1.6355,-1.5613,-1.5516,-1.3692,-1.2105,0.0,0.0,-1.2269,-1.0926,-1.2089,-1.3236,-1.3393,-1.1206,-1.0153,0.0,0.0,0.0,0.0,0.0,0.0,-0.8038,0.0,-0.8038,-0.8038,-0.8038,-0.8038,-0.8038,-0.8038,-0.8038,-0.8038,-0.8038,-0.8038,-0.8038,-0.8038,-0.8038,-0.8038,-0.8038,-0.8038,-0.8038,-0.8038,-0.8045,-0.8052,-0.8052,-0.8055,-0.8062,-0.8062,-0.8062,-0.8062,-0.8062,-0.8062,-0.8062,-0.8062,-0.8052,-0.8038,-0.8038,-0.8137,-0.8333,-0.9801,-1.1068,-1.2237,-1.359,-1.3974,-1.4268,-1.5534,-1.4854,-1.4262,-1.5534,-1.5832,-1.5832,-1.5832,-1.5832,-1.5832,-1.5832,-1.5832,-1.5832,-1.5832,-1.5832,-1.5832,-1.5832,-1.5832,-1.5832,-1.5832,-1.5832,-1.5832,-1.5832,-1.6911,-1.713,-1.5933,-1.6918,-1.713,-1.5838,-1.5832,-1.5832,-1.5832,-1.5832,-1.5832,-1.5832,-1.5832,-1.573,-1.5724,-1.3098,-1.1849,-1.179,-0.9176,-0.8038,-1.5693,-1.5028,-1.4597,-1.6424,-1.5471,-1.4169,-1.4803,-1.4741,-1.4253,-1.3258,-1.3007,-1.2357,0.0,-1.2164,-1.3366,-1.2263,-1.3823,0.0,-1.3862,-1.2342,0.0,0.0,0.0,-0.8038,-0.8038,-0.8038,0.0,0.0,-0.8038,-0.8038,-0.8038,-0.8038,-0.8038,-0.8038,-0.8038,-0.8038,-0.8038,-0.8038,-0.8038,-0.8038,-0.8038,-0.8038,-0.8038,-0.8038,-0.8038,-0.8038,-0.8038,-0.8106,-0.8211,-0.8211,-0.8272,-0.8367,-0.8367,-0.8367,-0.8367,-0.8367,-0.8367,-0.8367,-0.8367,-0.8225,-0.8137,-0.9118,-0.9509,-0.9899,-1.2226,-1.3102,-1.3686,-1.4949,-1.5343,-1.5439,-1.573,-1.5534,-1.5439,-1.573,-1.5832,-1.5832,-1.5832,-1.5832,-1.5832,-1.5832,-1.5832,-1.5832,-1.5832,-1.5832,-1.5832,-1.5832,-1.5832,-1.5832,-1.5832,-1.5832,-1.5832,-1.5832,-1.6055,-1.6157,-1.5832,-1.6055,-1.6157,-1.5832,-1.5832,-1.5832,-1.5832,-1.5832,-1.5832,-1.5832,-1.5832,-1.5298,-1.4349,-1.268,-1.1433,-1.0423,-0.8763,-0.8038,-1.3136,-1.2822,-1.2765,-1.3878,-1.3562,-1.3018,-1.2978,-1.3457,-1.3602,-1.2599,-1.2397,0.0,-1.0042,-1.1747,0.0,0.0,0.0,0.0,-1.3063,-1.1642,-1.0669,0.0,-0.8825,0.0,-0.8038,-0.8038,-0.8038,0.0,-0.8038,-0.8038,-0.8038,-0.8038,-0.8038,-0.8038,-0.8038,-0.8072,-0.814,-0.814,-0.8174,-0.8235,-0.8235,-0.8235,-0.8235,-0.8235,-0.8235,-0.8235,0.0,-0.8282,-0.8364,-0.8364,-0.8411,-0.8482,-0.8482,-0.8482,-0.8482,-0.8482,-0.8482,-0.8482,-0.8482,-0.8374,-0.8424,-0.9646,-1.0116,-1.0591,-1.313,-1.3878,-1.4166,-1.5439,-1.5832,-1.5832,-1.5832,-1.5832,-1.5832,-1.5832,-1.5832,-1.5832,-1.5832,-1.5832,-1.5832,-1.5832,-1.5832,-1.5832,-1.5832,-1.5832,-1.5832,-1.5832,-1.5832,-1.6042,-1.6585,-1.6592,-1.6381,-1.5838,-1.6265,-1.6374,-1.5832,-1.5832,-1.5832,-1.5832,-1.5832,-1.5832,-1.5832,-1.5832,-1.5832,-1.5832,-1.5292,-1.4652,-1.3921,-1.2026,-1.0663,-1.0004,-0.8656,-0.8038,-1.0162,-1.0368,-1.054,-1.173,-1.2771,-1.3169,-1.1837,-1.2594,-1.338,-1.2659,0.0,-1.1022,-0.9662,-1.1089,-1.1696,-0.9271,0.0,-1.2763,-1.1723,-1.0431,-0.9626,-0.9763,-0.8726,-0.8038,-0.8038,-0.8038,-0.8038,-0.8038,-0.8038,-0.8038,-0.8038,-0.8038,-0.8048,-0.8069,-0.8089,-0.8163,-0.8296,-0.8299,-0.836,-0.8482,-0.8482,-0.8482,-0.8482,-0.8482,-0.8482,-0.8482,-0.8482,0.0,-0.8513,-0.8513,-0.8523,-0.8543,-0.8543,-0.8646,-0.8857,-0.8857,-0.8959,-0.9166,-0.9166,-0.9166,-0.9238,-1.0268,-1.0496,-1.097,-1.355,-1.4268,-1.4461,-1.5606,-1.5885,-1.5879,-1.5838,-1.5832,-1.5832,-1.5832,-1.5832,-1.5832,-1.5832,-1.5832,-1.5832,-1.5832,-1.5832,-1.5832,-1.5832,-1.5832,-1.5832,-1.5832,-1.594,-1.6374,-1.7348,-1.7582,-1.7312,-1.6425,-1.7167,-1.7246,-1.6157,-1.5933,-1.5832,-1.5832,-1.5832,-1.5832,-1.5832,-1.5832,-1.5724,-1.5514,-1.445,-1.3743,-1.3385,-1.1114,-0.99,-0.9693,-0.8553,-0.8038,-1.0504,-0.9908,-0.9479,-1.0595,-1.1026,-1.125,-1.1433,-1.2594,0.0,0.0,0.0,-1.1585,-0.8698,-1.0148,0.0,-1.0704,0.0,0.0,0.0,0.0,-0.9535,0.0,0.0,0.0,0.0,0.0,0.0,0.0,0.0,-0.8038,-0.8038,-0.8038,-0.8099,-0.8225,-0.8343,-0.8418,-0.8445,-0.8445,-0.8459,-0.8482,-0.8482,-0.8482,-0.8482,-0.8482,-0.8482,-0.8482,-0.8482,0.0,-0.8669,-0.8669,-0.8747,-0.8859,-0.8859,-0.9614,-1.0687,-1.0687,-1.1436,-1.251,-1.251,-1.251,-1.2442,-1.226,-1.223,-1.273,-1.5345,-1.6242,-1.6196,-1.6162,-1.6192,-1.6139,-1.5892,-1.5832,-1.5832,-1.5832,-1.5832,-1.5832,-1.5832,-1.5832,-1.5832,-1.5832,-1.5832,-1.5832,-1.5832,-1.5832,-1.5832,-1.5832,-1.67,-1.7035,-1.6259,-1.7028,-1.8039,-1.875,-1.8203,-1.7582,-1.7363,-1.6374,-1.5832,-1.5832,-1.5832,-1.5832,-1.5832,-1.5832,-1.5298,-1.4242,-1.4028,-1.2844,-1.0654,-1.019,-0.9383,-0.8347,-0.8141,-0.8038,-0.879,-0.836,-0.8101,-0.8619,-0.9226,-0.9786,-1.0225,0.0,0.0,0.0,0.0,-1.1709,-0.9089,0.0,0.0,0.0,0.0,0.0,0.0,0.0,0.0,0.0,0.0,0.0,0.0,0.0,0.0,0.0,0.0,-0.816,-0.816,-0.8228,-0.8303,-0.8377,-0.8445,-0.852,-0.8601,-0.8601,-0.8638,-0.872,-0.872,-0.872,-0.872,-0.872,-0.872,-0.872,-0.872,0.0,-0.8828,-0.9581,-0.9949,-1.0131,-1.0891,-1.1647,-1.2186,-1.2186,-1.2729,-1.3264,-1.3264,-1.3264,-1.3337,-1.3857,-1.3909,-1.4202,-1.613,-1.6707,-1.6673,-1.6533,-1.65,-1.6433,-1.6132,-1.6059,-1.6019,-1.5865,-1.5832,-1.5832,-1.5832,-1.5832,-1.5832,-1.5832,-1.5832,-1.5832,-1.5832,-1.5832,-1.5832,-1.5832,-1.6367,-1.6749,-1.681,-1.7289,-1.7662,-1.7546,-1.819,-1.8134,-1.6774,-1.6157,-1.5832,-1.5832,-1.5832,-1.5832,-1.5832,-1.5832,-1.519,-1.3921,-1.3204,-1.1933,-1.0004,-0.9279,-0.8656,-0.8038,-0.8038,-0.8038,-0.7122,-0.7139,-0.7139,-0.7139,-0.8017,-0.9,-0.9218,-1.0428,0.0,0.0,-1.2098,-1.17,-0.9674,0.0,0.0,0.0,0.0,0.0,0.0,0.0,0.0,0.0,0.0,0.0,0.0,0.0,0.0,0.0,0.0,0.0,-0.8316,-0.8452,-0.853,-0.853,-0.8564,-0.8638,-0.8757,-0.876,-0.8818,-0.894,-0.894,-0.894,-0.894,-0.894,-0.894,-0.894,-0.894,0.0,0.0,-1.0676,-1.1324,-1.1647,-1.2832,-1.348,-1.3804,-1.3804,-1.3911,-1.4234,-1.4234,-1.4234,-1.4449,-1.5524,-1.5493,-1.5291,-1.6547,-1.6894,-1.6881,-1.682,-1.68,-1.6734,-1.644,-1.6319,-1.6199,-1.5899,-1.5832,-1.5832,-1.5832,-1.5832,-1.5832,-1.5832,-1.5832,-1.5832,-1.5832,-1.5832,-1.5832,-1.5832,-1.6048,-1.6448,-1.7213,-1.7995,-1.7837,-1.5956,-1.7757,-1.8289,-1.6414,-1.594,-1.5832,-1.5832,-1.5832,-1.5832,-1.5832,-1.5832,-1.5082,-1.3507,-1.2443,-1.1155,-0.959,-0.8553,-0.8038,-0.8038,-0.8038,-0.8038,-0.7068,-0.7139,-0.7139,-0.7139,-0.8017,-0.9,-0.9218,0.0,0.0,-1.1827,-1.2098,-1.17,-0.9674,-0.9408,0.0,0.0,0.0,0.0,0.0,0.0,0.0,0.0,0.0,0.0,0.0,0.0,0.0,0.0,0.0,0.0,-0.8462,-0.8608,-0.8689,-0.8689,-0.8825,-0.8903,-0.8916,-0.8916,-0.8923,-0.894,-0.894,-0.894,-0.894,-0.894,-0.894,-0.894,-0.894,0.0,0.0,-1.1,-1.186,-1.3156,-1.3264,-1.4126,-1.5204,-1.5204,-1.6062,-1.7147,-1.7147,-1.7147,-1.7252,-1.7364,-1.648,-1.5594,-1.7075,-1.7502,-1.7448,-1.7181,-1.7108,-1.7041,-1.674,-1.6473,-1.6199,-1.5899,-1.5832,-1.5832,-1.5832,-1.5832,-1.5832,-1.5832,-1.5832,-1.5832,-1.5832,-1.5832,-1.5832,-1.5832,-1.6802,-1.7108,-1.6149,-1.8863,-1.9668,-1.6156,-1.7015,-1.7807,-1.756,-1.6476,-1.5832,-1.5832,-1.5832,-1.5832,-1.5832,-1.5832,-1.4659,-1.2162,-1.1923,-1.0635,-0.8144,-0.8041,-0.8038,-0.8038,-0.8038,-0.8038,-0.7085,-0.7139,-0.7139,-0.7139,-0.7854,-0.8802,-0.9428,0.0,0.0,-1.2011,-1.2225,-1.1848,-1.049,-0.9744,-0.9052,0.0,0.0,0.0,0.0,0.0,0.0,0.0,0.0,0.0,0.0,0.0,0.0,0.0,0.0,0.0,-0.8767,-0.8821,-0.8849,-0.8849,-0.8906,-0.894,-0.894,-0.894,-0.894,-0.894,-0.894,-0.894,-0.894,-0.894,-0.894,-0.894,-0.894,0.0,0.0,-1.2077,-1.3264,-1.4663,-1.553,-1.628,-1.6717,-1.6717,-1.7147,-1.7582,-1.7582,-1.7582,-1.7582,-1.7582,-1.7765,-1.785,-1.7674,-1.7582,-1.7555,-1.7442,-1.7408,-1.7341,-1.7048,-1.6627,-1.6199,-1.5899,-1.5832,-1.6015,-1.6763,-1.6943,-1.7124,-1.7848,-1.7397,-1.6979,-1.6897,-1.6272,-1.6069,-1.6872,-1.7379,-1.78,-1.7983,-1.9265,-1.9686,-1.819,-1.845,-1.8138,-1.6693,-1.6055,-1.5832,-1.5832,-1.5832,-1.5832,-1.5832,-1.5832,-1.4558,-1.1962,-1.1918,-1.0631,-0.8038,-0.8038,-0.8038,-0.8038,-0.8038,-0.8038,-0.7101,-0.7369,-0.7577,-0.7228,-0.7718,-0.8645,0.0,0.0,-1.126,-1.2136,-1.2305,-1.1996,-1.1013,-0.9965,-0.8998,0.0,0.0,0.0,0.0,0.0,0.0,0.0,0.0,0.0,0.0,0.0,0.0,0.0,0.0,0.0,0.0,-0.8947,-0.894,-0.894,-0.894,-0.894,-0.894,-0.894,-0.894,-0.894,-0.894,-0.894,-0.894,-0.894,-0.894,-0.8937,-0.9372,0.0,0.0,-1.3372,-1.4776,-1.6168,-1.7147,-1.7582,-1.7582,-1.7582,-1.7582,-1.7582,-1.7582,-1.7582,-1.7687,-1.8094,-1.8812,-1.9524,-1.9013,-1.8499,-1.8297,-1.8708,-1.8499,-1.8005,-1.7217,-1.6707,-1.6306,-1.5919,-1.5832,-1.6109,-1.7412,-1.7692,-1.8048,-1.9314,-1.8772,-1.8272,-1.8224,-1.7485,-1.7174,-1.808,-1.8216,-1.8569,-1.935,-1.9791,-1.987,-1.9545,-1.9819,-1.9042,-1.6564,-1.6042,-1.5832,-1.5832,-1.5832,-1.5832,-1.5832,-1.5832,-1.4558,-1.1962,-1.1918,-1.0631,-0.8038,-0.8038,-0.8244,-0.8556,-0.8556,-0.8763,-0.714,-0.7895,-0.8627,-0.7401,-0.7718,-0.8645,0.0,0.0,-1.126,-1.2136,-1.2305,-1.1996,-1.1013,-0.9965,-0.8998,-0.7936,-0.6949,0.0,0.0,0.0,0.0,0.0,0.0,0.0,0.0,0.0,0.0,0.0,0.0,0.0,0.0,-0.894,-0.894,-0.894,-0.894,-0.894,-0.894,-0.894,-0.894,-0.894,-0.894,-0.894,-0.894,-0.894,-0.894,0.0,0.0,0.0,0.0,-1.477,-1.628,-1.7582,-1.7582,-1.7582,-1.7582,-1.7582,-1.7582,-1.7582,-1.7582,-1.7582,-1.7786,-1.9117,-1.9627,-1.9834,-2.1245,-2.0633,-1.9826,-2.1245,-2.0641,-1.9177,-1.7257,-1.6707,-1.6553,-1.5965,-1.5832,-1.6109,-1.7412,-1.7692,-1.8048,-1.9314,-1.9497,-1.9497,-1.9497,-1.9497,-1.9455,-1.951,-1.9496,-1.952,-1.9528,-2.0544,-2.0855,-1.9607,-2.0553,-2.0347,-1.7931,-1.6483,-1.5832,-1.5832,-1.5832,-1.5832,-1.5832,-1.5832,-1.4558,-1.1962,-1.1918,-1.0631,-0.8038,-0.8038,-0.866,-1.0004,-1.0004,-1.0635,-0.8386,-0.8837,-0.9018,-0.8475,-0.9104,-0.9974,-1.0286,0.0,-1.2755,-1.2392,-1.2806,-1.2945,-1.199,-1.0421,-0.9221,-0.8841,-0.7403,0.0,0.0,0.0,0.0,0.0,0.0,0.0,0.0,0.0,0.0,0.0,0.0,0.0,0.0,-0.8947,-0.894,-0.894,-0.894,-0.894,-0.894,-0.894,-0.894,-0.894,-0.894,-0.894,-0.894,-0.894,-0.9482,0.0,0.0,0.0,0.0,-1.5204,-1.628,-1.7582,-1.7582,-1.7582,-1.7582,-1.7582,-1.7582,-1.7582,-1.7582,-1.8199,-1.9013,-1.942,-2.0845,-2.2466,-2.2976,-2.2165,-2.1143,-2.155,-2.1167,-2.0377,-1.9532,-1.8484,-1.7548,-1.7232,-1.7131,-1.7404,-1.868,-1.9579,-2.0486,-2.1774,-2.1302,-2.0747,-2.0747,-2.0034,-1.9778,-2.0645,-2.0701,-2.1069,-2.1826,-2.2328,-2.2375,-2.2011,-2.0793,-1.9413,-1.7851,-1.7348,-1.67,-1.5838,-1.5832,-1.5832,-1.5832,-1.4975,-1.3714,-1.1957,-1.1082,-0.9693,-0.8038,-0.8038,-0.8667,-0.9992,-0.9992,-1.0702,0.0,-0.9428,-0.9617,-0.9022,-1.0029,0.0,0.0,0.0,-1.3528,-1.2952,-1.3025,-1.2872,-1.1916,-1.0421,-0.9145,-0.8765,-0.7326,0.0,0.0,0.0,0.0,0.0,0.0,0.0,0.0,0.0,0.0,0.0,0.0,0.0,0.0,-0.8916,-0.894,-0.894,-0.894,-0.9154,-0.9699,-0.9154,-0.9154,-0.9699,-0.9154,-0.894,-0.894,-0.894,-0.9699,0.0,0.0,0.0,0.0,-1.5962,-1.6823,-1.7582,-1.7582,-1.7582,-1.7687,-1.8199,-1.7989,-1.7786,-1.8805,-1.9317,-1.9731,-2.0845,-2.2676,-2.4402,-2.4402,-2.389,-2.2941,-2.1787,-2.1578,-2.1578,-2.0591,-1.9542,-1.8642,-1.786,-1.7692,-1.8048,-1.9222,-2.0124,-2.1123,-2.2775,-2.2492,-2.1943,-2.1943,-2.14,-2.1123,-2.1845,-2.1943,-2.2217,-2.296,-2.3135,-2.296,-2.2492,-2.1033,-1.9546,-1.7849,-1.7297,-1.6599,-1.5832,-1.5832,-1.5832,-1.5832,-1.4558,-1.3273,-1.1966,-1.0632,-0.9379,-0.8038,-0.8969,-0.9908,-1.0734,-1.1723,-1.2579,0.0,0.0,0.0,0.0,0.0,0.0,0.0,0.0,0.0,0.0,0.0,-1.2077,-1.1037,-0.9981,-0.9003,-0.7949,-0.6953,0.0,0.0,0.0,0.0,0.0,0.0,0.0,0.0,0.0,0.0,0.0,0.0,0.0,0.0,-0.8838,-0.892,-0.903,-0.904,-0.9699,-1.1105,-0.9699,-0.9809,-1.1214,-0.9809,-0.9047,-0.9047,-0.9047,-0.9805,0.0,0.0,0.0,0.0,-1.7041,-1.7582,-1.7582,-1.7582,-1.7687,-1.7891,-1.9117,-1.8916,-1.8297,-2.0837,-2.0947,-2.0341,-2.2976,-2.4688,-2.5684,-2.5684,-2.5684,-2.5091,-2.2094,-2.216,-2.2634,-2.0678,-2.0102,-1.9621,-1.8303,-1.7963,-1.8234,-1.9405,-1.9679,-2.0404,-2.2687,-2.3135,-2.3135,-2.3135,-2.3135,-2.3135,-2.3135,-2.3135,-2.3135,-2.3135,-2.3135,-2.2677,-2.1382,-2.1203,-2.0215,-1.787,-1.6662,-1.5913,-1.5832,-1.5832,-1.5832,-1.5832,-1.4558,-1.3284,-1.2083,-1.073,-0.9379,-0.8038,-1.0527,-1.1781,-1.1959,-1.4437,-1.5615,-1.0233,0.0,-1.0763,-1.0353,-1.0876,0.0,0.0,0.0,0.0,0.0,0.0,0.0,0.0,0.0,0.0,0.0,0.0,0.0,0.0,0.0,0.0,0.0,0.0,0.0,0.0,0.0,0.0,0.0,0.0,0.0,0.0,-0.8679,-0.9295,-1.0361,-1.0494,-1.0785,-1.1105,-1.0781,-1.1324,-1.2729,-1.1324,-1.0566,-1.0566,-1.0566,-1.1433,0.0,0.0,0.0,-1.7147,-1.7477,-1.7582,-1.7582,-1.7582,-1.8199,-1.922,-1.9524,-2.0033,-2.0837,-2.1448,-2.2156,-2.2976,-2.4716,-2.5199,-2.5225,-2.5225,-2.5225,-2.51,-2.4297,-2.3908,-2.3477,-2.2994,-2.1953,-2.0861,-2.0503,-2.0486,-2.0567,-2.0845,-2.1578,-2.2413,-2.296,-2.3135,-2.3135,-2.3135,-2.3135,-2.3135,-2.3135,-2.3135,-2.3135,-2.3135,-2.3135,-2.2677,-2.1382,-2.0486,-1.9314,-1.787,-1.7453,-1.68,-1.5825,-1.5832,-1.5832,-1.5832,-1.4558,-1.3741,-1.3487,-1.1199,-0.9379,-0.8038,-0.9689,-1.0923,-1.1889,-1.2517,-1.34,-1.0739,-1.0775,-1.0955,-1.0795,-1.1627,-1.2417,0.0,0.0,0.0,0.0,0.0,0.0,0.0,0.0,0.0,0.0,0.0,0.0,0.0,0.0,0.0,0.0,0.0,0.0,0.0,0.0,0.0,0.0,0.0,0.0,0.0,-0.8526,-0.9231,-1.059,-1.069,-1.1567,-1.3048,-1.2403,-1.2832,-1.4234,-1.2832,-1.2077,-1.2077,-1.2077,-1.294,0.0,0.0,0.0,-1.7582,-1.7582,-1.7996,-1.8506,-1.8506,-1.9317,-2.0641,-2.1253,-2.155,-2.1853,-2.3076,-2.387,-2.4416,-2.5228,-2.5127,-2.4775,-2.4775,-2.4639,-2.4482,-2.4482,-2.415,-2.374,-2.3545,-2.285,-2.2031,-2.1382,-2.1293,-2.1293,-2.1311,-2.1854,-2.2403,-2.296,-2.3135,-2.3135,-2.3135,-2.3135,-2.3135,-2.3135,-2.3135,-2.2862,-2.2315,-2.2306,-2.1578,-1.9861,-1.9039,-1.8133,-1.6943,-1.6821,-1.6532,-1.5825,-1.5832,-1.5832,-1.5832,-1.4558,-1.357,-1.2956,-1.156,-1.0527,-0.9797,-1.1155,-1.2129,-1.2786,-1.2786,-1.3509,-1.0828,-1.0902,-1.1109,-1.1015,-1.2269,-1.3454,0.0,0.0,0.0,0.0,0.0,0.0,0.0,0.0,0.0,0.0,0.0,0.0,0.0,0.0,0.0,0.0,0.0,0.0,0.0,0.0,0.0,0.0,0.0,0.0,0.0,-0.8574,-0.9372,-1.0707,-1.094,-1.2467,-1.5617,-1.427,-1.4287,-1.5683,-1.4325,-1.3588,-1.3588,-1.3588,-1.4234,-1.5417,0.0,0.0,-1.7582,-1.7582,-1.8401,-1.9627,-1.9627,-2.0641,-2.2156,-2.3276,-2.3076,-2.2659,-2.4837,-2.5391,-2.5059,-2.499,-2.4668,-2.4316,-2.4316,-2.4023,-2.3691,-2.3691,-2.3691,-2.3603,-2.3232,-2.3135,-2.2862,-2.1845,-2.1569,-2.1569,-2.1596,-2.1587,-2.1845,-2.2862,-2.3135,-2.3135,-2.3135,-2.3135,-2.3135,-2.3135,-2.295,-2.2492,-2.1382,-2.1114,-2.0215,-1.7963,-1.7692,-1.7225,-1.592,-1.5832,-1.5832,-1.5832,-1.5832,-1.5832,-1.5832,-1.4766,-1.3512,-1.1893,-1.2088,-1.2023,-1.1604,-1.3193,-1.3871,-1.3921,-1.3921,-1.4588,-1.1316,-1.151,-1.1617,-1.1116,-1.179,-1.2505,0.0,0.0,0.0,0.0,0.0,0.0,0.0,0.0,0.0,0.0,0.0,0.0,0.0,0.0,0.0,0.0,0.0,0.0,0.0,0.0,0.0,0.0,0.0,0.0,0.0,-0.921,-1.061,-1.2028,-1.3217,-1.4689,-1.6524,-1.5299,-1.5517,-1.6898,-1.5635,-1.5091,-1.5091,-1.5091,-1.5204,-1.5417,0.0,-1.7364,-1.7582,-1.7582,-1.8401,-1.9627,-1.9627,-2.1151,-2.3384,-2.3583,-2.4304,-2.507,-2.5197,-2.5127,-2.501,-2.4639,-2.4228,-2.3887,-2.3887,-2.3584,-2.3242,-2.3242,-2.3242,-2.3223,-2.3154,-2.3135,-2.3047,-2.2862,-2.2862,-2.2862,-2.2784,-2.2862,-2.2862,-2.3047,-2.3135,-2.3135,-2.3135,-2.3135,-2.3135,-2.3135,-2.2217,-2.148,-2.1293,-2.0395,-1.9222,-1.787,-1.7692,-1.7225,-1.592,-1.5832,-1.5832,-1.5832,-1.5832,-1.5832,-1.5832,-1.5615,-1.4404,-1.1915,-1.3008,-1.2464,-1.0318,-1.2672,-1.3886,-1.3921,-1.3921,-1.4588,-1.1276,-1.1523,-1.1844,-1.173,-1.2485,-1.3227,0.0,0.0,0.0,0.0,0.0,0.0,0.0,0.0,0.0,0.0,0.0,0.0,0.0,0.0,0.0,0.0,0.0,0.0,0.0,0.0,0.0,0.0,0.0,0.0,0.0,0.0,-1.1005,-1.3171,-1.3872,-1.4826,-1.6233,-1.5911,-1.613,-1.6914,-1.6414,-1.6238,-1.6384,-1.6384,-1.6466,-1.6611,0.0,-1.7582,-1.7582,-1.7582,-1.8805,-2.0743,-2.0743,-2.2366,-2.4786,-2.4551,-2.4871,-2.5312,-2.4863,-2.456,-2.4346,-2.415,-2.3789,-2.3437,-2.3437,-2.3301,-2.3135,-2.3135,-2.3135,-2.3135,-2.3135,-2.3135,-2.3135,-2.3135,-2.3135,-2.3135,-2.3135,-2.3135,-2.3135,-2.3135,-2.3135,-2.3135,-2.3135,-2.3135,-2.3135,-2.3135,-2.2589,-2.1756,-2.0486,-1.9852,-1.8764,-1.685,-1.6662,-1.648,-1.5825,-1.5832,-1.5832,-1.5832,-1.5832,-1.5832,-1.5832,-1.5832,-1.4943,-1.2989,-1.4292,-1.4005,-1.2067,-1.4028,-1.4975,-1.4874,-1.4236,-1.4567,-1.1303,-1.1523,-1.1937,-1.2231,0.0,0.0,0.0,0.0,0.0,0.0,0.0,0.0,0.0,0.0,0.0,0.0,0.0,0.0,0.0,0.0,0.0,0.0,0.0,0.0,0.0,0.0,0.0,0.0,0.0,0.0,0.0,0.0,-1.1838,-1.3878,-1.4166,-1.4848,-1.5825,-1.6052,-1.6313,-1.6607,-1.6673,-1.682,-1.7048,-1.7048,-1.7168,-1.7382,-1.7448,-1.7482,-1.7482,-1.7555,-1.9013,-2.1245,-2.155,-2.3322,-2.5527,-2.5078,-2.4912,-2.4853,-2.4424,-2.4062,-2.3769,-2.3672,-2.3408,-2.3135,-2.3135,-2.3135,-2.3135,-2.3135,-2.3135,-2.3135,-2.3135,-2.3135,-2.3135,-2.3135,-2.3135,-2.3135,-2.3135,-2.3135,-2.3135,-2.3135,-2.3135,-2.3135,-2.3135,-2.3135,-2.3135,-2.3135,-2.2862,-2.1943,-1.9761,-1.9222,-1.8218,-1.6008,-1.5832,-1.5832,-1.5832,-1.5832,-1.5832,-1.5832,-1.5832,-1.5832,-1.5832,-1.5832,-1.5159,-1.3919,-1.5172,-1.5127,-1.3874,-1.5203,-1.5832,-1.5825,-1.4772,-1.4874,-1.1744,-1.1837,-1.1937,-1.2231,-1.2572,0.0,0.0,0.0,0.0,0.0,0.0,0.0,0.0,0.0,0.0,0.0,0.0,0.0,0.0,0.0,0.0,0.0,0.0,0.0,0.0,0.0,0.0,0.0,0.0,0.0,0.0,0.0,0.0,-1.3872,-1.5045,-1.573,-1.5832,-1.5852,-1.6012,-1.6306,-1.6573,-1.6714,-1.674,-1.674,-1.6747,-1.678,-1.7061,-1.7181,-1.7201,-1.7468,-1.8401,-1.9834,-2.1143,-2.3153,-2.5068,-2.4619,-2.4463,-2.4404,-2.3975,-2.3809,-2.3721,-2.332,-2.3164,-2.3135,-2.3135,-2.3135,-2.3135,-2.3135,-2.3135,-2.3135,-2.3135,-2.3135,-2.3135,-2.3135,-2.3135,-2.3135,-2.3135,-2.3135,-2.3135,-2.3135,-2.3135,-2.3135,-2.3135,-2.3135,-2.3135,-2.3135,-2.212,-2.0935,-1.9679,-1.8503,-1.7318,-1.592,-1.5832,-1.5832,-1.5832,-1.5832,-1.5832,-1.5832,-1.5832,-1.5832,-1.5832,-1.5832,-1.5242,-1.3878,-1.5159,-1.5172,-1.3919,-1.5159,-1.5832,-1.5832,-1.5724,-1.5724,-1.1617,-1.1857,-1.2211,-1.2505,0.0,0.0,0.0,0.0,0.0,0.0,0.0,0.0,0.0,0.0,0.0,0.0,0.0,0.0,0.0,0.0,0.0,0.0,0.0,0.0,0.0,0.0,0.0,0.0,0.0,0.0,0.0,0.0,0.0,-1.5051,-1.554,-1.5832,-1.5832,-1.5832,-1.5885,-1.5999,-1.6106,-1.6259,-1.6433,-1.6433,-1.6533,-1.6714,-1.682,-1.6874,-1.6982,-1.7785,-1.9015,-2.0392,-2.254,-2.3928,-2.4609,-2.418,-2.4033,-2.3965,-2.3535,-2.3389,-2.3359,-2.3193,-2.3135,-2.3135,-2.3135,-2.3135,-2.3135,-2.3135,-2.3135,-2.3135,-2.3135,-2.3135,-2.3135,-2.3135,-2.3135,-2.3135,-2.3135,-2.3135,-2.3135,-2.3135,-2.3135,-2.3135,-2.3135,-2.3135,-2.3135,-2.3135,-2.2677,-2.1676,-1.9761,-1.9131,-1.8033,-1.6015,-1.5832,-1.5832,-1.5832,-1.5832,-1.5832,-1.5832,-1.5832,-1.5832,-1.5832,-1.5832,-1.5242,-1.3872,-1.5146,-1.5153,-1.3896,-1.5153,-1.5832,-1.5832,-1.5832,-1.5832,-1.1713,-1.1857,-1.2258,0.0,0.0,0.0,0.0,0.0,0.0,0.0,0.0,0.0,0.0,0.0,0.0,0.0,0.0,0.0,0.0,0.0,0.0,0.0,0.0,0.0,0.0,0.0,0.0,0.0,0.0,0.0,0.0,0.0,0.0,0.0,-1.5832,-1.5832,-1.5832,-1.5832,-1.5832,-1.5832,-1.5832,-1.5939,-1.6132,-1.6132,-1.6239,-1.6433,-1.6526,-1.6567,-1.6673,-1.7541,-1.9033,-2.0745,-2.2348,-2.3455,-2.417,-2.374,-2.3584,-2.3545,-2.3242,-2.3135,-2.3135,-2.3135,-2.3135,-2.3135,-2.3135,-2.3135,-2.3135,-2.3135,-2.3135,-2.3135,-2.3135,-2.3135,-2.3135,-2.3135,-2.3135,-2.3135,-2.3135,-2.3135,-2.3135,-2.3135,-2.3135,-2.3135,-2.3135,-2.2775,-2.2492,-2.2492,-2.2217,-2.1221,-1.9222,-1.8948,-1.8126,-1.6015,-1.5832,-1.5832,-1.5832,-1.5832,-1.5832,-1.5832,-1.5832,-1.5832,-1.5832,-1.5832,-1.5439,-1.4561,-1.5343,-1.5337,-1.4459,-1.5337,-1.5832,-1.5832,-1.5832,-1.5832,-1.2223,-1.1864,0.0,0.0,0.0,0.0,0.0,0.0,0.0,0.0,0.0,0.0,0.0,0.0,0.0,0.0,0.0,0.0,0.0,0.0,0.0,0.0,0.0,0.0,0.0,0.0,0.0,0.0,0.0,0.0,0.0,0.0,0.0,0.0,-1.5832,-1.5825,-1.5825,-1.5832,-1.5825,-1.5825,-1.5825,-1.5825,-1.5832,-1.5832,-1.5832,-1.5845,-1.6139,-1.6273,-1.6293,-1.658,-1.8247,-2.052,-2.0063,-2.152,-2.373,-2.3301,-2.3135,-2.3135,-2.3135,-2.3135,-2.3135,-2.3135,-2.3135,-2.3135,-2.3135,-2.3135,-2.3135,-2.3135,-2.3135,-2.3135,-2.3135,-2.3135,-2.3135,-2.3135,-2.3135,-2.3135,-2.3135,-2.3135,-2.3135,-2.3135,-2.3135,-2.3135,-2.3135,-2.212,-2.1293,-2.1293,-2.0305,-1.9039,-1.787,-1.7684,-1.7225,-1.592,-1.5832,-1.5832,-1.5832,-1.5832,-1.5832,-1.5832,-1.5832,-1.5832,-1.5832,-1.5832,-1.5832,-1.5832,-1.5832,-1.5832,-1.5832,-1.5832,-1.5832,-1.5832,-1.5832,-1.5832,-1.1601,-1.1703,0.0,0.0,0.0,0.0,0.0,0.0,0.0,0.0,0.0,0.0,0.0,0.0,0.0,0.0,0.0,0.0,0.0,0.0,0.0,0.0,0.0,0.0,0.0,0.0,0.0,0.0,0.0,0.0,0.0,0.0,0.0,0.0,-1.6662,-1.7131,-1.7131,-1.7948,-1.8395,-1.8395,-1.8395,-1.7475,-1.5832,-1.5832,-1.5832,-1.5832,-1.5925,-1.5965,-1.6061,-1.7916,-1.9167,-1.9987,-2.1536,-2.2128,-2.211,-2.2823,-2.3135,-2.3135,-2.3135,-2.3135,-2.3135,-2.3135,-2.3135,-2.3135,-2.3135,-2.3135,-2.3135,-2.3135,-2.3135,-2.3135,-2.3135,-2.3135,-2.3135,-2.3135,-2.3135,-2.3135,-2.3135,-2.3135,-2.3135,-2.3135,-2.3135,-2.3135,-2.3135,-2.2775,-2.2306,-2.1382,-2.1025,-2.0034,-1.7963,-1.6943,-1.6197,-1.5825,-1.5832,-1.5832,-1.5832,-1.5832,-1.5832,-1.5832,-1.5832,-1.5832,-1.5832,-1.5832,-1.5832,-1.5832,-1.5832,-1.5832,-1.5832,-1.5832,-1.5832,-1.5832,-1.5832,-1.5832,-1.3147,0.0,0.0,0.0,0.0,0.0,0.0,0.0,0.0,0.0,0.0,0.0,0.0,0.0,0.0,0.0,0.0,0.0,0.0,0.0,0.0,0.0,0.0,0.0,0.0,0.0,0.0,0.0,0.0,0.0,0.0,0.0,0.0,0.0,-1.6574,-1.6943,-1.6943,-1.7669,-1.8033,-1.8033,-1.8033,-1.721,-1.5825,-1.6292,-1.6292,-1.5832,-1.5832,-1.5832,-1.592,-1.739,-1.8311,-1.8956,-2.0413,-2.0764,-2.0755,-2.1943,-2.2403,-2.2492,-2.295,-2.3135,-2.3135,-2.3135,-2.3135,-2.3135,-2.3135,-2.3135,-2.3135,-2.3135,-2.3135,-2.3135,-2.3135,-2.3135,-2.3135,-2.3135,-2.3135,-2.3135,-2.3135,-2.3135,-2.3135,-2.3135,-2.3135,-2.3135,-2.3135,-2.2677,-2.1943,-2.0755,-1.9753,-1.8572,-1.7124,-1.6292,-1.5832,-1.5832,-1.5832,-1.5832,-1.5832,-1.5832,-1.5832,-1.5832,-1.5832,-1.5832,-1.5832,-1.5832,-1.5832,-1.5832,-1.5832,-1.5832,-1.5832,-1.5832,-1.5832,-1.5832,-1.5832,-1.5832,0.0,0.0,0.0,0.0,0.0,0.0,0.0,0.0,0.0,0.0,0.0,0.0,0.0,0.0,0.0,0.0,0.0,0.0,0.0,0.0,0.0,0.0,0.0,0.0,0.0,0.0,0.0,0.0,0.0,0.0,0.0,0.0,0.0,-1.5832,-1.6015,-1.6103,-1.6103,-1.6379,-1.6466,-1.6466,-1.6466,-1.6379,-1.6197,-1.7131,-1.6943,-1.5832,-1.5832,-1.5832,-1.5832,-1.592,-1.6574,-1.7598,-1.7777,-1.8503,-1.9679,-2.0845,-2.1382,-2.1658,-2.2677,-2.3135,-2.3135,-2.3135,-2.3135,-2.3135,-2.3135,-2.3135,-2.3135,-2.3135,-2.3135,-2.3135,-2.3135,-2.3135,-2.3135,-2.3135,-2.3135,-2.3135,-2.3135,-2.3135,-2.3135,-2.3135,-2.3135,-2.3135,-2.3135,-2.2208,-2.1025,-1.9852,-1.7569,-1.6015,-1.6015,-1.5825,-1.5832,-1.5832,-1.5832,-1.5832,-1.5832,-1.5832,-1.5832,-1.5832,-1.5832,-1.5832,-1.5832,-1.5832,-1.5832,-1.5832,-1.5832,-1.5832,-1.5832,-1.5832,-1.5832,-1.5832,-1.5832,-1.5832,0.0,0.0,0.0,0.0,0.0,0.0,0.0,0.0,0.0,0.0,0.0,0.0,0.0,0.0,0.0,0.0,0.0,0.0,0.0,0.0,0.0,0.0,0.0,0.0,0.0,0.0,0.0,0.0,0.0,0.0,0.0,0.0,0.0,-1.5832,-1.7662,-1.8672,-1.8672,-2.0584,-2.1489,0.0,-2.1489,-2.0584,-1.8672,-1.6929,-1.6015,-1.5832,-1.5832,-1.5832,-1.5927,-1.6857,-1.685,-1.6386,-1.8311,-1.9314,-1.9679,-2.0845,-2.1933,-2.2775,-2.3047,-2.3135,-2.3135,-2.3135,-2.3135,-2.3135,-2.3135,-2.3135,-2.3135,-2.3135,-2.3135,-2.3135,-2.3135,-2.3135,-2.3135,-2.3135,-2.3135,-2.3135,-2.3135,-2.3135,-2.3135,-2.3135,-2.3135,-2.3135,-2.3135,-2.2862,-2.2306,-2.1114,-1.8856,-1.7318,-1.7318,-1.6386,-1.5832,-1.5832,-1.5832,-1.5832,-1.5832,-1.5832,-1.5832,-1.5832,-1.5832,-1.5832,-1.5832,-1.5832,-1.5832,-1.5832,-1.5832,-1.5832,-1.5832,-1.5832,-1.5832,-1.5832,-1.5832,-1.5832,0.0,0.0,0.0,0.0,0.0,0.0,0.0,0.0,0.0,0.0,0.0,0.0,0.0,0.0,0.0,0.0,0.0,0.0,0.0,0.0,0.0,0.0,0.0,0.0,0.0,0.0,0.0,0.0,0.0,0.0,0.0,-1.5832,-1.6109,-1.6669,-1.7948,-1.8956,-1.9488,-2.0764,-2.14,-2.14,-2.14,-2.0683,-1.9405,-1.6929,-1.5832,-1.5832,-1.5832,-1.5832,-1.5825,-1.648,-1.6386,-1.592,-1.7203,-1.8126,-1.8772,-2.0034,-2.1212,-2.2306,-2.2862,-2.3135,-2.3135,-2.3135,-2.3135,-2.3135,-2.3135,-2.3135,-2.3135,-2.3135,-2.3135,-2.3135,-2.3135,-2.3135,-2.3135,-2.3135,-2.3135,-2.3135,-2.3135,-2.3135,-2.3135,-2.3135,-2.3135,-2.3135,-2.3135,-2.2129,-2.1132,-2.0486,-1.8395,-1.6756,-1.6756,-1.6204,-1.5832,-1.5832,-1.5832,-1.5832,-1.5832,-1.5832,-1.5832,-1.5832,-1.5832,-1.5832,-1.5832,-1.5832,-1.5832,-1.5832,-1.5832,-1.5832,-1.5832,-1.5832,-1.5832,-1.5832,-1.5832,-1.5832,0.0,0.0,0.0,0.0,0.0,0.0,0.0,0.0,0.0,0.0,0.0,0.0,0.0,0.0,0.0,0.0,0.0,0.0,0.0,0.0,0.0,0.0,0.0,0.0,0.0,0.0,0.0,0.0,0.0,0.0,-1.573,-1.5832,-1.6386,-1.7692,-1.787,-1.8588,-1.9761,-2.0034,-2.0133,-2.0133,-1.9679,-1.9497,-1.9405,-1.6929,-1.592,-1.6109,-1.6109,-1.6015,-1.5832,-1.5832,-1.5832,-1.5825,-1.6015,-1.6943,-1.8141,-1.9405,-2.0576,-2.1756,-2.2765,-2.3135,-2.3135,-2.3135,-2.3135,-2.3135,-2.3135,-2.3135,-2.3135,-2.3135,-2.3135,-2.3135,-2.3135,-2.3135,-2.3135,-2.3135,-2.3135,-2.3135,-2.3135,-2.3135,-2.3135,-2.3135,-2.3135,-2.3135,-2.3135,-2.1311,-1.9852,-1.9852,-1.7755,-1.6109,-1.6109,-1.592,-1.5832,-1.5832,-1.5832,-1.5832,-1.5832,-1.5832,-1.5832,-1.5832,-1.5832,-1.5832,-1.5832,-1.5832,-1.5832,-1.5832,-1.5832,-1.5832,-1.5832,-1.5832,-1.5832,-1.5832,-1.5832,-1.5832,0.0,0.0,0.0,0.0,0.0,0.0,0.0,0.0,0.0,0.0,0.0,0.0,0.0,0.0,0.0,0.0,0.0,0.0,0.0,0.0,0.0,0.0,0.0,0.0,0.0,0.0,0.0,0.0,0.0,0.0,-1.573,-1.5832,-1.6386,-1.7692,-1.868,-1.9852,-2.1025,-2.2129,-2.2599,-2.2589,-2.0494,-1.9497,-1.9405,-1.6929,-1.6386,-1.7412,-1.7412,-1.685,-1.5832,-1.5832,-1.5832,-1.592,-1.7037,-1.8226,-1.9405,-2.0567,-2.1854,-2.2862,-2.3047,-2.3135,-2.3135,-2.3135,-2.3135,-2.3135,-2.3135,-2.3135,-2.3135,-2.3135,-2.3135,-2.3135,-2.3135,-2.3135,-2.3135,-2.3135,-2.3135,-2.3135,-2.3135,-2.3135,-2.3135,-2.3135,-2.3135,-2.3135,-2.3135,-2.1943,-2.1025,-2.1025,-1.9039,-1.7412,-1.7412,-1.648,-1.5832,-1.5832,-1.5832,-1.5832,-1.5832,-1.5832,-1.5832,-1.5832,-1.5832,-1.5832,-1.5832,-1.5832,-1.5832,-1.5832,-1.5832,-1.5832,-1.5832,-1.5832,-1.5832,-1.5832,-1.5832,-1.5832,0.0,0.0,0.0,0.0,0.0,0.0,0.0,0.0,0.0,0.0,0.0,0.0,0.0,0.0,0.0,0.0,0.0,0.0,0.0,0.0,0.0,0.0,0.0,0.0,0.0,0.0,0.0,0.0,0.0,-1.5242,-1.5737,-1.5832,-1.6386,-1.7692,-1.8864,-2.0124,-2.1293,-2.2492,-2.3135,-2.3057,-2.2041,-2.1123,-2.0486,-1.9381,-1.8025,-1.6669,-1.6669,-1.6292,-1.5832,-1.5832,-1.5832,-1.5832,-1.6386,-1.7404,-1.8596,-1.9139,-2.0486,-2.212,-2.212,-2.2492,-2.3135,-2.3135,-2.3135,-2.3135,-2.3135,-2.3135,-2.3135,-2.3135,-2.3135,-2.3135,-2.3135,-2.3135,-2.3135,-2.3135,-2.3135,-2.3135,-2.3135,-2.3135,-2.3135,-2.3135,-2.3135,-2.3135,-2.3135,-2.212,-2.1114,-2.0395,-1.8772,-1.7412,-1.6763,-1.6109,-1.5832,-1.5832,-1.5832,-1.5832,-1.5832,-1.5832,-1.5832,-1.5832,-1.5832,-1.5832,-1.5832,-1.5832,-1.5832,-1.5832,-1.5832,-1.5832,-1.5832,-1.5832,-1.5832,-1.5832,-1.5832,-1.5832,0.0,0.0,0.0,0.0,0.0,0.0,0.0,0.0,0.0,0.0,0.0,0.0,0.0,0.0,0.0,0.0,0.0,0.0,0.0,0.0,0.0,0.0,0.0,0.0,0.0,0.0,0.0,0.0,0.0,-1.5832,-1.5832,-1.5832,-1.6473,-1.8141,-1.9039,-2.0215,-2.1747,-2.2677,-2.3135,-2.3135,-2.2775,-2.2208,-2.1293,-2.0666,-1.8848,-1.6292,-1.6292,-1.6109,-1.5832,-1.5832,-1.5832,-1.5832,-1.6204,-1.685,-1.7777,-1.8048,-1.9488,-2.1293,-2.1293,-2.212,-2.3135,-2.3135,-2.3135,-2.3135,-2.3135,-2.3135,-2.3135,-2.3135,-2.3135,-2.3135,-2.3135,-2.3135,-2.3135,-2.3135,-2.3135,-2.3135,-2.3135,-2.3135,-2.3135,-2.3135,-2.3135,-2.3135,-2.3135,-2.212,-2.1025,-2.0124,-1.8688,-1.7318,-1.6386,-1.6015,-1.5832,-1.5832,-1.5832,-1.5832,-1.5832,-1.5832,-1.5832,-1.5832,-1.5832,-1.5832,-1.5832,-1.5832,-1.5832,-1.5832,-1.5832,-1.5832,-1.5832,-1.5832,-1.5832,-1.5832,-1.5832,-1.5832,0.0,0.0,0.0,0.0,0.0,0.0,0.0,0.0,0.0,0.0,0.0,0.0,0.0,0.0,0.0,0.0,0.0,0.0,0.0,0.0,0.0,0.0,0.0,0.0,0.0,0.0,0.0,0.0,0.0,-1.5832,-1.5832,-1.5832,-1.6929,-1.9314,-1.9497,-2.0584,-2.296,-2.3047,-2.3135,-2.3057,-2.1943,-2.1382,-2.1203,-1.8948,-1.7777,-1.7598,-1.7598,-1.6943,-1.5832,-1.5832,-1.5832,-1.592,-1.7131,-1.7591,-1.787,-1.8956,-2.0215,-2.1293,-2.1293,-2.212,-2.3135,-2.3135,-2.3135,-2.3135,-2.3135,-2.3135,-2.3135,-2.3135,-2.3135,-2.3135,-2.3135,-2.3135,-2.3135,-2.3135,-2.3135,-2.3135,-2.3135,-2.3135,-2.3135,-2.3135,-2.3135,-2.3135,-2.3135,-2.212,-2.1293,-2.1203,-1.9222,-1.7692,-1.7598,-1.6574,-1.5832,-1.5832,-1.5832,-1.5832,-1.5832,-1.5832,-1.5832,-1.5832,-1.5832,-1.5832,-1.5832,-1.5832,-1.5832,-1.5832,-1.5832,-1.5832,-1.5832,-1.5832,-1.5832,-1.5832,-1.5832,-1.5832,0.0,0.0,0.0,0.0,0.0,0.0,0.0,0.0,0.0,0.0,0.0,0.0,0.0,0.0,0.0,0.0,0.0,0.0,0.0,0.0,0.0,0.0,0.0,0.0,0.0,0.0,0.0,0.0,0.0,0.0,-1.5832,-1.5832,-1.6567,-1.8319,-1.9131,-2.0674,-2.3047,-2.3135,-2.3135,-2.3047,-2.2677,-2.2031,-2.1293,-2.0395,-1.9131,-1.7692,-1.7692,-1.6943,-1.5832,-1.5832,-1.5832,-1.5825,-1.6292,-1.6943,-1.7777,-1.8234,-1.9579,-2.1293,-2.1293,-2.212,-2.3135,-2.3135,-2.3135,-2.3135,-2.3135,-2.3135,-2.3135,-2.3135,-2.3135,-2.3135,-2.3135,-2.3135,-2.3135,-2.3135,-2.3135,-2.3135,-2.3135,-2.3135,-2.3135,-2.3135,-2.3135,-2.3135,-2.3135,-2.2765,-2.1943,-2.0395,-1.9405,-1.8319,-1.6662,-1.6109,-1.5832,-1.5832,-1.5832,-1.5832,-1.5832,-1.5832,-1.5832,-1.5832,-1.5832,-1.5832,-1.5832,-1.5832,-1.5832,-1.5832,-1.5832,-1.5832,-1.5832,-1.5832,-1.5832,-1.5832,-1.5832,-1.5832,0.0,0.0,0.0,0.0,0.0,0.0,0.0,0.0,0.0,0.0,0.0,0.0,0.0,0.0,0.0,0.0,0.0,0.0,0.0,0.0,0.0,0.0,0.0,0.0,0.0,0.0,0.0,0.0,0.0,0.0,-1.5832,-1.6204,-1.721,-1.8864,-2.0042,-2.1498,-2.3047,-2.3135,-2.3135,-2.3135,-2.3135,-2.2677,-2.1845,-2.148,-2.0215,-1.8326,-1.787,-1.6943,-1.5832,-1.5832,-1.5832,-1.5832,-1.5832,-1.6574,-1.7692,-1.7692,-1.9222,-2.1293,-2.1293,-2.212,-2.3135,-2.3135,-2.3135,-2.3135,-2.3135,-2.3135,-2.3135,-2.3135,-2.3135,-2.3135,-2.3135,-2.3135,-2.3135,-2.3135,-2.3135,-2.3135,-2.3135,-2.3135,-2.3135,-2.3135,-2.3135,-2.296,-2.2589,-2.2492,-2.1854,-1.977,-1.9131,-1.8319,-1.6662,-1.6015,-1.5832,-1.5832,-1.5832,-1.5832,-1.5832,-1.5832,-1.5832,-1.5832,-1.5832,-1.5832,-1.5832,-1.5832,-1.5832,-1.5832,-1.5832,-1.5832,-1.5832,-1.5832,-1.5832,-1.5832,-1.5832,-1.5832,0.0,0.0,0.0,0.0,0.0,0.0,0.0,0.0,0.0,0.0,0.0,0.0,0.0,0.0,0.0,0.0,0.0,0.0,0.0,0.0,0.0,0.0,0.0,0.0,0.0,0.0,0.0,0.0,0.0,-1.5832,-1.5832,-1.7037,-1.8864,-2.1203,-2.2492,-2.3135,-2.3135,-2.3135,-2.3135,-2.3135,-2.3135,-2.3135,-2.3047,-2.1845,-2.0657,-1.9497,-1.8326,-1.7037,-1.5825,-1.5825,-1.5832,-1.5832,-1.5832,-1.6574,-1.7692,-1.7692,-1.9222,-2.1293,-2.1293,-2.212,-2.3135,-2.3135,-2.3135,-2.3135,-2.3135,-2.3135,-2.3135,-2.3135,-2.3135,-2.3135,-2.3135,-2.3135,-2.3135,-2.3135,-2.3135,-2.3135,-2.3135,-2.3135,-2.3135,-2.3135,-2.3135,-2.2677,-2.148,-2.1293,-2.0845,-1.967,-1.8411,-1.7692,-1.7692,-1.6574,-1.5832,-1.5832,-1.5832,-1.5832,-1.5832,-1.5832,-1.5832,-1.5832,-1.5832,-1.5832,-1.5832,-1.5832,-1.5832,-1.5832,-1.5832,-1.5832,-1.5832,-1.5832,-1.5832,-1.5832,-1.5832,-1.5832,-1.1284,0.0,0.0,0.0,0.0,0.0,0.0,0.0,0.0,0.0,0.0,0.0,0.0,0.0,0.0,0.0,0.0,0.0,0.0,0.0,0.0,0.0,0.0,0.0,0.0,0.0,0.0,0.0,-1.5832,-1.5832,-1.5832,-1.7855,-1.9314,-1.9943,-2.2041,-2.3135,-2.3135,-2.3135,-2.3135,-2.3135,-2.3135,-2.3135,-2.3057,-2.2765,-2.1943,-2.0747,-1.9497,-1.8319,-1.7131,-1.6204,-1.5832,-1.5832,-1.5832,-1.6574,-1.7692,-1.7692,-1.9222,-2.1293,-2.1293,-2.212,-2.3135,-2.3135,-2.3135,-2.3135,-2.3135,-2.3135,-2.3135,-2.3135,-2.3135,-2.3135,-2.3135,-2.3135,-2.3135,-2.3135,-2.3135,-2.3135,-2.3135,-2.3135,-2.3135,-2.3135,-2.3135,-2.2677,-2.148,-2.1293,-2.0567,-1.8503,-1.787,-1.7412,-1.648,-1.6015,-1.5832,-1.5832,-1.5832,-1.5832,-1.5832,-1.5832,-1.5832,-1.5832,-1.5832,-1.5832,-1.5832,-1.5832,-1.5832,-1.5832,-1.5832,-1.5832,-1.5832,-1.5832,-1.5832,-1.5832,-1.5832,-1.5832,0.0,0.0,0.0,0.0,0.0,0.0,0.0,-1.3622,0.0,0.0,0.0,0.0,0.0,0.0,0.0,0.0,0.0,0.0,0.0,0.0,0.0,0.0,0.0,0.0,0.0,0.0,0.0,-1.573,-1.5832,-1.6015,-1.6574,-1.8403,-1.9761,-2.0215,-2.2129,-2.3135,-2.3135,-2.3135,-2.3135,-2.3135,-2.3135,-2.3135,-2.3135,-2.3135,-2.2129,-2.0486,-1.9761,-1.8495,-1.685,-1.6109,-1.5832,-1.5832,-1.5832,-1.6574,-1.7692,-1.7692,-1.9222,-2.1293,-2.1293,-2.212,-2.3135,-2.3135,-2.3135,-2.3135,-2.3135,-2.3135,-2.3135,-2.3135,-2.3135,-2.3135,-2.3135,-2.3135,-2.3135,-2.3135,-2.3135,-2.3135,-2.3135,-2.3135,-2.3135,-2.3135,-2.3135,-2.2589,-2.0845,-2.0576,-1.9761,-1.7311,-1.6943,-1.6669,-1.592,-1.5832,-1.5832,-1.5832,-1.5832,-1.5832,-1.5832,-1.5832,-1.5832,-1.5832,-1.5832,-1.5832,-1.5832,-1.5832,-1.5832,-1.5832,-1.5832,-1.5832,-1.5832,-1.5832,-1.5832,-1.5832,-1.5832,-1.5832,0.0,0.0,0.0,0.0,0.0,0.0,-1.312,-1.2869,-1.2798,0.0,0.0,0.0,0.0,0.0,0.0,0.0,0.0,0.0,0.0,0.0,0.0,0.0,0.0,0.0,0.0,-1.407,-1.4561,-1.573,-1.5832,-1.6278,-1.736,-1.8664,-1.9852,-2.1025,-2.2306,-2.296,-2.3135,-2.3135,-2.3135,-2.3135,-2.3135,-2.3135,-2.3135,-2.3135,-2.1952,-1.9861,-1.9588,-1.8211,-1.6197,-1.592,-1.5832,-1.5832,-1.5832,-1.648,-1.7505,-1.7505,-1.9039,-2.1114,-2.1114,-2.1943,-2.3135,-2.3135,-2.3135,-2.3135,-2.3135,-2.3135,-2.3135,-2.3135,-2.3135,-2.3135,-2.3135,-2.3135,-2.3135,-2.3135,-2.3135,-2.3135,-2.3135,-2.3135,-2.3135,-2.3135,-2.296,-2.2227,-1.9852,-1.9405,-1.8488,-1.6103,-1.5832,-1.5832,-1.5832,-1.5832,-1.5832,-1.5832,-1.5832,-1.5832,-1.5832,-1.5832,-1.5832,-1.5832,-1.5832,-1.5832,-1.5832,-1.5832,-1.5832,-1.5832,-1.5832,-1.5832,-1.5832,-1.5832,-1.5832,-1.5832,-1.5832,-1.5832,0.0,0.0,0.0,0.0,0.0,0.0,-1.1166,-1.1391,-1.1727,0.0,0.0,0.0,0.0,0.0,0.0,0.0,0.0,0.0,0.0,0.0,0.0,0.0,0.0,0.0,0.0,-1.4854,-1.5534,-1.5825,-1.5832,-1.5819,-1.5862,-1.7265,-1.8596,-1.9852,-2.1025,-2.2129,-2.3047,-2.3135,-2.3135,-2.3135,-2.3135,-2.3135,-2.3135,-2.3135,-2.2862,-2.2315,-2.0314,-1.9222,-1.858,-1.6655,-1.5832,-1.5832,-1.5832,-1.592,-1.6197,-1.6197,-1.7755,-1.9852,-1.9852,-2.1311,-2.3135,-2.3135,-2.3135,-2.3135,-2.3135,-2.3135,-2.3135,-2.3135,-2.3135,-2.3135,-2.3135,-2.3135,-2.3135,-2.3135,-2.3135,-2.3135,-2.3135,-2.3135,-2.3135,-2.3135,-2.2306,-2.1212,-1.9761,-1.868,-1.7498,-1.6015,-1.5832,-1.5832,-1.5832,-1.5832,-1.5832,-1.5832,-1.5832,-1.5832,-1.5832,-1.5832,-1.5832,-1.5832,-1.5832,-1.5832,-1.5832,-1.5832,-1.5832,-1.5832,-1.5832,-1.5832,-1.5832,-1.5832,-1.5832,-1.5832,-1.5832,-1.5832,0.0,0.0,0.0,-1.0624,0.0,0.0,0.0,-1.1611,-1.1641,0.0,0.0,0.0,0.0,0.0,0.0,0.0,0.0,0.0,0.0,0.0,0.0,0.0,0.0,0.0,0.0,-1.5439,-1.5765,-1.5625,-1.5611,-1.5551,-1.5404,-1.7348,-1.8779,-1.9488,-2.1221,-2.2492,-2.3047,-2.3135,-2.3135,-2.3135,-2.3135,-2.3135,-2.3135,-2.3135,-2.2775,-2.212,-2.0305,-1.9131,-1.8495,-1.6567,-1.5832,-1.5832,-1.5832,-1.5832,-1.5927,-1.648,-1.7948,-1.9588,-2.0215,-2.1578,-2.3135,-2.3135,-2.3135,-2.3135,-2.3135,-2.3135,-2.3135,-2.3135,-2.3135,-2.3135,-2.3135,-2.3135,-2.3135,-2.3135,-2.3135,-2.3135,-2.3135,-2.3135,-2.295,-2.2306,-2.1212,-2.0215,-1.9579,-1.8503,-1.7225,-1.6015,-1.5832,-1.5832,-1.5832,-1.5832,-1.5832,-1.5832,-1.5832,-1.5832,-1.5832,-1.5832,-1.5832,-1.5832,-1.5832,-1.5832,-1.5832,-1.5832,-1.5832,-1.5832,-1.5832,-1.5832,-1.5832,-1.5832,-1.5832,-1.5832,-1.5832,-1.5832,0.0,0.0,0.0,0.0,0.0,-1.0937,0.0,0.0,0.0,-1.298,0.0,0.0,0.0,0.0,0.0,0.0,0.0,0.0,0.0,0.0,0.0,0.0,0.0,0.0,0.0,-1.5578,-1.5504,-1.5324,-1.5211,-1.5164,-1.5224,-1.7206,-1.8734,-1.9381,-2.1364,-2.2589,-2.3135,-2.3135,-2.3135,-2.3135,-2.3135,-2.3135,-2.3135,-2.3135,-2.2589,-2.1569,-2.0124,-1.8956,-1.7956,-1.6386,-1.5832,-1.5832,-1.5832,-1.592,-1.6292,-1.7318,-1.8588,-1.9943,-2.0935,-2.212,-2.3135,-2.3135,-2.3135,-2.3135,-2.3135,-2.3135,-2.3135,-2.3135,-2.3135,-2.3135,-2.3135,-2.3135,-2.3135,-2.3135,-2.3135,-2.3135,-2.3135,-2.295,-2.2492,-2.148,-2.0124,-1.9131,-1.9131,-1.8133,-1.6943,-1.592,-1.5832,-1.5832,-1.5832,-1.5832,-1.5832,-1.5832,-1.5832,-1.5832,-1.5832,-1.5832,-1.5832,-1.5832,-1.5832,-1.5832,-1.5832,-1.5832,-1.5832,-1.5832,-1.5832,-1.5832,-1.5832,-1.5832,-1.5832,-1.5832,-1.5832,-1.5832,0.0,0.0,0.0,0.0,-1.0624,0.0,0.0,0.0,-1.0739,-1.0934,0.0,0.0,0.0,0.0,0.0,0.0,0.0,0.0,0.0,0.0,0.0,0.0,0.0,0.0,0.0,0.0,-1.4763,-1.4997,-1.4529,-1.4349,-1.4603,-1.5375,-1.6843,-1.9115,-1.9594,-2.0953,-2.3047,-2.3135,-2.3135,-2.3135,-2.3135,-2.3135,-2.3135,-2.3135,-2.3047,-2.2775,-2.0494,-1.9405,-1.9131,-1.6749,-1.5832,-1.5832,-1.5832,-1.648,-1.7505,-1.7692,-1.9131,-2.1114,-2.1293,-2.212,-2.3135,-2.3135,-2.3135,-2.3135,-2.3135,-2.3135,-2.3135,-2.3135,-2.3135,-2.3135,-2.3135,-2.3135,-2.3135,-2.3135,-2.3135,-2.3135,-2.3135,-2.2217,-2.148,-2.1293,-1.9497,-1.787,-1.787,-1.685,-1.6015,-1.5825,-1.5832,-1.5832,-1.5832,-1.5832,-1.5832,-1.5832,-1.5832,-1.5832,-1.5832,-1.5832,-1.5832,-1.5832,-1.5832,-1.5832,-1.5832,-1.5832,-1.5832,-1.5832,-1.5832,-1.5832,-1.5832,-1.5832,-1.5832,-1.5832,-1.5832,-1.5832,0.0,0.0,0.0,0.0,0.0,0.0,-1.0507,0.0,-1.0624,0.0,0.0,0.0,0.0,0.0,0.0,0.0,0.0,0.0,0.0,0.0,0.0,0.0,0.0,0.0,0.0,0.0,0.0,0.0,0.0,-1.5409,-1.4858,-1.5532,-1.6868,-1.904,-1.9901,-2.1174,-2.3047,-2.3135,-2.3135,-2.3135,-2.3135,-2.3135,-2.3135,-2.3135,-2.3135,-2.296,-2.0584,-1.9497,-1.9314,-1.6835,-1.5832,-1.5832,-1.5832,-1.6574,-1.787,-1.9314,-2.0395,-2.1391,-2.212,-2.2677,-2.3135,-2.3135,-2.3135,-2.3135,-2.3135,-2.3135,-2.3135,-2.3135,-2.3135,-2.3135,-2.3135,-2.3135,-2.3135,-2.3135,-2.3135,-2.3135,-2.3135,-2.212,-2.1114,-2.0395,-1.8864,-1.7505,-1.6756,-1.6109,-1.5832,-1.5832,-1.5832,-1.5832,-1.5832,-1.5832,-1.5832,-1.5832,-1.5832,-1.5832,-1.5832,-1.5832,-1.5832,-1.5832,-1.5832,-1.5832,-1.5832,-1.5832,-1.5832,-1.5832,-1.5832,-1.5832,-1.5832,-1.5832,-1.5832,-1.5832,-1.5832,-1.5832,-0.7655,0.0,0.0,0.0,0.0,0.0,0.0,0.0,0.0,0.0,0.0,0.0,0.0,0.0,0.0,0.0,0.0,0.0,0.0,0.0,0.0,0.0,0.0,0.0,0.0,0.0,0.0,0.0,0.0,-1.6023,-1.4919,-1.5474,-1.6789,-1.8883,-1.9869,-2.1273,-2.3047,-2.3135,-2.3135,-2.3135,-2.3135,-2.3135,-2.3135,-2.3135,-2.3135,-2.296,-2.0854,-1.9761,-1.9314,-1.721,-1.6109,-1.5832,-1.6204,-1.685,-1.7956,-2.0034,-2.1212,-2.1943,-2.2775,-2.3135,-2.3135,-2.3135,-2.3135,-2.3135,-2.3135,-2.3135,-2.3135,-2.3135,-2.3135,-2.3135,-2.3135,-2.3135,-2.3135,-2.3135,-2.2862,-2.2589,-2.2589,-2.14,-2.0034,-1.9222,-1.8041,-1.685,-1.592,-1.5832,-1.5832,-1.5832,-1.5832,-1.5832,-1.5832,-1.5832,-1.5832,-1.5832,-1.5832,-1.5832,-1.5832,-1.5832,-1.5832,-1.5832,-1.5832,-1.5832,-1.5832,-1.5832,-1.5832,-1.5832,-1.5832,-1.5832,-1.5832,-1.5832,-1.5832,-1.5832,-1.5832,-1.5832,0.0,0.0,0.0,-0.9131,0.0,0.0,0.0,0.0,-1.0364,0.0,0.0,0.0,0.0,0.0,0.0,0.0,0.0,0.0,0.0,0.0,0.0,0.0,0.0,0.0,0.0,0.0,0.0,0.0,0.0,0.0,-1.4589,-1.4522,-1.5763,-1.851,-1.8954,-2.0474,-2.3047,-2.3135,-2.3135,-2.3135,-2.3135,-2.3135,-2.3135,-2.3135,-2.3135,-2.3047,-2.1756,-2.0576,-1.9405,-1.8141,-1.6943,-1.592,-1.7131,-1.7692,-1.787,-1.9131,-2.1042,-2.3047,-2.3057,-2.3135,-2.3135,-2.3135,-2.3135,-2.3135,-2.3135,-2.3135,-2.3135,-2.3135,-2.3135,-2.3135,-2.3135,-2.3135,-2.3135,-2.3135,-2.2217,-2.1382,-2.1382,-1.9497,-1.7777,-1.7785,-1.6763,-1.5825,-1.5832,-1.5832,-1.5832,-1.5832,-1.5832,-1.5832,-1.5832,-1.5832,-1.5832,-1.5832,-1.5832,-1.5832,-1.5832,-1.5832,-1.5832,-1.5832,-1.5832,-1.5832,-1.5832,-1.5832,-1.5832,-1.5832,-1.5832,-1.5832,-1.5832,-1.5832,-1.5832,-1.5832,-1.5832,-1.5832,0.0,0.0,-0.7362,-0.7766,0.0,0.0,0.0,0.0,0.0,0.0,0.0,0.0,0.0,0.0,0.0,0.0,0.0,0.0,0.0,0.0,0.0,0.0,0.0,0.0,0.0,0.0,0.0,0.0,-1.5789,0.0,0.0,-1.4442,-1.5447,-1.8136,-1.8587,-2.0008,-2.2715,-2.2998,-2.3135,-2.3135,-2.3135,-2.3135,-2.3135,-2.3135,-2.3135,-2.3047,-2.1845,-2.0666,-1.9405,-1.8234,-1.6943,-1.5825,-1.6292,-1.6943,-1.7963,-1.9943,-2.1212,-2.2031,-2.2862,-2.3135,-2.3135,-2.3135,-2.3135,-2.3135,-2.3135,-2.3135,-2.3135,-2.3135,-2.3135,-2.3135,-2.3135,-2.3135,-2.2862,-2.212,-2.1569,-2.1114,-2.0305,-1.8864,-1.7692,-1.7692,-1.6662,-1.5832,-1.5832,-1.5832,-1.5832,-1.5832,-1.5832,-1.5832,-1.5832,-1.5832,-1.5832,-1.5832,-1.5832,-1.5832,-1.5832,-1.5832,-1.5832,-1.5832,-1.5832,-1.5832,-1.5832,-1.5832,-1.5832,-1.5832,-1.5832,-1.5832,-1.5832,-1.5832,-1.5832,-1.5832,-1.5832,-1.5832,-0.6471,-0.6583,0.0,-0.7199,-0.7417,0.0,-0.7683,0.0,0.0,0.0,0.0,0.0,0.0,0.0,0.0,0.0,0.0,0.0,0.0,-1.028,0.0,0.0,0.0,0.0,0.0,0.0,0.0,-1.4967,-1.5857,0.0,0.0,0.0,-1.5241,-1.7359,-1.814,-1.9626,-2.1883,-2.2746,-2.3135,-2.3135,-2.3135,-2.3135,-2.3135,-2.3135,-2.3135,-2.3047,-2.2306,-2.1302,-2.0124,-1.9314,-1.7948,-1.648,-1.6936,-1.7124,-1.7311,-1.9761,-2.1203,-2.2031,-2.2862,-2.3135,-2.3135,-2.3135,-2.3135,-2.3135,-2.3135,-2.3135,-2.3164,-2.333,-2.3262,-2.3174,-2.333,-2.3262,-2.2862,-2.212,-2.1302,-2.0486,-1.9679,-1.8218,-1.7037,-1.7037,-1.6386,-1.5832,-1.5832,-1.5832,-1.5832,-1.5832,-1.5832,-1.5832,-1.5832,-1.5832,-1.5832,-1.5832,-1.5832,-1.5832,-1.5832,-1.5832,-1.5832,-1.5832,-1.5832,-1.5832,-1.5832,-1.5832,-1.5832,-1.5832,-1.5832,-1.5832,-1.5832,-1.5832,-1.5832,-1.5825,-1.5337,-1.5146]},{"header":{"parameterUnit":"m.s-1","parameterCategory":1,"la1":30.6,"la2":29.2853,"lo1":-89.7004,"lo2":-87.6739,"dy":0.0162,"dx":0.0183,"nx":112,"ny":82,"refTime":"2023-05-12T06:00:00:Z","depth":0,"parameterNumber":3,"parameterNumberName":"V-component_of_WINDS"},"data":[0.0,0.0,0.0,0.0,0.0,0.0,0.0,0.0,0.0,0.0,0.0,0.0,0.0,0.0,0.0,0.0,0.0,0.0,0.0,0.0,0.0,0.0,0.0,0.0,0.0,0.0,0.0,0.0,0.0,0.0,0.0,0.0,0.0,0.0,0.0,0.0,0.0,0.0,0.0,0.0,0.0,0.0,0.0,0.0,0.0,0.0,0.0,0.0,0.0,0.0,0.0,0.0,0.0,0.0,0.0,0.0,0.0,0.0,0.0,0.0,0.0,0.0,0.0,0.0,0.0,0.0,0.0,0.0,0.0,0.0,0.0,0.0,0.0,0.0,0.0,0.0,0.0,0.0,0.0,0.0,0.0,0.0,0.0,0.0,0.0,0.0,0.0,0.0,0.0,0.0,0.0,-2.4206,-2.6324,-2.7845,-2.8463,-2.8415,-2.7781,-2.6439,0.0,0.0,0.0,0.0,0.0,0.0,0.0,0.0,0.0,0.0,0.0,0.0,0.0,0.0,0.0,0.0,0.0,0.0,0.0,0.0,0.0,0.0,0.0,0.0,0.0,0.0,0.0,0.0,0.0,0.0,0.0,0.0,0.0,0.0,0.0,0.0,0.0,0.0,0.0,0.0,0.0,0.0,0.0,0.0,0.0,0.0,0.0,0.0,0.0,0.0,0.0,0.0,0.0,0.0,0.0,0.0,0.0,0.0,0.0,0.0,0.0,0.0,0.0,0.0,0.0,0.0,0.0,0.0,0.0,0.0,0.0,0.0,0.0,0.0,0.0,0.0,0.0,0.0,0.0,0.0,0.0,0.0,0.0,0.0,0.0,0.0,0.0,0.0,0.0,0.0,0.0,0.0,0.0,0.0,0.0,0.0,0.0,0.0,0.0,0.0,0.0,0.0,0.0,0.0,-2.5755,-2.758,-2.7652,-2.7845,-2.8463,-2.8042,-2.7139,-2.5815,0.0,0.0,0.0,0.0,0.0,0.0,0.0,0.0,0.0,0.0,0.0,0.0,0.0,0.0,0.0,0.0,0.0,0.0,0.0,0.0,0.0,0.0,0.0,0.0,0.0,0.0,0.0,0.0,0.0,0.0,0.0,0.0,0.0,0.0,0.0,0.0,0.0,0.0,0.0,0.0,0.0,0.0,0.0,0.0,0.0,0.0,0.0,0.0,0.0,0.0,0.0,0.0,0.0,0.0,0.0,0.0,0.0,0.0,0.0,0.0,0.0,0.0,0.0,0.0,0.0,0.0,0.0,0.0,0.0,0.0,0.0,0.0,0.0,0.0,0.0,0.0,0.0,0.0,0.0,0.0,0.0,0.0,0.0,0.0,0.0,0.0,0.0,0.0,0.0,0.0,0.0,0.0,0.0,0.0,0.0,0.0,0.0,0.0,0.0,0.0,0.0,0.0,0.0,-2.4702,-2.5938,-2.823,-2.8238,-2.8448,-2.9406,-2.921,-2.8336,-2.6689,-2.6855,0.0,0.0,0.0,0.0,0.0,0.0,0.0,0.0,0.0,0.0,0.0,0.0,0.0,0.0,0.0,0.0,0.0,0.0,0.0,0.0,0.0,0.0,0.0,0.0,0.0,0.0,0.0,0.0,0.0,0.0,0.0,0.0,0.0,0.0,0.0,0.0,0.0,0.0,0.0,0.0,0.0,0.0,0.0,0.0,0.0,0.0,0.0,0.0,0.0,0.0,0.0,0.0,0.0,0.0,0.0,0.0,0.0,0.0,0.0,0.0,0.0,0.0,0.0,0.0,0.0,0.0,0.0,0.0,0.0,0.0,0.0,0.0,0.0,0.0,0.0,0.0,0.0,0.0,0.0,0.0,0.0,0.0,0.0,0.0,0.0,0.0,0.0,0.0,0.0,0.0,0.0,0.0,0.0,0.0,0.0,0.0,0.0,0.0,0.0,0.0,0.0,0.0,-2.5136,-2.6166,-2.8482,-2.8606,-2.9012,-3.0208,-3.0166,-2.9209,-2.7077,-2.7099,0.0,0.0,0.0,0.0,0.0,0.0,0.0,0.0,0.0,0.0,0.0,0.0,0.0,0.0,0.0,0.0,0.0,0.0,0.0,0.0,0.0,0.0,0.0,0.0,0.0,0.0,0.0,0.0,0.0,0.0,0.0,0.0,0.0,0.0,0.0,0.0,0.0,0.0,0.0,0.0,0.0,0.0,0.0,0.0,0.0,0.0,0.0,0.0,0.0,0.0,0.0,0.0,0.0,0.0,0.0,0.0,0.0,0.0,0.0,0.0,0.0,0.0,0.0,0.0,0.0,0.0,0.0,0.0,0.0,0.0,0.0,0.0,0.0,0.0,0.0,0.0,0.0,0.0,0.0,0.0,0.0,0.0,0.0,0.0,0.0,0.0,0.0,0.0,0.0,0.0,0.0,0.0,0.0,0.0,0.0,0.0,0.0,0.0,0.0,0.0,0.0,0.0,-2.6602,-2.7875,-2.921,-2.8826,-2.9012,-3.0208,-2.9805,-2.8395,-2.5784,-2.6209,0.0,0.0,0.0,0.0,0.0,0.0,0.0,0.0,0.0,0.0,0.0,0.0,0.0,0.0,0.0,0.0,0.0,0.0,0.0,0.0,0.0,0.0,0.0,0.0,0.0,0.0,0.0,0.0,0.0,0.0,0.0,0.0,0.0,0.0,0.0,0.0,0.0,0.0,0.0,0.0,0.0,0.0,0.0,0.0,0.0,0.0,0.0,0.0,0.0,0.0,0.0,0.0,0.0,0.0,0.0,0.0,0.0,0.0,0.0,0.0,0.0,0.0,0.0,0.0,0.0,0.0,0.0,0.0,0.0,0.0,0.0,0.0,0.0,0.0,0.0,0.0,0.0,0.0,0.0,0.0,0.0,0.0,0.0,0.0,0.0,0.0,0.0,0.0,0.0,0.0,0.0,0.0,0.0,0.0,0.0,0.0,0.0,0.0,0.0,0.0,0.0,0.0,-2.6704,-2.814,0.0,-2.9406,-2.9717,-3.1416,-3.1324,-3.0269,-2.7996,0.0,0.0,0.0,0.0,0.0,0.0,0.0,0.0,0.0,0.0,0.0,0.0,0.0,0.0,0.0,0.0,0.0,0.0,0.0,0.0,0.0,0.0,0.0,0.0,0.0,0.0,0.0,0.0,0.0,0.0,0.0,0.0,0.0,0.0,0.0,0.0,0.0,0.0,0.0,0.0,0.0,0.0,0.0,0.0,0.0,0.0,0.0,0.0,0.0,0.0,0.0,0.0,0.0,0.0,0.0,0.0,0.0,0.0,0.0,0.0,0.0,0.0,0.0,0.0,0.0,0.0,0.0,0.0,0.0,0.0,0.0,0.0,0.0,0.0,0.0,0.0,0.0,0.0,0.0,0.0,0.0,0.0,0.0,0.0,0.0,0.0,0.0,0.0,0.0,0.0,0.0,0.0,0.0,0.0,0.0,0.0,0.0,0.0,0.0,0.0,0.0,0.0,-2.5497,-2.7246,-2.9003,0.0,-3.0473,-3.0991,-3.2495,-3.2645,-3.1523,-2.8878,0.0,0.0,0.0,0.0,0.0,0.0,0.0,0.0,0.0,0.0,0.0,0.0,0.0,0.0,0.0,0.0,0.0,0.0,0.0,0.0,0.0,0.0,0.0,0.0,0.0,0.0,0.0,0.0,0.0,0.0,0.0,0.0,0.0,0.0,0.0,0.0,0.0,0.0,0.0,0.0,0.0,0.0,0.0,0.0,0.0,0.0,0.0,0.0,0.0,0.0,0.0,0.0,0.0,0.0,0.0,0.0,0.0,0.0,0.0,0.0,0.0,0.0,0.0,0.0,0.0,0.0,0.0,0.0,0.0,0.0,0.0,0.0,0.0,0.0,0.0,0.0,0.0,0.0,0.0,0.0,0.0,0.0,0.0,0.0,0.0,0.0,0.0,0.0,0.0,0.0,0.0,0.0,0.0,0.0,0.0,0.0,0.0,0.0,0.0,0.0,0.0,0.0,-2.5512,-2.8437,-3.0752,-3.1364,-3.2067,-3.2735,-3.3364,-3.3423,-3.1717,0.0,0.0,0.0,0.0,0.0,0.0,0.0,0.0,0.0,0.0,0.0,0.0,0.0,0.0,0.0,0.0,0.0,0.0,0.0,0.0,0.0,0.0,0.0,0.0,0.0,0.0,0.0,0.0,0.0,0.0,0.0,0.0,0.0,0.0,0.0,0.0,0.0,0.0,0.0,0.0,0.0,0.0,0.0,0.0,0.0,0.0,0.0,0.0,0.0,0.0,0.0,0.0,0.0,0.0,0.0,0.0,0.0,0.0,0.0,0.0,0.0,0.0,0.0,0.0,0.0,0.0,0.0,0.0,0.0,0.0,0.0,0.0,0.0,0.0,0.0,0.0,0.0,0.0,0.0,0.0,0.0,0.0,0.0,0.0,0.0,0.0,0.0,0.0,0.0,0.0,0.0,0.0,0.0,0.0,0.0,0.0,0.0,0.0,0.0,0.0,0.0,0.0,0.0,-2.6901,-2.9821,-3.2121,-3.2739,-3.2602,-3.2934,-3.4074,-3.4167,-3.3035,-3.0279,0.0,0.0,0.0,0.0,0.0,0.0,0.0,0.0,0.0,0.0,0.0,0.0,0.0,0.0,0.0,0.0,0.0,0.0,0.0,0.0,0.0,0.0,0.0,0.0,0.0,0.0,0.0,0.0,0.0,0.0,0.0,0.0,0.0,0.0,0.0,0.0,0.0,0.0,0.0,0.0,0.0,0.0,0.0,0.0,0.0,0.0,0.0,0.0,0.0,0.0,0.0,0.0,0.0,0.0,0.0,0.0,0.0,0.0,0.0,0.0,0.0,0.0,0.0,0.0,0.0,0.0,0.0,0.0,0.0,0.0,0.0,0.0,0.0,0.0,0.0,0.0,0.0,0.0,0.0,0.0,0.0,0.0,0.0,0.0,0.0,0.0,0.0,0.0,0.0,0.0,0.0,0.0,0.0,0.0,0.0,0.0,0.0,0.0,0.0,0.0,0.0,0.0,-2.7494,-3.0869,-3.345,-3.3786,-3.3778,-3.4069,-3.4851,-3.4945,-3.403,-3.1909,0.0,0.0,0.0,0.0,0.0,0.0,0.0,0.0,0.0,0.0,0.0,0.0,0.0,0.0,0.0,0.0,0.0,0.0,0.0,0.0,0.0,0.0,0.0,0.0,0.0,0.0,0.0,0.0,0.0,0.0,0.0,0.0,0.0,0.0,0.0,0.0,0.0,0.0,0.0,0.0,0.0,0.0,0.0,0.0,0.0,0.0,0.0,0.0,0.0,0.0,0.0,0.0,0.0,0.0,0.0,0.0,0.0,0.0,0.0,0.0,0.0,0.0,0.0,0.0,0.0,0.0,0.0,0.0,0.0,0.0,0.0,0.0,0.0,0.0,0.0,0.0,0.0,0.0,0.0,0.0,0.0,0.0,0.0,0.0,0.0,0.0,0.0,0.0,0.0,0.0,0.0,0.0,0.0,0.0,0.0,0.0,0.0,0.0,0.0,0.0,0.0,0.0,-2.7769,-3.1774,-3.459,-3.459,-3.5216,-3.5622,-3.5622,-3.5622,-3.4768,-3.2802,0.0,0.0,0.0,0.0,0.0,0.0,0.0,0.0,0.0,0.0,0.0,0.0,0.0,0.0,0.0,0.0,0.0,0.0,0.0,0.0,0.0,0.0,0.0,0.0,0.0,0.0,0.0,0.0,0.0,0.0,0.0,0.0,0.0,0.0,0.0,0.0,0.0,0.0,0.0,0.0,0.0,0.0,0.0,0.0,0.0,0.0,0.0,0.0,0.0,0.0,0.0,0.0,0.0,0.0,0.0,0.0,0.0,0.0,0.0,0.0,-2.783,0.0,0.0,0.0,0.0,0.0,0.0,0.0,0.0,0.0,0.0,0.0,0.0,0.0,0.0,0.0,0.0,0.0,0.0,0.0,0.0,0.0,0.0,0.0,0.0,0.0,0.0,0.0,0.0,0.0,0.0,0.0,0.0,0.0,0.0,0.0,0.0,0.0,0.0,0.0,0.0,0.0,-2.965,-3.3048,-3.5385,-3.5385,-3.552,-3.5622,-3.5622,-3.5622,-3.4935,-3.3347,-3.2917,0.0,0.0,0.0,0.0,0.0,0.0,0.0,0.0,0.0,0.0,0.0,0.0,0.0,0.0,0.0,0.0,0.0,0.0,0.0,0.0,0.0,0.0,0.0,0.0,0.0,0.0,0.0,0.0,0.0,0.0,0.0,0.0,0.0,0.0,0.0,0.0,0.0,0.0,0.0,0.0,0.0,0.0,0.0,0.0,0.0,0.0,0.0,0.0,0.0,0.0,0.0,0.0,0.0,0.0,0.0,0.0,0.0,0.0,0.0,0.0,-2.8246,0.0,0.0,0.0,0.0,0.0,0.0,0.0,0.0,0.0,0.0,0.0,0.0,0.0,0.0,0.0,0.0,0.0,0.0,0.0,0.0,0.0,0.0,0.0,0.0,0.0,0.0,0.0,0.0,0.0,0.0,0.0,0.0,0.0,0.0,0.0,0.0,0.0,0.0,0.0,0.0,-3.0311,-3.3426,-3.5622,-3.5622,-3.5622,-3.5622,-3.5622,-3.5622,-3.5284,-3.4523,-3.3795,0.0,0.0,0.0,0.0,0.0,0.0,0.0,0.0,0.0,0.0,0.0,0.0,0.0,0.0,0.0,0.0,0.0,0.0,0.0,0.0,0.0,0.0,0.0,0.0,0.0,0.0,0.0,0.0,0.0,0.0,0.0,0.0,0.0,0.0,0.0,0.0,0.0,0.0,0.0,0.0,0.0,0.0,0.0,0.0,0.0,0.0,0.0,0.0,0.0,0.0,0.0,0.0,0.0,-3.0909,-3.0669,-3.0415,-3.0615,-3.1224,-3.2006,-3.063,-3.0919,-3.2166,-2.9148,0.0,0.0,0.0,0.0,0.0,0.0,0.0,0.0,0.0,0.0,0.0,0.0,0.0,0.0,0.0,0.0,0.0,0.0,0.0,0.0,0.0,0.0,0.0,0.0,-3.1839,-3.2249,0.0,0.0,0.0,0.0,0.0,0.0,0.0,0.0,0.0,0.0,0.0,0.0,-3.0892,-3.3638,-3.5673,-3.5808,-3.5825,-3.5876,-3.6011,-3.6028,-3.6028,-3.6028,-3.4878,-3.4066,0.0,0.0,0.0,0.0,0.0,0.0,0.0,0.0,0.0,0.0,0.0,0.0,0.0,0.0,0.0,0.0,0.0,0.0,0.0,0.0,0.0,0.0,0.0,0.0,0.0,0.0,0.0,0.0,0.0,0.0,0.0,0.0,-2.7098,-2.7494,0.0,0.0,0.0,0.0,0.0,0.0,0.0,0.0,0.0,0.0,0.0,0.0,0.0,-2.9755,-2.9981,-3.1478,-3.2141,-3.1977,-3.3412,-3.3913,-3.3589,-3.3635,-3.3603,-3.3566,-3.4009,0.0,-3.1513,-3.1047,0.0,0.0,0.0,0.0,0.0,0.0,0.0,0.0,0.0,0.0,0.0,0.0,0.0,0.0,0.0,0.0,0.0,0.0,0.0,0.0,0.0,0.0,-3.3155,-3.3559,-3.4293,-3.4829,0.0,-3.2173,-3.0061,-2.9782,-2.9779,0.0,0.0,0.0,0.0,0.0,0.0,0.0,-3.2807,-3.453,-3.5876,-3.6552,-3.662,-3.6891,-3.755,-3.7601,-3.7601,-3.7601,-3.7415,-3.6721,-3.5385,-3.5131,0.0,0.0,0.0,0.0,0.0,0.0,0.0,0.0,0.0,0.0,0.0,0.0,0.0,0.0,0.0,0.0,0.0,0.0,0.0,0.0,0.0,0.0,0.0,0.0,0.0,0.0,0.0,0.0,0.0,-2.6379,-2.709,-2.7468,-2.7817,-2.7838,0.0,0.0,0.0,0.0,0.0,0.0,0.0,0.0,0.0,-3.1676,-3.1761,-3.2449,-3.3845,-3.4699,-3.5154,-3.521,-3.597,-3.6176,-3.5882,-3.5841,-3.5698,-3.5451,-3.5803,-3.5358,-3.4284,-3.3213,-3.1847,-3.0305,0.0,0.0,0.0,0.0,-2.9501,-2.9359,-3.1392,-3.1769,0.0,-3.0384,0.0,0.0,0.0,0.0,0.0,0.0,0.0,0.0,0.0,0.0,-3.4812,-3.5671,-3.6127,-3.6373,-3.6373,-3.5168,-3.3755,0.0,-3.1665,-3.0585,-2.9025,0.0,0.0,0.0,0.0,-3.3026,-3.3888,-3.5707,-3.7043,-3.7381,-3.7415,-3.755,-3.7872,-3.7905,-3.7905,-3.7905,-3.7905,-3.7601,-3.6941,-3.6079,-3.5013,0.0,0.0,0.0,0.0,0.0,0.0,0.0,0.0,0.0,0.0,0.0,0.0,0.0,0.0,0.0,0.0,0.0,0.0,0.0,0.0,0.0,0.0,0.0,0.0,0.0,0.0,0.0,0.0,-2.7158,-2.7828,-2.7807,-2.8966,-2.9135,0.0,0.0,0.0,0.0,0.0,0.0,-3.0797,-3.0646,-3.1556,-3.3685,-3.4142,-3.5262,-3.7217,-3.7336,-3.7471,-3.76,-3.7672,-3.7564,-3.7296,-3.7236,-3.7087,-3.6849,-3.705,-3.7125,-3.7007,-3.5266,-3.4315,-3.3792,-3.2246,-3.142,-3.1202,-3.2247,-3.2014,-3.1565,-3.4033,-3.4253,-3.3377,-3.3078,0.0,-3.2588,-3.2121,0.0,0.0,0.0,0.0,-3.414,-3.5343,-3.5806,-3.6197,-3.7166,-3.736,-3.736,-3.7323,-3.729,-3.6827,0.0,-3.3894,-3.2412,-3.0629,0.0,0.0,0.0,0.0,-3.4912,-3.5318,-3.6961,-3.8129,-3.8159,-3.8303,-3.8418,-3.8447,-3.8464,-3.8464,-3.8464,-3.8574,-3.8622,-3.8464,-3.7471,-3.669,-3.6214,0.0,0.0,0.0,0.0,0.0,0.0,0.0,0.0,0.0,0.0,0.0,0.0,0.0,0.0,0.0,0.0,0.0,0.0,0.0,0.0,0.0,0.0,0.0,0.0,0.0,0.0,0.0,0.0,0.0,-2.962,-3.0892,0.0,0.0,0.0,0.0,-2.9072,-3.0005,-3.1158,-3.2412,-3.3426,-3.4853,-3.6801,-3.6901,-3.7124,-3.7564,-3.7827,-3.7843,-3.76,-3.7843,-3.7843,-3.7583,-3.7583,-3.7433,-3.7227,-3.7999,-3.8316,-3.8218,-3.705,-3.5634,-3.4237,-3.381,-3.2716,-3.1561,-3.3138,-3.3431,-3.337,-3.5462,-3.5872,-3.5281,-3.4118,-3.3221,-3.3038,-3.5339,-3.4935,0.0,0.0,-3.5739,-3.575,-3.7336,-3.7417,-3.7234,-3.7737,-3.7859,-3.7825,-3.7702,-3.7584,-3.7421,0.0,-3.6589,-3.5913,-3.5104,0.0,-3.4523,-3.5131,-3.5419,-3.6079,-3.755,-3.8277,-3.8739,-3.895,-3.9427,-3.9778,-3.9952,-3.9969,-3.9969,-3.9969,-4.0456,-4.0504,-4.0019,-4.0388,-3.9731,-3.7821,-3.8201,0.0,0.0,0.0,0.0,0.0,0.0,0.0,0.0,0.0,0.0,0.0,0.0,0.0,0.0,0.0,0.0,0.0,0.0,0.0,0.0,0.0,0.0,0.0,0.0,0.0,0.0,0.0,0.0,-2.9719,-3.1247,0.0,-2.9403,-3.1207,-3.2249,-3.1565,-3.3216,-3.4534,-3.518,-3.5597,-3.6451,-3.7882,-3.8152,-3.8575,-3.9185,-3.9471,-3.9554,-3.9471,-3.9554,-3.9554,-3.9471,-3.9297,-3.9166,-3.9068,-3.9372,-3.9485,-3.9466,-3.9058,-3.8305,-3.7366,-3.7053,-3.6597,-3.6174,-3.6743,-3.6856,-3.6839,-3.7613,-3.7717,-3.7515,-3.7069,-3.6762,-3.6688,-3.7588,-3.7441,-3.7074,-3.7679,-3.8083,-3.8451,-3.9035,-3.9465,-3.9745,-3.9932,-3.9966,-3.9841,-3.9465,-3.9341,-3.9388,-3.967,-3.8438,-3.7184,-3.6523,-3.6856,-3.6801,-3.5673,-3.6791,-3.799,-3.8531,-3.9495,-4.0118,-4.0242,-4.0749,-4.0971,-4.0638,-4.0607,-4.0607,-4.0607,-4.078,-4.0995,-4.1213,-4.1358,-4.1157,-4.0411,-4.0277,-3.8751,0.0,0.0,0.0,0.0,0.0,0.0,0.0,0.0,0.0,0.0,0.0,0.0,0.0,0.0,0.0,0.0,0.0,0.0,0.0,0.0,0.0,0.0,0.0,0.0,0.0,0.0,-3.0679,-2.9898,-3.1583,-3.2169,-3.0567,-3.2716,-3.4154,-3.406,-3.5432,-3.649,-3.6941,-3.6968,-3.7529,-3.8769,-3.9024,-3.949,-4.0232,-4.0406,-4.0489,-4.0489,-4.0489,-4.0489,-4.0489,-4.0321,-4.0404,-4.0672,-4.0672,-4.0844,-4.1112,-4.0979,-4.0675,-4.0184,-3.9212,-3.8773,-3.8707,-3.8707,-3.8707,-3.8707,-3.8707,-3.8707,-3.8744,-3.9019,-3.9093,-3.9166,-3.9441,-3.9515,-3.9515,-3.9515,-3.99,-4.0304,-4.0304,-4.0708,-4.1111,-4.1111,-4.1111,-4.1042,-4.0899,-4.0918,-4.1156,-4.1809,-4.032,-3.8902,-3.8681,-3.9082,-3.8674,-3.647,-3.8133,-3.9214,-3.801,-3.9807,-4.1185,-4.1221,-4.1727,-4.1785,-4.1065,-4.0227,-4.0089,-4.0851,-4.0401,-4.0595,-4.1775,-4.1091,-4.0642,-4.0601,-4.0433,-3.9102,-3.6602,0.0,0.0,0.0,0.0,0.0,0.0,0.0,0.0,0.0,0.0,0.0,0.0,0.0,0.0,0.0,0.0,0.0,0.0,0.0,0.0,0.0,0.0,0.0,-2.9617,-3.0612,-3.1082,-3.038,-3.2056,-3.3107,-3.2745,-3.4147,-3.544,-3.6266,-3.6358,-3.6736,-3.7537,-3.7573,-3.8192,-3.9584,-3.9641,-3.9943,-4.0527,-4.0566,-4.0566,-4.0566,-4.0566,-4.0566,-4.0566,-4.0566,-4.1046,-4.1854,-4.1854,-4.2316,-4.3069,-4.2757,-4.262,-4.2368,-4.0084,-3.9036,-3.8793,-3.8793,-3.8781,-3.8781,-3.8781,-3.8781,-3.8909,-3.968,-3.9937,-4.0084,-4.0873,-4.1111,-4.1111,-4.1111,-4.113,-4.1148,-4.1148,-4.1167,-4.1185,-4.1185,-4.1185,-4.1299,-4.1849,-4.2142,-4.2561,-4.3332,-4.2248,-4.1343,-4.1848,-4.1411,-4.0229,-3.8084,-3.9475,0.0,-3.6194,-3.932,-4.178,-4.1673,-4.2311,-4.2262,-4.1157,-3.9016,-3.8599,-4.0626,-3.9429,-3.9593,-4.1747,-3.9771,-3.8543,-3.8347,-3.8814,-3.9013,-3.9013,0.0,0.0,0.0,0.0,0.0,0.0,0.0,0.0,0.0,0.0,0.0,0.0,0.0,0.0,0.0,0.0,0.0,0.0,0.0,0.0,0.0,0.0,-3.0283,-3.0311,-3.1399,-3.2299,-3.2697,-3.3785,-3.4723,-3.5238,-3.6211,-3.6909,-3.7129,-3.7716,-3.8348,-3.8971,-3.9015,-3.9399,-4.0229,-4.0861,-4.1276,-4.145,-4.2066,-4.2393,-4.2393,-4.2393,-4.2393,-4.2393,-4.2393,-4.2527,-4.2739,-4.2739,-4.2874,-4.3085,-4.2998,-4.2833,-4.2522,-4.1614,-4.1224,-4.1132,-4.0877,-4.0658,-4.0451,-4.0451,-4.0451,-4.0487,-4.0708,-4.0781,-4.0818,-4.1038,-4.1111,-4.1111,-4.1111,-4.1534,-4.1974,-4.1974,-4.2396,-4.2837,-4.2837,-4.2837,-4.2873,-4.3039,-4.3112,-4.3222,-4.3442,-4.3135,-4.29,-4.303,-4.2484,-4.1809,-4.135,-3.9375,0.0,-3.933,-4.1213,-4.1474,-3.9025,-4.1474,-4.185,-3.8315,-3.9895,-4.0166,-3.8053,-4.0214,-4.2008,-4.2996,-4.2432,-4.1905,-4.1471,-4.0271,-3.9431,0.0,0.0,0.0,0.0,0.0,0.0,0.0,0.0,0.0,0.0,0.0,0.0,0.0,0.0,0.0,0.0,0.0,0.0,0.0,0.0,0.0,0.0,-3.0692,-3.184,-3.21,-3.2599,-3.3463,-3.4659,-3.5253,-3.5881,-3.6707,-3.7221,-3.7624,-3.7973,-3.8744,-3.9401,-3.9908,-4.0253,-4.073,-4.1356,-4.1872,-4.2195,-4.2335,-4.2854,-4.3104,-4.3104,-4.3104,-4.3104,-4.3104,-4.3104,-4.3278,0.0,-4.3605,-4.3816,-4.4143,-4.4143,-4.4035,0.0,0.0,0.0,0.0,0.0,-4.1479,-4.1292,-4.1158,-4.1111,-4.1167,-4.1497,-4.1607,-4.168,-4.2011,-4.2121,-4.2121,-4.2121,-4.2433,-4.28,-4.28,-4.3149,-4.3497,-4.3497,-4.3497,-4.3497,-4.3497,-4.3497,-4.3497,-4.3497,-4.3497,0.0,-4.3497,-4.3123,-4.2905,-4.3032,-4.0814,-3.8122,-3.5301,-3.8853,-4.1232,-4.017,-4.0039,-3.7989,-3.299,-3.8901,0.0,0.0,0.0,-4.0999,-4.1697,-4.1889,0.0,0.0,0.0,-4.0112,-4.0545,0.0,0.0,0.0,-3.8927,-3.8358,0.0,0.0,0.0,0.0,0.0,0.0,0.0,0.0,0.0,0.0,0.0,0.0,0.0,0.0,0.0,0.0,-3.232,-3.3697,-3.4306,-3.4199,-3.4605,-3.6157,-3.6384,-3.6743,-3.7551,-3.7728,-3.8077,-3.8823,-3.9663,-4.0233,-4.0614,0.0,0.0,0.0,0.0,-4.2929,-4.3239,-4.3335,-4.3374,-4.3374,-4.3374,-4.3374,-4.3374,-4.3374,-4.3778,-4.4451,-4.4451,-4.4893,-4.5586,-4.5586,-4.5586,-4.5414,-4.3637,-4.2743,-4.2408,-4.2096,-4.195,-4.1827,-4.1525,0.0,0.0,-4.2194,-4.2433,-4.2561,-4.3277,-4.3497,-4.3497,-4.3497,-4.3497,-4.3497,-4.3497,-4.3497,-4.3497,-4.3497,-4.3497,-4.3497,-4.3497,-4.3497,-4.3497,-4.3497,-4.3497,-4.3497,-4.3497,-4.3497,-4.3479,-4.3495,-4.2941,-3.9144,-2.9782,-3.556,-4.1225,-4.3113,0.0,0.0,-2.7245,-3.7024,-4.323,-4.2571,-4.0004,-3.8898,-3.9726,-4.0138,-3.9901,-3.9058,-3.9868,-4.1131,-4.2788,-4.325,-4.3513,-4.3437,-3.9124,-3.8279,0.0,0.0,0.0,0.0,0.0,0.0,0.0,0.0,0.0,0.0,0.0,0.0,0.0,0.0,0.0,-3.2262,-3.3339,-3.4432,-3.5485,-3.597,-3.6342,-3.6653,-3.704,-3.7569,-3.8395,-3.9038,-3.9614,-4.0058,-4.082,-4.1536,-4.2145,-4.2319,-4.26,-4.2998,-4.363,-4.4013,-4.4066,-4.4759,-4.5105,-4.5105,0.0,0.0,-4.5105,-4.5105,-4.5201,-4.5336,-4.5336,-4.5432,-4.5586,-4.5586,-4.5586,-4.5566,-4.5166,-4.4824,-4.4494,-4.4448,-4.4044,-4.3532,-4.346,-4.3264,-4.3057,-4.3222,-4.3259,-4.3296,-4.3442,-4.3497,0.0,-4.3497,-4.3497,-4.3497,-4.3497,-4.3497,-4.3497,-4.3497,-4.3497,-4.3497,-4.3497,-4.3497,-4.3497,-4.3497,-4.3497,-4.3497,-4.3497,-4.3497,-4.3497,-4.3479,-4.3373,-4.2541,-4.0518,-4.1778,-4.265,-4.2206,-4.1996,-3.7753,-2.7568,-3.7037,-4.3442,-4.3284,-4.2752,-4.2496,-4.2695,-4.2748,-4.2713,-4.2556,-4.2713,-4.2986,-4.3339,-4.3444,-4.3646,-4.3875,-4.2654,-4.2502,0.0,0.0,0.0,0.0,0.0,0.0,0.0,0.0,0.0,0.0,0.0,-3.037,0.0,0.0,-3.2911,-3.3607,-3.4809,-3.5902,-3.6535,-3.7398,-3.792,-3.7772,-3.8321,-3.8854,-3.9258,-4.0191,-4.0826,-4.0989,-4.1911,-4.2674,-4.3229,-4.363,-4.4,-4.4335,-4.4739,-4.4951,-4.4951,-4.5374,-4.5586,-4.5586,-4.5586,-4.5586,-4.5586,-4.5586,-4.5586,-4.5586,-4.5586,-4.5586,-4.5586,-4.5586,-4.5586,-4.5586,-4.5586,-4.5495,-4.5322,-4.5161,-4.4853,-4.4535,-4.4346,-4.4046,-4.3758,-4.3758,-4.3646,-4.3497,-4.3497,-4.3497,-4.3497,-4.3497,-4.3497,-4.3497,-4.3497,-4.3497,-4.3497,-4.3497,-4.3497,-4.3497,-4.3497,-4.3497,-4.3497,-4.3497,-4.3497,-4.3497,-4.3497,-4.3497,-4.3497,-4.3497,-4.3497,-4.3501,-4.3488,-4.3503,-4.3286,-4.2734,-4.3178,-4.1212,-3.5579,-4.0255,-4.3513,-4.3497,-4.3497,-4.3497,-4.3497,-4.3497,-4.3497,-4.3497,-4.3497,-4.3497,-4.3497,-4.3497,-4.3679,-4.4016,-4.3836,-4.3943,0.0,0.0,0.0,0.0,0.0,0.0,0.0,0.0,-3.0192,-3.1244,-3.1651,-3.2043,-3.274,-3.3859,-3.4708,-3.5,-3.6326,-3.7376,-3.7573,-3.8528,-3.9249,-3.9277,-3.9823,-4.0209,-4.0209,-4.1266,-4.195,-4.2031,-4.3045,-4.3828,-4.4209,-4.484,-4.5322,-4.5586,-4.5586,-4.5586,-4.5586,-4.5586,-4.5586,-4.5586,-4.5586,-4.5586,-4.5586,-4.5586,-4.5586,-4.5586,-4.5586,-4.5586,-4.5586,-4.5586,-4.5586,-4.5586,-4.5586,-4.5586,-4.5568,-4.5302,-4.5159,-4.5052,-4.4781,-4.4401,-4.4016,-4.4016,-4.3772,-4.3497,-4.3497,-4.3497,-4.3497,-4.3497,-4.3497,-4.3497,-4.3497,-4.3497,-4.3497,-4.3497,-4.3497,-4.3497,-4.3497,-4.3497,-4.3497,-4.3497,-4.3497,-4.3497,-4.3497,-4.3497,-4.3497,-4.3497,-4.3497,-4.3497,-4.3497,-4.3497,-4.3503,-4.3485,-4.3086,-4.303,-4.3467,-4.3505,-4.3497,-4.3497,-4.3497,-4.3497,-4.3497,-4.3497,-4.3497,-4.3497,-4.3497,-4.3497,-4.3497,-4.3508,-4.3698,-4.4061,-4.4119,-4.4382,-2.7485,-2.7682,-2.8744,-3.0262,-3.0342,-3.0417,0.0,0.0,-3.2059,-3.2293,-3.3282,-3.4304,-3.4852,-3.5613,-3.6313,-3.6802,-3.7416,-3.8077,-3.8797,-3.9428,-4.016,-4.1155,-4.1361,-4.1417,-4.1417,-4.2441,-4.3264,-4.3621,-4.4424,-4.5048,-4.5396,-4.5493,-4.5568,-4.5586,-4.5586,-4.5586,-4.5586,-4.5586,-4.5586,-4.5586,-4.5586,-4.5586,-4.5586,-4.5586,-4.5586,-4.5586,-4.5586,-4.5586,-4.5586,-4.5586,-4.5586,-4.5586,-4.5586,-4.5586,-4.5605,-4.5568,-4.5342,-4.5096,-4.5052,-4.4587,-4.4016,-4.4016,-4.3772,-4.3497,-4.3497,-4.3497,-4.3497,-4.3497,-4.3497,-4.3497,-4.3497,-4.3497,-4.3497,-4.3497,-4.3497,-4.3497,-4.3497,-4.3497,-4.3497,-4.3497,-4.3497,-4.3497,-4.3497,-4.3497,-4.3497,-4.3497,-4.3497,-4.3497,-4.3497,-4.3497,-4.3497,-4.3483,-4.1681,-4.13,-4.3336,-4.3516,-4.3497,-4.3497,-4.3497,-4.3497,-4.3497,-4.3497,-4.3497,-4.3497,-4.3497,-4.3497,-4.3497,-4.3495,-4.3714,-4.418,-4.4621,-4.4893,-3.0611,-3.0346,0.0,0.0,-3.2015,-3.2303,-3.288,-3.3304,-3.3736,-3.4197,-3.4734,-3.5307,-3.5825,-3.6434,-3.696,0.0,-3.8239,-3.9067,-3.91,-4.0529,-4.1765,-4.2228,-4.3092,-4.336,-4.2671,-4.3667,-4.4433,-4.4603,-4.5092,-4.5438,-4.5586,-4.5586,-4.5586,-4.5586,-4.5586,-4.5586,-4.5586,-4.5586,-4.5586,-4.5586,-4.5586,-4.5586,-4.5586,-4.5586,-4.5586,-4.5586,-4.5586,-4.5586,-4.5586,-4.5586,-4.5586,-4.5586,-4.5586,-4.5586,-4.5586,-4.5586,-4.5513,-4.54,-4.54,-4.5055,-4.4638,-4.4638,-4.4261,-4.3804,-4.3804,-4.3646,-4.3497,-4.3497,-4.3497,-4.3497,-4.3497,-4.3497,-4.3497,-4.3497,-4.3497,-4.3497,-4.3497,-4.3497,-4.3497,-4.3497,-4.3497,-4.3497,-4.3497,-4.3497,-4.3497,-4.3497,-4.3497,-4.3497,-4.3497,-4.3497,-4.3497,-4.3497,-4.265,-4.245,-4.3408,-4.3497,-4.3497,-4.3497,-4.3497,-4.3497,-4.3497,-4.3497,-4.3497,-4.3497,-4.3497,-4.3497,-4.3497,-4.3489,-4.382,-4.4429,-4.4634,-4.4972,-3.1994,0.0,0.0,-3.2421,-3.3313,-3.4015,-3.4015,-3.4533,-3.5206,-3.5708,-3.5941,-3.6207,-3.6706,-3.7135,-3.7504,-3.7882,-3.9052,-3.9914,-3.9979,-4.1612,-4.292,-4.3259,-4.4354,-4.4786,-4.4026,-4.4715,-4.5243,-4.5243,-4.5457,-4.5586,-4.5586,-4.5586,-4.5586,-4.5586,-4.5586,-4.5586,-4.5586,-4.5586,-4.5586,-4.5586,-4.5586,-4.5586,-4.5586,-4.5586,-4.5586,-4.5586,-4.5586,-4.5586,-4.5586,-4.5586,-4.5586,-4.5586,-4.5586,-4.5586,-4.5586,-4.5586,-4.5586,-4.5586,-4.5586,-4.5381,-4.5096,-4.5096,-4.4663,-4.4165,-4.4165,-4.3912,-4.3646,-4.3646,-4.3646,-4.3631,-4.3513,-4.3563,-4.3612,-4.3513,-4.3497,-4.3497,-4.3497,-4.3497,-4.3497,-4.3497,-4.3497,-4.3497,-4.3497,-4.3497,-4.3497,-4.3497,-4.3497,-4.3497,-4.3497,-4.3497,-4.3497,-4.3497,-4.3506,-4.3522,-4.3481,-4.3484,-4.3503,-4.3497,-4.3497,-4.3497,-4.3497,-4.3497,-4.3497,-4.3497,-4.3497,-4.3497,-4.3497,-4.3503,-4.3971,-4.4896,-4.4878,-4.5131,0.0,0.0,-3.2236,-3.3214,-3.4497,-3.5554,-3.5554,-3.5977,-3.6357,-3.6374,-3.6803,-3.7285,-3.7755,-3.7859,-3.8301,-3.9603,-3.9863,-4.0432,-4.2011,-4.2545,-4.324,-4.4395,-4.4877,-4.5203,0.0,-4.5566,-4.5586,-4.5586,-4.5586,-4.5586,-4.5586,-4.5586,-4.5586,-4.5586,-4.5586,-4.5586,-4.5586,-4.5586,-4.5586,-4.5586,-4.5586,-4.5586,-4.5586,-4.5586,-4.5586,-4.5586,-4.5586,-4.5586,-4.5586,-4.5586,-4.5586,-4.5586,-4.5586,-4.5586,-4.5586,-4.5586,-4.5586,-4.5586,-4.5586,-4.5381,-4.5096,-4.5096,-4.4872,-4.458,-4.458,-4.429,-4.3967,-4.3967,-4.3967,-4.3893,-4.3597,-4.3758,-4.3893,-4.3563,-4.3497,-4.3497,-4.3497,-4.3497,-4.3497,-4.3497,-4.3497,-4.3497,-4.3497,-4.3497,-4.3497,-4.3497,-4.3497,-4.3497,-4.3497,-4.3497,-4.3497,-4.3497,-4.3506,-4.3522,-4.3481,-4.3506,-4.3486,-4.3516,-4.3497,-4.3497,-4.3497,-4.3497,-4.3497,-4.3497,-4.3497,-4.3497,-4.3479,-4.3511,-4.4214,-4.5564,-4.557,-4.5586,0.0,0.0,-3.438,-3.5198,-3.6067,-3.6666,-3.6666,-3.6786,-3.6921,-3.6921,-3.6597,-3.6486,-3.7016,-3.7551,-3.8156,-3.8975,-4.0451,-4.168,-4.2213,-4.329,-4.4154,-4.4542,-4.5096,0.0,0.0,0.0,0.0,-4.5586,-4.5586,-4.5586,-4.5586,-4.5586,-4.5586,-4.5586,-4.5586,-4.5586,-4.5586,-4.5586,-4.5586,-4.5586,-4.5586,-4.5586,-4.5586,-4.5586,-4.5586,-4.5586,-4.5586,-4.5586,-4.5586,-4.5586,-4.5586,-4.5586,-4.5586,-4.5586,-4.5586,-4.5586,-4.5586,-4.5586,-4.5586,-4.5532,-4.5438,-4.5438,-4.5182,-4.4896,-4.4657,-4.4318,-4.3955,-4.3726,-4.3679,-4.3646,-4.3513,-4.3597,-4.3646,-4.3513,-4.3497,-4.3497,-4.3497,-4.3497,-4.3497,-4.3497,-4.3497,-4.3497,-4.3497,-4.3497,-4.3497,-4.3497,-4.3497,-4.3497,-4.3497,-4.3497,-4.3497,-4.3497,-4.3503,-4.2903,-4.1355,-4.2647,-4.3504,-4.3497,-4.3497,-4.3497,-4.3497,-4.3497,-4.3497,-4.3497,-4.3497,-4.3497,-4.3479,-4.3492,-4.424,-4.5609,-4.5609,-4.5586,-3.3578,-3.4588,-3.5367,-3.5904,-3.6487,-3.6943,-3.7152,-3.7323,-3.7433,-3.7433,-3.7003,-3.6729,-3.7057,-3.7794,-3.8358,-3.8524,-4.027,-4.1691,-4.1968,-4.3071,-4.4026,-4.4549,-4.5182,0.0,0.0,0.0,0.0,-4.5586,-4.5586,-4.5586,-4.5586,-4.5586,-4.5586,-4.5586,-4.5586,-4.5586,-4.5586,-4.5586,-4.5586,-4.5586,-4.5586,-4.5586,-4.5586,-4.5586,-4.5586,-4.5586,-4.5586,-4.5586,-4.5586,-4.5586,-4.5586,-4.5586,-4.5586,-4.5586,-4.5586,-4.5586,-4.5586,-4.5586,-4.5586,-4.5586,-4.5586,-4.5586,-4.5438,-4.5222,-4.4872,-4.4508,-4.4136,-4.3772,-4.3679,-4.3646,-4.3548,-4.3597,-4.3646,-4.3513,-4.3497,-4.3497,-4.3497,-4.3497,-4.3497,-4.3497,-4.3497,-4.3497,-4.3497,-4.3497,-4.3497,-4.3497,-4.3497,-4.3497,-4.3497,-4.3497,-4.3497,-4.3497,-4.3486,-4.2921,-4.1444,-4.2648,-4.3504,-4.3497,-4.3497,-4.3497,-4.3497,-4.3497,-4.3497,-4.3497,-4.3497,-4.3497,-4.3479,-4.3492,-4.424,-4.5609,-4.5609,-4.5586,-3.374,-3.4535,-3.5379,-3.5479,-3.6061,-3.6666,-3.7173,-3.7614,-3.7928,-3.7925,-3.7875,-3.7817,0.0,0.0,-3.8912,-3.8418,-3.9541,-4.0736,-4.1526,-4.2189,-4.3118,0.0,0.0,0.0,0.0,0.0,0.0,-4.5586,0.0,-4.5586,-4.5586,-4.5586,-4.5586,-4.5586,-4.5586,-4.5586,-4.5586,-4.5586,-4.5586,-4.5586,-4.5586,-4.5586,-4.5586,-4.5586,-4.5586,-4.5586,-4.5586,-4.5624,-4.5663,-4.5663,-4.5682,-4.572,-4.572,-4.572,-4.572,-4.572,-4.572,-4.572,-4.572,-4.5663,-4.5586,-4.5586,-4.5568,-4.5513,-4.514,-4.4806,-4.4501,-4.4106,-4.3986,-4.3912,-4.3563,-4.3758,-4.3893,-4.3563,-4.3497,-4.3497,-4.3497,-4.3497,-4.3497,-4.3497,-4.3497,-4.3497,-4.3497,-4.3497,-4.3497,-4.3497,-4.3497,-4.3497,-4.3497,-4.3497,-4.3497,-4.3497,-4.3488,-4.3486,-4.3481,-4.3506,-4.3486,-4.3516,-4.3497,-4.3497,-4.3497,-4.3497,-4.3497,-4.3497,-4.3497,-4.3513,-4.3495,-4.3521,-4.4221,-4.559,-4.5609,-4.5586,-3.5665,-3.6732,-3.7535,-3.7327,-3.7817,-3.8407,-3.8314,-3.8401,-3.8376,-3.7966,-3.7247,-3.6665,0.0,-3.7716,-3.8818,-3.8894,-4.1014,0.0,-4.3304,-4.3762,0.0,0.0,0.0,-4.5586,-4.5586,-4.5586,0.0,0.0,-4.5586,-4.5586,-4.5586,-4.5586,-4.5586,-4.5586,-4.5586,-4.5586,-4.5586,-4.5586,-4.5586,-4.5586,-4.5586,-4.5586,-4.5586,-4.5586,-4.5586,-4.5586,-4.5586,-4.597,-4.6567,-4.6567,-4.6913,-4.7451,-4.7451,-4.7451,-4.7451,-4.7451,-4.7451,-4.7451,-4.7451,-4.6644,-4.5568,-4.5322,-4.5222,-4.5118,-4.4463,-4.4233,-4.4076,-4.3726,-4.3631,-4.3597,-4.3513,-4.3563,-4.3597,-4.3513,-4.3497,-4.3497,-4.3497,-4.3497,-4.3497,-4.3497,-4.3497,-4.3497,-4.3497,-4.3497,-4.3497,-4.3497,-4.3497,-4.3497,-4.3497,-4.3497,-4.3497,-4.3497,-4.352,-4.3503,-4.3497,-4.352,-4.3503,-4.3497,-4.3497,-4.3497,-4.3497,-4.3497,-4.3497,-4.3497,-4.3497,-4.3502,-4.3515,-4.3502,-4.4209,-4.5601,-4.5611,-4.5586,-3.7616,-3.8322,-3.8711,-3.8389,-3.8564,-3.8627,-3.796,-3.8,-3.7886,-3.6851,-3.626,0.0,-3.5907,-3.7541,0.0,0.0,0.0,0.0,-4.3062,-4.3448,-4.4018,0.0,-4.54,0.0,-4.5586,-4.5586,-4.5586,0.0,-4.5586,-4.5586,-4.5586,-4.5586,-4.5586,-4.5586,-4.5586,-4.5778,-4.6163,-4.6163,-4.6355,-4.6701,-4.6701,-4.6701,-4.6701,-4.6701,-4.6701,-4.6701,0.0,-4.6971,-4.7432,-4.7432,-4.7702,-4.8105,-4.8105,-4.8105,-4.8105,-4.8105,-4.8105,-4.8105,-4.8105,-4.749,-4.6588,-4.5872,-4.563,-4.5422,-4.4327,-4.4016,-4.3924,-4.3597,-4.3497,-4.3497,-4.3497,-4.3497,-4.3497,-4.3497,-4.3497,-4.3497,-4.3497,-4.3497,-4.3497,-4.3497,-4.3497,-4.3497,-4.3497,-4.3497,-4.3497,-4.3497,-4.3497,-4.3483,-4.3488,-4.3506,-4.3523,-4.3516,-4.3504,-4.3505,-4.3497,-4.3497,-4.3497,-4.3497,-4.3497,-4.3497,-4.3497,-4.3497,-4.3497,-4.3497,-4.3483,-4.3476,-4.349,-4.4113,-4.4843,-4.5595,-4.5592,-4.5586,-3.9293,-3.9381,-3.9335,-3.8976,-3.873,-3.8245,-3.698,-3.71,-3.7011,-3.5257,0.0,-3.5496,-3.5748,-3.7435,-3.8558,-3.7886,0.0,-4.1745,-4.2272,-4.2629,-4.3418,-4.4968,-4.5419,-4.5586,-4.5586,-4.5586,-4.5586,-4.5586,-4.5586,-4.5586,-4.5586,-4.5586,-4.5643,-4.5759,-4.5874,-4.6297,-4.7048,-4.7067,-4.7413,-4.8105,-4.8105,-4.8105,-4.8105,-4.8105,-4.8105,-4.8105,-4.8105,0.0,-4.8279,-4.8279,-4.8336,-4.8452,-4.8452,-4.8414,-4.8375,-4.8375,-4.8337,-4.8278,-4.8278,-4.8278,-4.8085,-4.6797,-4.6386,-4.6136,-4.467,-4.424,-4.4178,-4.3766,-4.3644,-4.3626,-4.3516,-4.3497,-4.3497,-4.3497,-4.3497,-4.3497,-4.3497,-4.3497,-4.3497,-4.3497,-4.3497,-4.3497,-4.3497,-4.3497,-4.3497,-4.3497,-4.3499,-4.3505,-4.3483,-4.3516,-4.3393,-4.3068,-4.3303,-4.3503,-4.3503,-4.3481,-4.3497,-4.3497,-4.3497,-4.3497,-4.3497,-4.3497,-4.3495,-4.3508,-4.3503,-4.3588,-4.3781,-4.4995,-4.5598,-4.5602,-4.5591,-4.5586,-3.9547,-3.974,-3.9865,-3.9542,-3.9425,-3.8914,-3.7107,-3.71,0.0,0.0,0.0,-3.5131,-3.5211,-3.6283,0.0,-3.8926,0.0,0.0,0.0,0.0,-4.4857,0.0,0.0,0.0,0.0,0.0,0.0,0.0,0.0,-4.5586,-4.5586,-4.5586,-4.5932,-4.6644,-4.7317,-4.774,-4.7894,-4.7894,-4.7971,-4.8105,-4.8105,-4.8105,-4.8105,-4.8105,-4.8105,-4.8105,-4.8105,0.0,-4.9163,-4.9163,-4.9606,-5.024,-5.024,-5.0042,-4.9744,-4.9744,-4.9537,-4.9257,-4.9257,-4.9257,-4.8991,-4.7405,-4.6868,-4.6694,-4.586,-4.555,-4.5421,-4.4707,-4.4488,-4.4342,-4.3663,-4.3497,-4.3497,-4.3497,-4.3497,-4.3497,-4.3497,-4.3497,-4.3497,-4.3497,-4.3497,-4.3497,-4.3497,-4.3497,-4.3497,-4.3497,-4.3506,-4.3523,-4.3486,-4.3505,-4.2757,-4.0907,-4.2368,-4.3516,-4.352,-4.3505,-4.3497,-4.3497,-4.3497,-4.3497,-4.3497,-4.3497,-4.3502,-4.3509,-4.3497,-4.4065,-4.5247,-4.5494,-4.5607,-4.559,-4.5587,-4.5586,-4.0063,-4.0194,-4.0267,-4.012,-3.9964,-3.9248,-3.687,0.0,0.0,0.0,0.0,-3.4493,-3.483,0.0,0.0,0.0,0.0,0.0,0.0,0.0,0.0,0.0,0.0,0.0,0.0,0.0,0.0,0.0,0.0,-4.6278,-4.6278,-4.6663,-4.7086,-4.7509,-4.7894,-4.8317,-4.8779,-4.8779,-4.899,-4.9452,-4.9452,-4.9452,-4.9452,-4.9452,-4.9452,-4.9452,-4.9452,0.0,-5.0067,-4.9869,-5.0016,-5.0358,-5.0159,-4.9949,-4.98,-4.98,-4.9664,-4.9504,-4.9504,-4.9504,-4.9343,-4.8326,-4.7721,-4.7186,-4.619,-4.5902,-4.581,-4.5424,-4.5333,-4.5149,-4.4323,-4.4121,-4.4011,-4.3589,-4.3497,-4.3497,-4.3497,-4.3497,-4.3497,-4.3497,-4.3497,-4.3497,-4.3497,-4.3497,-4.3497,-4.3497,-4.3487,-4.3069,-4.1869,-4.2792,-4.2639,-4.0354,-4.1096,-4.2207,-4.3415,-4.3503,-4.3497,-4.3497,-4.3497,-4.3497,-4.3497,-4.3497,-4.3498,-4.349,-4.4223,-4.4926,-4.5595,-4.5609,-4.5592,-4.5586,-4.5586,-4.5586,-4.0392,-4.0489,-4.0489,-4.0489,-4.0304,-3.9375,-3.6631,-3.6366,0.0,0.0,-3.3238,-3.3979,-3.4591,0.0,0.0,0.0,0.0,0.0,0.0,0.0,0.0,0.0,0.0,0.0,0.0,0.0,0.0,0.0,0.0,0.0,-4.7163,-4.7932,-4.8375,-4.8375,-4.8567,-4.899,-4.9663,-4.9683,-5.001,-5.0702,-5.0702,-5.0702,-5.0702,-5.0702,-5.0702,-5.0702,-5.0702,0.0,0.0,-5.0225,-5.0043,-4.9949,-4.9617,-4.9445,-4.9356,-4.9356,-4.9326,-4.9234,-4.9234,-4.9234,-4.9171,-4.8863,-4.8401,-4.7768,-4.6727,-4.6416,-4.6379,-4.6214,-4.6159,-4.5975,-4.5168,-4.4837,-4.4507,-4.3681,-4.3497,-4.3497,-4.3497,-4.3497,-4.3497,-4.3497,-4.3497,-4.3497,-4.3497,-4.3497,-4.3497,-4.3497,-4.3501,-4.285,-4.1049,-4.2393,-4.2799,-4.103,-4.0838,-4.1564,-4.3323,-4.3499,-4.3497,-4.3497,-4.3497,-4.3497,-4.3497,-4.3497,-4.3494,-4.3498,-4.4869,-4.5588,-4.5604,-4.5591,-4.5586,-4.5586,-4.5586,-4.5586,-4.0085,-4.0489,-4.0489,-4.0489,-4.0304,-3.9375,-3.6631,0.0,0.0,-3.3169,-3.3238,-3.3979,-3.4591,-3.4806,0.0,0.0,0.0,0.0,0.0,0.0,0.0,0.0,0.0,0.0,0.0,0.0,0.0,0.0,0.0,0.0,-4.799,-4.8817,-4.9279,-4.9279,-5.0048,-5.0491,-5.0567,-5.0567,-5.0606,-5.0702,-5.0702,-5.0702,-5.0702,-5.0702,-5.0702,-5.0702,-5.0702,0.0,0.0,-5.0135,-4.9879,-4.9532,-4.9504,-4.9265,-4.8963,-4.8963,-4.8709,-4.8421,-4.8421,-4.8421,-4.8383,-4.8364,-4.8549,-4.8717,-4.8218,-4.8086,-4.7939,-4.7205,-4.7003,-4.6819,-4.5993,-4.5259,-4.4507,-4.3681,-4.3497,-4.3497,-4.3497,-4.3497,-4.3497,-4.3497,-4.3497,-4.3497,-4.3497,-4.3497,-4.3497,-4.3497,-4.3488,-4.3432,-4.3193,-4.3381,-4.3408,-4.3211,-4.3195,-4.3255,-4.3462,-4.3487,-4.3497,-4.3497,-4.3497,-4.3497,-4.3497,-4.3497,-4.3495,-4.3487,-4.4889,-4.5612,-4.5607,-4.5605,-4.5586,-4.5586,-4.5586,-4.5586,-4.0181,-4.0489,-4.0489,-4.0489,-3.9938,-3.8899,-3.7122,0.0,0.0,-3.3684,-3.3587,-3.3928,-3.4311,-3.4551,-3.5001,0.0,0.0,0.0,0.0,0.0,0.0,0.0,0.0,0.0,0.0,0.0,0.0,0.0,0.0,0.0,-4.9721,-5.0029,-5.0183,-5.0183,-5.051,-5.0702,-5.0702,-5.0702,-5.0702,-5.0702,-5.0702,-5.0702,-5.0702,-5.0702,-5.0702,-5.0702,-5.0702,0.0,0.0,-4.9827,-4.9504,-4.9108,-4.8881,-4.8657,-4.855,-4.855,-4.8421,-4.8306,-4.8306,-4.8306,-4.8306,-4.8306,-4.8155,-4.8062,-4.8231,-4.8306,-4.8233,-4.7921,-4.7829,-4.7645,-4.6838,-4.5681,-4.4507,-4.3681,-4.3497,-4.341,-4.3105,-4.3014,-4.2921,-4.2562,-4.279,-4.3104,-4.3451,-4.3522,-4.3265,-4.2559,-4.2481,-4.2709,-4.3415,-4.3525,-4.2949,-4.1586,-4.2687,-4.352,-4.3488,-4.352,-4.3497,-4.3497,-4.3497,-4.3497,-4.3497,-4.3497,-4.3508,-4.3502,-4.487,-4.5593,-4.5586,-4.5586,-4.5586,-4.5586,-4.5586,-4.5586,-3.9762,-4.0249,-4.0389,-4.0473,-3.9706,-3.8594,0.0,0.0,-3.5175,-3.4034,-3.3807,-3.3876,-3.4147,-3.4467,-3.4793,0.0,0.0,0.0,0.0,0.0,0.0,0.0,0.0,0.0,0.0,0.0,0.0,0.0,0.0,0.0,0.0,-5.0741,-5.0702,-5.0702,-5.0702,-5.0702,-5.0702,-5.0702,-5.0702,-5.0702,-5.0702,-5.0702,-5.0702,-5.0702,-5.0702,-5.0683,-5.0565,0.0,0.0,-4.9475,-4.9094,-4.8674,-4.8421,-4.8306,-4.8306,-4.8306,-4.8306,-4.8306,-4.8306,-4.8306,-4.8267,-4.8075,-4.7756,-4.7428,-4.7656,-4.7879,-4.7977,-4.7797,-4.7879,-4.7837,-4.6984,-4.5902,-4.48,-4.3736,-4.3497,-4.3375,-4.2826,-4.2711,-4.2519,-4.1895,-4.2162,-4.253,-4.2933,-4.3007,-4.2775,-4.2081,-4.1895,-4.1953,-4.2459,-4.2686,-4.2131,-4.0295,-4.1551,-4.2769,-4.3433,-4.3483,-4.3497,-4.3497,-4.3497,-4.3497,-4.3497,-4.3497,-4.3508,-4.3502,-4.487,-4.5593,-4.5586,-4.5586,-4.5589,-4.5611,-4.5611,-4.5611,-3.8524,-3.9691,-4.0158,-4.0422,-3.9706,-3.8594,0.0,0.0,-3.5175,-3.4034,-3.3807,-3.3876,-3.4147,-3.4467,-3.4793,-3.507,-3.5339,0.0,0.0,0.0,0.0,0.0,0.0,0.0,0.0,0.0,0.0,0.0,0.0,0.0,0.0,-5.0702,-5.0702,-5.0702,-5.0702,-5.0702,-5.0702,-5.0702,-5.0702,-5.0702,-5.0702,-5.0702,-5.0702,-5.0702,-5.0702,0.0,0.0,0.0,0.0,-4.9075,-4.8657,-4.8306,-4.8306,-4.8306,-4.8306,-4.8306,-4.8306,-4.8306,-4.8306,-4.8306,-4.821,-4.7614,-4.7385,-4.7299,-4.6618,-4.6892,-4.7281,-4.6618,-4.691,-4.7168,-4.6157,-4.5902,-4.548,-4.3864,-4.3497,-4.3375,-4.2826,-4.2711,-4.2519,-4.1895,-4.181,-4.181,-4.181,-4.181,-4.1959,-4.2321,-4.2048,-4.1389,-4.026,-4.076,-4.0931,-4.02,-4.012,-4.1033,-4.3289,-4.3506,-4.3497,-4.3497,-4.3497,-4.3497,-4.3497,-4.3497,-4.3508,-4.3502,-4.487,-4.5593,-4.5586,-4.5586,-4.5611,-4.5595,-4.5595,-4.5612,-3.669,-3.7167,-3.7204,-3.671,-3.6177,-3.5663,-3.5289,0.0,-3.389,-3.3817,-3.3578,-3.3504,-3.3858,-3.4353,-3.4714,-3.4813,-3.5207,0.0,0.0,0.0,0.0,0.0,0.0,0.0,0.0,0.0,0.0,0.0,0.0,0.0,0.0,-5.0741,-5.0702,-5.0702,-5.0702,-5.0702,-5.0702,-5.0702,-5.0702,-5.0702,-5.0702,-5.0702,-5.0702,-5.0702,-5.0544,0.0,0.0,0.0,0.0,-4.8963,-4.8657,-4.8306,-4.8306,-4.8306,-4.8306,-4.8306,-4.8306,-4.8306,-4.8306,-4.8035,-4.7656,-4.747,-4.6819,-4.6063,-4.5833,-4.6209,-4.6664,-4.6478,-4.6181,-4.5766,-4.4922,-4.4624,-4.4266,-4.3193,-4.2939,-4.2808,-4.2203,-4.175,-4.1313,-4.0737,-4.092,-4.1161,-4.1161,-4.1534,-4.17,-4.1408,-4.1293,-4.0909,-4.0199,-4.028,-4.0366,-4.012,-4.0809,-4.1871,-4.3364,-4.3483,-4.3506,-4.3516,-4.3497,-4.3497,-4.3497,-4.349,-4.3495,-4.3484,-4.4862,-4.5602,-4.5586,-4.5586,-4.5112,-4.4157,-4.4157,-4.4151,0.0,-3.5185,-3.5275,-3.4887,-3.4408,0.0,0.0,0.0,-3.3273,-3.3522,-3.3494,-3.3532,-3.3884,-3.4353,-3.4734,-3.4832,-3.5223,0.0,0.0,0.0,0.0,0.0,0.0,0.0,0.0,0.0,0.0,0.0,0.0,0.0,0.0,-5.0567,-5.0702,-5.0702,-5.0702,-5.0624,-5.0483,-5.0624,-5.0624,-5.0483,-5.0624,-5.0702,-5.0702,-5.0702,-5.0483,0.0,0.0,0.0,0.0,-4.8763,-4.8513,-4.8306,-4.8306,-4.8306,-4.8267,-4.8035,-4.8114,-4.821,-4.7738,-4.7512,-4.7342,-4.6819,-4.5982,-4.5178,-4.5178,-4.5407,-4.5763,-4.5935,-4.5494,-4.4736,-4.3907,-4.3636,-4.3391,-4.2853,-4.2711,-4.2519,-4.1937,-4.149,-4.1013,-4.0254,-4.0368,-4.0625,-4.0625,-4.0891,-4.1013,-4.0655,-4.0625,-4.0497,-4.0171,-4.007,-4.0171,-4.0368,-4.1059,-4.1917,-4.309,-4.3356,-4.3524,-4.3497,-4.3497,-4.3497,-4.3497,-4.3508,-4.3754,-4.4271,-4.5152,-4.5588,-4.5586,-4.5611,-4.5156,-4.4284,-4.375,-4.3511,0.0,0.0,0.0,0.0,0.0,0.0,0.0,0.0,0.0,0.0,0.0,-3.3868,-3.4221,-3.4524,-3.4812,-3.5127,-3.5358,0.0,0.0,0.0,0.0,0.0,0.0,0.0,0.0,0.0,0.0,0.0,0.0,0.0,0.0,-5.0125,-5.0587,-5.0567,-5.0625,-5.0483,-5.0092,-5.0483,-5.0462,-5.0068,-5.0462,-5.0663,-5.0663,-5.0663,-5.0442,0.0,0.0,0.0,0.0,-4.8458,-4.8306,-4.8306,-4.8306,-4.8267,-4.8172,-4.7614,-4.7715,-4.7977,-4.6801,-4.6774,-4.7062,-4.5833,-4.5001,-4.4485,-4.4485,-4.4485,-4.4575,-4.5049,-4.469,-4.3947,-4.311,-4.2864,-4.2807,-4.2602,-4.2577,-4.244,-4.1853,-4.1725,-4.1375,-4.0303,-4.007,-4.007,-4.007,-4.007,-4.007,-4.007,-4.007,-4.007,-4.007,-4.007,-4.0286,-4.0856,-4.0949,-4.1446,-4.2616,-4.3124,-4.3426,-4.3497,-4.3497,-4.3497,-4.3497,-4.3508,-4.4138,-4.5493,-4.557,-4.5588,-4.5586,-4.5597,-4.5552,-4.5425,-4.4103,-4.3493,-3.0146,0.0,-3.1038,-3.0498,-3.1144,0.0,0.0,0.0,0.0,0.0,0.0,0.0,0.0,0.0,0.0,0.0,0.0,0.0,0.0,0.0,0.0,0.0,0.0,0.0,0.0,0.0,0.0,0.0,0.0,0.0,0.0,-4.9221,-4.9546,-4.9274,-4.9905,-5.0202,-5.0092,-5.0183,-5.0043,-4.9664,-5.0043,-5.0249,-5.0249,-5.0249,-5.0019,0.0,0.0,0.0,-4.8421,-4.8344,-4.8306,-4.8306,-4.8306,-4.8035,-4.7572,-4.7428,-4.7194,-4.6801,-4.6524,-4.6192,-4.5833,-4.5052,-4.4313,-4.369,-4.369,-4.369,-4.3694,-4.3833,-4.291,-4.1921,-4.1697,-4.1505,-4.1387,-4.1348,-4.1313,-4.1251,-4.1133,-4.0797,-4.0434,-4.0171,-4.007,-4.007,-4.007,-4.007,-4.007,-4.007,-4.007,-4.007,-4.007,-4.007,-4.0286,-4.0856,-4.1313,-4.1895,-4.2616,-4.2662,-4.2923,-4.3479,-4.3497,-4.3497,-4.3497,-4.3508,-4.3916,-4.4811,-4.5336,-4.5588,-4.5586,-4.5583,-4.5062,-4.3988,-4.3651,-4.349,-2.9305,-2.9604,-3.0099,-2.9659,-3.0892,-3.2138,0.0,0.0,0.0,0.0,0.0,0.0,0.0,0.0,0.0,0.0,0.0,0.0,0.0,0.0,0.0,0.0,0.0,0.0,0.0,0.0,0.0,0.0,0.0,0.0,0.0,-4.8355,-4.8624,-4.8266,-4.8724,-4.9125,-4.9561,-4.9746,-4.9617,-4.9234,-4.9617,-4.9827,-4.9827,-4.9827,-4.9589,0.0,0.0,0.0,-4.8306,-4.8306,-4.8132,-4.7897,-4.7897,-4.7512,-4.691,-4.6635,-4.6478,-4.6336,-4.5783,-4.5131,-4.4504,-4.4139,-4.3521,-4.2912,-4.2912,-4.2675,-4.2405,-4.2405,-4.183,-4.1119,-4.0781,-4.0593,-4.0577,-4.0856,-4.0903,-4.0903,-4.0938,-4.0672,-4.0417,-4.0171,-4.007,-4.007,-4.007,-4.007,-4.007,-4.007,-4.007,-4.0204,-4.0466,-4.0449,-4.0797,-4.1639,-4.2021,-4.2462,-4.3014,-4.2978,-4.3069,-4.3479,-4.3497,-4.3497,-4.3497,-4.3508,-4.3703,-4.4093,-4.5105,-4.5597,-4.56,-4.5588,-4.4874,-4.3512,-4.3512,-4.3845,-2.9751,-2.9953,-3.0522,-3.0265,-3.1755,-3.3092,0.0,0.0,0.0,0.0,0.0,0.0,0.0,0.0,0.0,0.0,0.0,0.0,0.0,0.0,0.0,0.0,0.0,0.0,0.0,0.0,0.0,0.0,0.0,0.0,0.0,-4.7415,-4.7661,-4.7319,-4.7386,-4.7775,-4.8423,-4.8959,-4.9015,-4.8627,-4.9146,-4.9416,-4.9416,-4.9416,-4.9234,-4.8897,0.0,0.0,-4.8306,-4.8306,-4.7937,-4.7385,-4.7385,-4.691,-4.6192,-4.5681,-4.5783,-4.5947,-4.4807,-4.3978,-4.3403,-4.3284,-4.2726,-4.2117,-4.2117,-4.161,-4.1035,-4.1035,-4.1035,-4.0882,-4.024,-4.007,-4.0204,-4.0655,-4.078,-4.078,-4.0832,-4.0814,-4.0655,-4.0204,-4.007,-4.007,-4.007,-4.007,-4.007,-4.007,-4.0154,-4.0368,-4.0856,-4.0995,-4.1446,-4.2577,-4.2711,-4.2902,-4.3444,-4.3497,-4.3497,-4.3497,-4.3497,-4.3497,-4.3497,-4.35,-4.3517,-4.3623,-4.4723,-4.5266,-4.5275,-4.5265,-4.4673,-4.349,-4.349,-4.4239,-3.1091,-3.1623,-3.1916,-3.054,-3.1957,-3.3671,0.0,0.0,0.0,0.0,0.0,0.0,0.0,0.0,0.0,0.0,0.0,0.0,0.0,0.0,0.0,0.0,0.0,0.0,0.0,0.0,0.0,0.0,0.0,0.0,0.0,-4.63,-4.642,-4.6093,-4.6477,-4.6587,-4.6341,-4.7438,-4.7757,-4.739,-4.8479,-4.8978,-4.8978,-4.8978,-4.8963,-4.8897,0.0,-4.8364,-4.8306,-4.8306,-4.7937,-4.7385,-4.7385,-4.6682,-4.5648,-4.5545,-4.5232,-4.4766,-4.3864,-4.3521,-4.3318,-4.2675,-4.1965,-4.1373,-4.1373,-4.0849,-4.0257,-4.0257,-4.0257,-4.0223,-4.0104,-4.007,-4.0121,-4.0204,-4.0204,-4.0204,-4.0271,-4.0204,-4.0204,-4.0121,-4.007,-4.007,-4.007,-4.007,-4.007,-4.007,-4.0497,-4.0827,-4.0903,-4.1358,-4.1937,-4.2616,-4.2711,-4.2902,-4.3444,-4.3497,-4.3497,-4.3497,-4.3497,-4.3497,-4.3497,-4.3493,-4.3682,-4.4082,-4.3915,-4.3828,-4.3821,-4.383,-4.3707,-4.349,-4.349,-4.4239,-3.098,-3.1659,-3.254,-3.2228,-3.4302,-3.634,0.0,0.0,0.0,0.0,0.0,0.0,0.0,0.0,0.0,0.0,0.0,0.0,0.0,0.0,0.0,0.0,0.0,0.0,0.0,0.0,0.0,0.0,0.0,0.0,0.0,0.0,-4.5404,-4.4824,-4.5021,-4.4962,-4.4599,-4.5563,-4.619,-4.6471,-4.7002,-4.7496,-4.7921,-4.7921,-4.8161,-4.8586,0.0,-4.8306,-4.8306,-4.8306,-4.7738,-4.6864,-4.6864,-4.6112,-4.4947,-4.4519,-4.4184,-4.3842,-4.3064,-4.254,-4.2168,-4.183,-4.1204,-4.0595,-4.0595,-4.0358,-4.007,-4.007,-4.007,-4.007,-4.007,-4.007,-4.007,-4.007,-4.007,-4.007,-4.007,-4.007,-4.007,-4.007,-4.007,-4.007,-4.007,-4.007,-4.007,-4.007,-4.0336,-4.0703,-4.1313,-4.1621,-4.2144,-4.305,-4.3124,-4.3214,-4.3479,-4.3497,-4.3497,-4.3497,-4.3497,-4.3497,-4.3497,-4.3497,-4.3707,-4.4205,-4.3986,-4.3751,-4.3514,-4.3497,-4.349,-4.3504,-4.3491,-4.3855,-3.1054,-3.1659,-3.2797,-3.3605,0.0,0.0,0.0,0.0,0.0,0.0,0.0,0.0,0.0,0.0,0.0,0.0,0.0,0.0,0.0,0.0,0.0,0.0,0.0,0.0,0.0,0.0,0.0,0.0,0.0,0.0,0.0,0.0,-4.4568,-4.4016,-4.3924,-4.374,-4.3479,-4.4103,-4.4819,-4.5626,-4.581,-4.6214,-4.6838,-4.6838,-4.7168,-4.7755,-4.7939,-4.8031,-4.8031,-4.8233,-4.7656,-4.6618,-4.6478,-4.5526,-4.4215,-4.3436,-4.3149,-4.3047,-4.2303,-4.1677,-4.117,-4.1001,-4.0544,-4.007,-4.007,-4.007,-4.007,-4.007,-4.007,-4.007,-4.007,-4.007,-4.007,-4.007,-4.007,-4.007,-4.007,-4.007,-4.007,-4.007,-4.007,-4.007,-4.007,-4.007,-4.007,-4.007,-4.0204,-4.0625,-4.1664,-4.1937,-4.2404,-4.3391,-4.3497,-4.3497,-4.3497,-4.3497,-4.3497,-4.3497,-4.3497,-4.3497,-4.3497,-4.3497,-4.3716,-4.4147,-4.4063,-4.3933,-4.3669,-4.3535,-4.3497,-4.3479,-4.3518,-4.3504,-3.2265,-3.2522,-3.2797,-3.3605,-3.4541,0.0,0.0,0.0,0.0,0.0,0.0,0.0,0.0,0.0,0.0,0.0,0.0,0.0,0.0,0.0,0.0,0.0,0.0,0.0,0.0,0.0,0.0,0.0,0.0,0.0,0.0,0.0,0.0,-4.3998,-4.3693,-4.3513,-4.3497,-4.3552,-4.3993,-4.48,-4.5535,-4.592,-4.5993,-4.5993,-4.6012,-4.6104,-4.6874,-4.7205,-4.726,-4.7994,-4.7937,-4.7299,-4.6664,-4.5196,-4.342,-4.2642,-4.2371,-4.2269,-4.1525,-4.1238,-4.1085,-4.0392,-4.0121,-4.007,-4.007,-4.007,-4.007,-4.007,-4.007,-4.007,-4.007,-4.007,-4.007,-4.007,-4.007,-4.007,-4.007,-4.007,-4.007,-4.007,-4.007,-4.007,-4.007,-4.007,-4.007,-4.007,-4.0528,-4.1087,-4.1725,-4.2302,-4.2864,-4.3444,-4.3497,-4.3497,-4.3497,-4.3497,-4.3497,-4.3497,-4.3497,-4.3497,-4.3497,-4.3497,-4.3646,-4.4016,-4.3716,-4.3753,-4.4147,-4.3716,-4.3497,-4.3497,-4.3495,-4.3495,-3.1916,-3.2577,-3.355,-3.4357,0.0,0.0,0.0,0.0,0.0,0.0,0.0,0.0,0.0,0.0,0.0,0.0,0.0,0.0,0.0,0.0,0.0,0.0,0.0,0.0,0.0,0.0,0.0,0.0,0.0,0.0,0.0,0.0,0.0,-4.3712,-4.3582,-4.3497,-4.3497,-4.3497,-4.3644,-4.3956,-4.425,-4.4672,-4.5149,-4.5149,-4.5424,-4.592,-4.6214,-4.6361,-4.6342,-4.6332,-4.5905,-4.5267,-4.4237,-4.339,-4.2625,-4.188,-4.1627,-4.1508,-4.0764,-4.051,-4.046,-4.0172,-4.007,-4.007,-4.007,-4.007,-4.007,-4.007,-4.007,-4.007,-4.007,-4.007,-4.007,-4.007,-4.007,-4.007,-4.007,-4.007,-4.007,-4.007,-4.007,-4.007,-4.007,-4.007,-4.007,-4.007,-4.0286,-4.0767,-4.1664,-4.1979,-4.2483,-4.341,-4.3497,-4.3497,-4.3497,-4.3497,-4.3497,-4.3497,-4.3497,-4.3497,-4.3497,-4.3497,-4.3646,-4.3998,-4.3679,-4.3697,-4.4072,-4.3697,-4.3497,-4.3497,-4.3497,-4.3497,-3.1964,-3.2577,-3.3678,0.0,0.0,0.0,0.0,0.0,0.0,0.0,0.0,0.0,0.0,0.0,0.0,0.0,0.0,0.0,0.0,0.0,0.0,0.0,0.0,0.0,0.0,0.0,0.0,0.0,0.0,0.0,0.0,0.0,0.0,0.0,-4.3497,-4.3497,-4.3497,-4.3497,-4.3497,-4.3497,-4.3497,-4.3791,-4.4323,-4.4323,-4.4617,-4.5149,-4.5406,-4.5516,-4.5498,-4.5401,-4.4839,-4.3986,-4.293,-4.2313,-4.1863,-4.1119,-4.0849,-4.0781,-4.0257,-4.007,-4.007,-4.007,-4.007,-4.007,-4.007,-4.007,-4.007,-4.007,-4.007,-4.007,-4.007,-4.007,-4.007,-4.007,-4.007,-4.007,-4.007,-4.007,-4.007,-4.007,-4.007,-4.007,-4.007,-4.0254,-4.0368,-4.0368,-4.0497,-4.0984,-4.1937,-4.2062,-4.2444,-4.341,-4.3497,-4.3497,-4.3497,-4.3497,-4.3497,-4.3497,-4.3497,-4.3497,-4.3497,-4.3497,-4.3597,-4.3836,-4.3631,-4.3612,-4.3849,-4.3612,-4.3497,-4.3497,-4.3497,-4.3497,-3.2692,-3.2596,0.0,0.0,0.0,0.0,0.0,0.0,0.0,0.0,0.0,0.0,0.0,0.0,0.0,0.0,0.0,0.0,0.0,0.0,0.0,0.0,0.0,0.0,0.0,0.0,0.0,0.0,0.0,0.0,0.0,0.0,0.0,0.0,-4.3497,-4.3479,-4.3479,-4.3497,-4.3479,-4.3479,-4.3479,-4.3479,-4.3497,-4.3497,-4.3497,-4.3534,-4.4342,-4.4709,-4.4764,-4.5553,-4.5164,-4.4005,-4.327,-4.2236,-4.1102,-4.0358,-4.007,-4.007,-4.007,-4.007,-4.007,-4.007,-4.007,-4.007,-4.007,-4.007,-4.007,-4.007,-4.007,-4.007,-4.007,-4.007,-4.007,-4.007,-4.007,-4.007,-4.007,-4.007,-4.007,-4.007,-4.007,-4.007,-4.007,-4.0528,-4.0903,-4.0903,-4.1402,-4.2021,-4.2616,-4.2693,-4.2902,-4.3444,-4.3497,-4.3497,-4.3497,-4.3497,-4.3497,-4.3497,-4.3497,-4.3497,-4.3497,-4.3497,-4.3497,-4.3497,-4.3497,-4.3497,-4.3497,-4.3497,-4.3497,-4.3497,-4.3497,-4.3497,-3.1027,-3.2155,0.0,0.0,0.0,0.0,0.0,0.0,0.0,0.0,0.0,0.0,0.0,0.0,0.0,0.0,0.0,0.0,0.0,0.0,0.0,0.0,0.0,0.0,0.0,0.0,0.0,0.0,0.0,0.0,0.0,0.0,0.0,0.0,-4.3124,-4.2939,-4.2939,-4.2541,-4.2306,-4.2306,-4.2306,-4.2716,-4.3497,-4.3497,-4.3497,-4.3497,-4.3754,-4.3864,-4.383,-4.3253,-4.2798,-4.2379,-4.1371,-4.0968,-4.0934,-4.0339,-4.007,-4.007,-4.007,-4.007,-4.007,-4.007,-4.007,-4.007,-4.007,-4.007,-4.007,-4.007,-4.007,-4.007,-4.007,-4.007,-4.007,-4.007,-4.007,-4.007,-4.007,-4.007,-4.007,-4.007,-4.007,-4.007,-4.007,-4.0254,-4.0449,-4.0856,-4.1041,-4.1534,-4.2577,-4.3014,-4.3321,-4.3479,-4.3497,-4.3497,-4.3497,-4.3497,-4.3497,-4.3497,-4.3497,-4.3497,-4.3497,-4.3497,-4.3497,-4.3497,-4.3497,-4.3497,-4.3497,-4.3497,-4.3497,-4.3497,-4.3497,-4.3497,-3.174,0.0,0.0,0.0,0.0,0.0,0.0,0.0,0.0,0.0,0.0,0.0,0.0,0.0,0.0,0.0,0.0,0.0,0.0,0.0,0.0,0.0,0.0,0.0,0.0,0.0,0.0,0.0,0.0,0.0,0.0,0.0,0.0,0.0,-4.3178,-4.3014,-4.3014,-4.2657,-4.2483,-4.2483,-4.2483,-4.2865,-4.3479,-4.3286,-4.3286,-4.3497,-4.3497,-4.3497,-4.3444,-4.2772,-4.2364,-4.208,-4.1393,-4.1196,-4.1178,-4.0625,-4.0417,-4.0368,-4.0154,-4.007,-4.007,-4.007,-4.007,-4.007,-4.007,-4.007,-4.007,-4.007,-4.007,-4.007,-4.007,-4.007,-4.007,-4.007,-4.007,-4.007,-4.007,-4.007,-4.007,-4.007,-4.007,-4.007,-4.007,-4.0286,-4.0625,-4.1178,-4.1647,-4.2208,-4.2921,-4.3286,-4.3497,-4.3497,-4.3497,-4.3497,-4.3497,-4.3497,-4.3497,-4.3497,-4.3497,-4.3497,-4.3497,-4.3497,-4.3497,-4.3497,-4.3497,-4.3497,-4.3497,-4.3497,-4.3497,-4.3497,-4.3497,-4.3497,0.0,0.0,0.0,0.0,0.0,0.0,0.0,0.0,0.0,0.0,0.0,0.0,0.0,0.0,0.0,0.0,0.0,0.0,0.0,0.0,0.0,0.0,0.0,0.0,0.0,0.0,0.0,0.0,0.0,0.0,0.0,0.0,0.0,-4.3497,-4.341,-4.3356,-4.3356,-4.3232,-4.3178,-4.3178,-4.3178,-4.3232,-4.3321,-4.2939,-4.3014,-4.3497,-4.3497,-4.3497,-4.3497,-4.3444,-4.3178,-4.275,-4.2655,-4.2302,-4.1725,-4.1133,-4.0856,-4.0733,-4.0286,-4.007,-4.007,-4.007,-4.007,-4.007,-4.007,-4.007,-4.007,-4.007,-4.007,-4.007,-4.007,-4.007,-4.007,-4.007,-4.007,-4.007,-4.007,-4.007,-4.007,-4.007,-4.007,-4.007,-4.007,-4.048,-4.1041,-4.1621,-4.2678,-4.341,-4.341,-4.3479,-4.3497,-4.3497,-4.3497,-4.3497,-4.3497,-4.3497,-4.3497,-4.3497,-4.3497,-4.3497,-4.3497,-4.3497,-4.3497,-4.3497,-4.3497,-4.3497,-4.3497,-4.3497,-4.3497,-4.3497,-4.3497,-4.3497,0.0,0.0,0.0,0.0,0.0,0.0,0.0,0.0,0.0,0.0,0.0,0.0,0.0,0.0,0.0,0.0,0.0,0.0,0.0,0.0,0.0,0.0,0.0,0.0,0.0,0.0,0.0,0.0,0.0,0.0,0.0,0.0,0.0,-4.3497,-4.2639,-4.2185,-4.2185,-4.1286,-4.0844,0.0,-4.0844,-4.1286,-4.2185,-4.2977,-4.341,-4.3497,-4.3497,-4.3497,-4.3463,-4.3069,-4.305,-4.325,-4.2364,-4.1895,-4.1725,-4.1133,-4.0607,-4.0254,-4.0121,-4.007,-4.007,-4.007,-4.007,-4.007,-4.007,-4.007,-4.007,-4.007,-4.007,-4.007,-4.007,-4.007,-4.007,-4.007,-4.007,-4.007,-4.007,-4.007,-4.007,-4.007,-4.007,-4.007,-4.007,-4.0204,-4.0449,-4.0995,-4.2103,-4.2864,-4.2864,-4.325,-4.3497,-4.3497,-4.3497,-4.3497,-4.3497,-4.3497,-4.3497,-4.3497,-4.3497,-4.3497,-4.3497,-4.3497,-4.3497,-4.3497,-4.3497,-4.3497,-4.3497,-4.3497,-4.3497,-4.3497,-4.3497,-4.3497,0.0,0.0,0.0,0.0,0.0,0.0,0.0,0.0,0.0,0.0,0.0,0.0,0.0,0.0,0.0,0.0,0.0,0.0,0.0,0.0,0.0,0.0,0.0,0.0,0.0,0.0,0.0,0.0,0.0,0.0,0.0,-4.3497,-4.3375,-4.3142,-4.2541,-4.208,-4.1793,-4.1196,-4.0891,-4.0891,-4.0891,-4.1258,-4.1853,-4.2977,-4.3497,-4.3497,-4.3497,-4.3497,-4.3479,-4.3214,-4.325,-4.3444,-4.2847,-4.2444,-4.2162,-4.1534,-4.0967,-4.0449,-4.0204,-4.007,-4.007,-4.007,-4.007,-4.007,-4.007,-4.007,-4.007,-4.007,-4.007,-4.007,-4.007,-4.007,-4.007,-4.007,-4.007,-4.007,-4.007,-4.007,-4.007,-4.007,-4.007,-4.007,-4.007,-4.0546,-4.103,-4.1313,-4.2306,-4.3087,-4.3087,-4.3339,-4.3497,-4.3497,-4.3497,-4.3497,-4.3497,-4.3497,-4.3497,-4.3497,-4.3497,-4.3497,-4.3497,-4.3497,-4.3497,-4.3497,-4.3497,-4.3497,-4.3497,-4.3497,-4.3497,-4.3497,-4.3497,-4.3497,0.0,0.0,0.0,0.0,0.0,0.0,0.0,0.0,0.0,0.0,0.0,0.0,0.0,0.0,0.0,0.0,0.0,0.0,0.0,0.0,0.0,0.0,0.0,0.0,0.0,0.0,0.0,0.0,0.0,0.0,-4.3513,-4.3497,-4.325,-4.2711,-4.2616,-4.2244,-4.1664,-4.1534,-4.1508,-4.1508,-4.1725,-4.181,-4.1853,-4.2977,-4.3444,-4.3375,-4.3375,-4.341,-4.3497,-4.3497,-4.3497,-4.3479,-4.341,-4.3014,-4.248,-4.1853,-4.1268,-4.0703,-4.0237,-4.007,-4.007,-4.007,-4.007,-4.007,-4.007,-4.007,-4.007,-4.007,-4.007,-4.007,-4.007,-4.007,-4.007,-4.007,-4.007,-4.007,-4.007,-4.007,-4.007,-4.007,-4.007,-4.007,-4.007,-4.0938,-4.1621,-4.1621,-4.26,-4.3375,-4.3375,-4.3444,-4.3497,-4.3497,-4.3497,-4.3497,-4.3497,-4.3497,-4.3497,-4.3497,-4.3497,-4.3497,-4.3497,-4.3497,-4.3497,-4.3497,-4.3497,-4.3497,-4.3497,-4.3497,-4.3497,-4.3497,-4.3497,-4.3497,0.0,0.0,0.0,0.0,0.0,0.0,0.0,0.0,0.0,0.0,0.0,0.0,0.0,0.0,0.0,0.0,0.0,0.0,0.0,0.0,0.0,0.0,0.0,0.0,0.0,0.0,0.0,0.0,0.0,0.0,-4.3513,-4.3497,-4.325,-4.2711,-4.2203,-4.1621,-4.1041,-4.0546,-4.0353,-4.0336,-4.1331,-4.181,-4.1853,-4.2977,-4.325,-4.2826,-4.2826,-4.305,-4.3497,-4.3497,-4.3497,-4.3444,-4.2976,-4.2422,-4.1853,-4.1251,-4.0672,-4.0204,-4.0121,-4.007,-4.007,-4.007,-4.007,-4.007,-4.007,-4.007,-4.007,-4.007,-4.007,-4.007,-4.007,-4.007,-4.007,-4.007,-4.007,-4.007,-4.007,-4.007,-4.007,-4.007,-4.007,-4.007,-4.007,-4.0625,-4.1041,-4.1041,-4.2021,-4.2826,-4.2826,-4.3214,-4.3497,-4.3497,-4.3497,-4.3497,-4.3497,-4.3497,-4.3497,-4.3497,-4.3497,-4.3497,-4.3497,-4.3497,-4.3497,-4.3497,-4.3497,-4.3497,-4.3497,-4.3497,-4.3497,-4.3497,-4.3497,-4.3497,0.0,0.0,0.0,0.0,0.0,0.0,0.0,0.0,0.0,0.0,0.0,0.0,0.0,0.0,0.0,0.0,0.0,0.0,0.0,0.0,0.0,0.0,0.0,0.0,0.0,0.0,0.0,0.0,0.0,-4.3646,-4.3532,-4.3497,-4.325,-4.2711,-4.2121,-4.149,-4.0903,-4.0368,-4.007,-4.0138,-4.0594,-4.1013,-4.1313,-4.18,-4.2465,-4.3142,-4.3142,-4.3286,-4.3497,-4.3497,-4.3497,-4.3497,-4.325,-4.2808,-4.2262,-4.1997,-4.1313,-4.0528,-4.0528,-4.0368,-4.007,-4.007,-4.007,-4.007,-4.007,-4.007,-4.007,-4.007,-4.007,-4.007,-4.007,-4.007,-4.007,-4.007,-4.007,-4.007,-4.007,-4.007,-4.007,-4.007,-4.007,-4.007,-4.007,-4.0528,-4.0995,-4.1358,-4.2162,-4.2826,-4.3105,-4.3375,-4.3497,-4.3497,-4.3497,-4.3497,-4.3497,-4.3497,-4.3497,-4.3497,-4.3497,-4.3497,-4.3497,-4.3497,-4.3497,-4.3497,-4.3497,-4.3497,-4.3497,-4.3497,-4.3497,-4.3497,-4.3497,-4.3497,0.0,0.0,0.0,0.0,0.0,0.0,0.0,0.0,0.0,0.0,0.0,0.0,0.0,0.0,0.0,0.0,0.0,0.0,0.0,0.0,0.0,0.0,0.0,0.0,0.0,0.0,0.0,0.0,0.0,-4.3497,-4.3497,-4.3497,-4.3196,-4.248,-4.2021,-4.1446,-4.0685,-4.0286,-4.007,-4.007,-4.0254,-4.048,-4.0903,-4.1223,-4.2085,-4.3286,-4.3286,-4.3375,-4.3497,-4.3497,-4.3497,-4.3497,-4.3339,-4.305,-4.2655,-4.2519,-4.1793,-4.0903,-4.0903,-4.0528,-4.007,-4.007,-4.007,-4.007,-4.007,-4.007,-4.007,-4.007,-4.007,-4.007,-4.007,-4.007,-4.007,-4.007,-4.007,-4.007,-4.007,-4.007,-4.007,-4.007,-4.007,-4.007,-4.007,-4.0528,-4.1041,-4.149,-4.2221,-4.2864,-4.325,-4.341,-4.3497,-4.3497,-4.3497,-4.3497,-4.3497,-4.3497,-4.3497,-4.3497,-4.3497,-4.3497,-4.3497,-4.3497,-4.3497,-4.3497,-4.3497,-4.3497,-4.3497,-4.3497,-4.3497,-4.3497,-4.3497,-4.3497,0.0,0.0,0.0,0.0,0.0,0.0,0.0,0.0,0.0,0.0,0.0,0.0,0.0,0.0,0.0,0.0,0.0,0.0,0.0,0.0,0.0,0.0,0.0,0.0,0.0,0.0,0.0,0.0,0.0,-4.3497,-4.3497,-4.3497,-4.2977,-4.1895,-4.181,-4.1286,-4.0171,-4.0121,-4.007,-4.0138,-4.0625,-4.0856,-4.0949,-4.2062,-4.2655,-4.275,-4.275,-4.3014,-4.3497,-4.3497,-4.3497,-4.3444,-4.2939,-4.2732,-4.2616,-4.208,-4.1446,-4.0903,-4.0903,-4.0528,-4.007,-4.007,-4.007,-4.007,-4.007,-4.007,-4.007,-4.007,-4.007,-4.007,-4.007,-4.007,-4.007,-4.007,-4.007,-4.007,-4.007,-4.007,-4.007,-4.007,-4.007,-4.007,-4.007,-4.0528,-4.0903,-4.0949,-4.1937,-4.2711,-4.275,-4.3178,-4.3497,-4.3497,-4.3497,-4.3497,-4.3497,-4.3497,-4.3497,-4.3497,-4.3497,-4.3497,-4.3497,-4.3497,-4.3497,-4.3497,-4.3497,-4.3497,-4.3497,-4.3497,-4.3497,-4.3497,-4.3497,-4.3497,0.0,0.0,0.0,0.0,0.0,0.0,0.0,0.0,0.0,0.0,0.0,0.0,0.0,0.0,0.0,0.0,0.0,0.0,0.0,0.0,0.0,0.0,0.0,0.0,0.0,0.0,0.0,0.0,0.0,0.0,-4.3497,-4.3497,-4.316,-4.2382,-4.1979,-4.1241,-4.0121,-4.007,-4.007,-4.0121,-4.0286,-4.0577,-4.0903,-4.1358,-4.1979,-4.2711,-4.2711,-4.3014,-4.3497,-4.3497,-4.3497,-4.3479,-4.3286,-4.3014,-4.2655,-4.244,-4.175,-4.0903,-4.0903,-4.0528,-4.007,-4.007,-4.007,-4.007,-4.007,-4.007,-4.007,-4.007,-4.007,-4.007,-4.007,-4.007,-4.007,-4.007,-4.007,-4.007,-4.007,-4.007,-4.007,-4.007,-4.007,-4.007,-4.007,-4.0237,-4.0625,-4.1358,-4.1853,-4.2382,-4.3124,-4.3375,-4.3497,-4.3497,-4.3497,-4.3497,-4.3497,-4.3497,-4.3497,-4.3497,-4.3497,-4.3497,-4.3497,-4.3497,-4.3497,-4.3497,-4.3497,-4.3497,-4.3497,-4.3497,-4.3497,-4.3497,-4.3497,-4.3497,0.0,0.0,0.0,0.0,0.0,0.0,0.0,0.0,0.0,0.0,0.0,0.0,0.0,0.0,0.0,0.0,0.0,0.0,0.0,0.0,0.0,0.0,0.0,0.0,0.0,0.0,0.0,0.0,0.0,0.0,-4.3497,-4.3339,-4.2865,-4.2121,-4.1552,-4.0861,-4.0121,-4.007,-4.007,-4.007,-4.007,-4.0286,-4.0655,-4.0827,-4.1446,-4.24,-4.2616,-4.3014,-4.3497,-4.3497,-4.3497,-4.3497,-4.3497,-4.3178,-4.2711,-4.2711,-4.1937,-4.0903,-4.0903,-4.0528,-4.007,-4.007,-4.007,-4.007,-4.007,-4.007,-4.007,-4.007,-4.007,-4.007,-4.007,-4.007,-4.007,-4.007,-4.007,-4.007,-4.007,-4.007,-4.007,-4.007,-4.007,-4.0171,-4.0336,-4.0368,-4.0672,-4.1682,-4.1979,-4.2382,-4.3124,-4.341,-4.3497,-4.3497,-4.3497,-4.3497,-4.3497,-4.3497,-4.3497,-4.3497,-4.3497,-4.3497,-4.3497,-4.3497,-4.3497,-4.3497,-4.3497,-4.3497,-4.3497,-4.3497,-4.3497,-4.3497,-4.3497,-4.3497,0.0,0.0,0.0,0.0,0.0,0.0,0.0,0.0,0.0,0.0,0.0,0.0,0.0,0.0,0.0,0.0,0.0,0.0,0.0,0.0,0.0,0.0,0.0,0.0,0.0,0.0,0.0,0.0,0.0,-4.3497,-4.3497,-4.2976,-4.2121,-4.0949,-4.0368,-4.007,-4.007,-4.007,-4.007,-4.007,-4.007,-4.007,-4.0121,-4.0655,-4.1206,-4.181,-4.24,-4.2976,-4.3479,-4.3479,-4.3497,-4.3497,-4.3497,-4.3178,-4.2711,-4.2711,-4.1937,-4.0903,-4.0903,-4.0528,-4.007,-4.007,-4.007,-4.007,-4.007,-4.007,-4.007,-4.007,-4.007,-4.007,-4.007,-4.007,-4.007,-4.007,-4.007,-4.007,-4.007,-4.007,-4.007,-4.007,-4.007,-4.0286,-4.0827,-4.0903,-4.1133,-4.1707,-4.2342,-4.2711,-4.2711,-4.3178,-4.3497,-4.3497,-4.3497,-4.3497,-4.3497,-4.3497,-4.3497,-4.3497,-4.3497,-4.3497,-4.3497,-4.3497,-4.3497,-4.3497,-4.3497,-4.3497,-4.3497,-4.3497,-4.3497,-4.3497,-4.3497,-4.3497,-2.9016,0.0,0.0,0.0,0.0,0.0,0.0,0.0,0.0,0.0,0.0,0.0,0.0,0.0,0.0,0.0,0.0,0.0,0.0,0.0,0.0,0.0,0.0,0.0,0.0,0.0,0.0,0.0,-4.3497,-4.3497,-4.3497,-4.258,-4.1895,-4.1578,-4.0594,-4.007,-4.007,-4.007,-4.007,-4.007,-4.007,-4.007,-4.0138,-4.0237,-4.0625,-4.1161,-4.181,-4.2382,-4.2939,-4.3339,-4.3497,-4.3497,-4.3497,-4.3178,-4.2711,-4.2711,-4.1937,-4.0903,-4.0903,-4.0528,-4.007,-4.007,-4.007,-4.007,-4.007,-4.007,-4.007,-4.007,-4.007,-4.007,-4.007,-4.007,-4.007,-4.007,-4.007,-4.007,-4.007,-4.007,-4.007,-4.007,-4.007,-4.0286,-4.0827,-4.0903,-4.1251,-4.2302,-4.2616,-4.2826,-4.3214,-4.341,-4.3497,-4.3497,-4.3497,-4.3497,-4.3497,-4.3497,-4.3497,-4.3497,-4.3497,-4.3497,-4.3497,-4.3497,-4.3497,-4.3497,-4.3497,-4.3497,-4.3497,-4.3497,-4.3497,-4.3497,-4.3497,-4.3497,0.0,0.0,0.0,0.0,0.0,0.0,0.0,-3.3298,0.0,0.0,0.0,0.0,0.0,0.0,0.0,0.0,0.0,0.0,0.0,0.0,0.0,0.0,0.0,0.0,0.0,0.0,0.0,-4.3513,-4.3497,-4.341,-4.3178,-4.2324,-4.1664,-4.1446,-4.0546,-4.007,-4.007,-4.007,-4.007,-4.007,-4.007,-4.007,-4.007,-4.007,-4.0546,-4.1313,-4.1664,-4.2284,-4.305,-4.3375,-4.3497,-4.3497,-4.3497,-4.3178,-4.2711,-4.2711,-4.1937,-4.0903,-4.0903,-4.0528,-4.007,-4.007,-4.007,-4.007,-4.007,-4.007,-4.007,-4.007,-4.007,-4.007,-4.007,-4.007,-4.007,-4.007,-4.007,-4.007,-4.007,-4.007,-4.007,-4.007,-4.007,-4.0336,-4.1133,-4.1268,-4.1664,-4.2846,-4.3014,-4.3142,-4.3444,-4.3497,-4.3497,-4.3497,-4.3497,-4.3497,-4.3497,-4.3497,-4.3497,-4.3497,-4.3497,-4.3497,-4.3497,-4.3497,-4.3497,-4.3497,-4.3497,-4.3497,-4.3497,-4.3497,-4.3497,-4.3497,-4.3497,-4.3497,0.0,0.0,0.0,0.0,0.0,0.0,-3.2068,-3.3093,-3.4229,0.0,0.0,0.0,0.0,0.0,0.0,0.0,0.0,0.0,0.0,0.0,0.0,0.0,0.0,0.0,0.0,-4.3955,-4.3836,-4.3513,-4.3497,-4.3249,-4.27,-4.2167,-4.1621,-4.1041,-4.0449,-4.0171,-4.007,-4.007,-4.007,-4.007,-4.007,-4.007,-4.007,-4.007,-4.0642,-4.1639,-4.1768,-4.2386,-4.3321,-4.3444,-4.3497,-4.3497,-4.3497,-4.3214,-4.2788,-4.2788,-4.2021,-4.0995,-4.0995,-4.0625,-4.007,-4.007,-4.007,-4.007,-4.007,-4.007,-4.007,-4.007,-4.007,-4.007,-4.007,-4.007,-4.007,-4.007,-4.007,-4.007,-4.007,-4.007,-4.007,-4.007,-4.0171,-4.0514,-4.1621,-4.1853,-4.2266,-4.3356,-4.3497,-4.3497,-4.3497,-4.3497,-4.3497,-4.3497,-4.3497,-4.3497,-4.3497,-4.3497,-4.3497,-4.3497,-4.3497,-4.3497,-4.3497,-4.3497,-4.3497,-4.3497,-4.3497,-4.3497,-4.3497,-4.3497,-4.3497,-4.3497,-4.3497,-4.3497,0.0,0.0,0.0,0.0,0.0,0.0,-2.9667,-3.0876,-3.2001,0.0,0.0,0.0,0.0,0.0,0.0,0.0,0.0,0.0,0.0,0.0,0.0,0.0,0.0,0.0,0.0,-4.3758,-4.3563,-4.3479,-4.3497,-4.3169,-4.2425,-4.2464,-4.2262,-4.1621,-4.1041,-4.0546,-4.0121,-4.007,-4.007,-4.007,-4.007,-4.007,-4.007,-4.007,-4.0204,-4.0466,-4.142,-4.1937,-4.2226,-4.3105,-4.3497,-4.3497,-4.3497,-4.3444,-4.3321,-4.3321,-4.26,-4.1621,-4.1621,-4.0938,-4.007,-4.007,-4.007,-4.007,-4.007,-4.007,-4.007,-4.007,-4.007,-4.007,-4.007,-4.007,-4.007,-4.007,-4.007,-4.007,-4.007,-4.007,-4.007,-4.007,-4.0449,-4.0967,-4.1664,-4.2203,-4.277,-4.341,-4.3497,-4.3497,-4.3497,-4.3497,-4.3497,-4.3497,-4.3497,-4.3497,-4.3497,-4.3497,-4.3497,-4.3497,-4.3497,-4.3497,-4.3497,-4.3497,-4.3497,-4.3497,-4.3497,-4.3497,-4.3497,-4.3497,-4.3497,-4.3497,-4.3497,-4.3497,0.0,0.0,0.0,-2.8994,0.0,0.0,0.0,-3.0648,-3.1554,0.0,0.0,0.0,0.0,0.0,0.0,0.0,0.0,0.0,0.0,0.0,0.0,0.0,0.0,0.0,0.0,-4.3597,-4.3314,-4.2928,-4.2892,-4.2727,-4.2323,-4.1881,-4.1688,-4.1793,-4.0984,-4.0368,-4.0121,-4.007,-4.007,-4.007,-4.007,-4.007,-4.007,-4.007,-4.0254,-4.0528,-4.1402,-4.1979,-4.2284,-4.316,-4.3497,-4.3497,-4.3497,-4.3497,-4.3463,-4.3214,-4.2541,-4.1768,-4.1446,-4.0797,-4.007,-4.007,-4.007,-4.007,-4.007,-4.007,-4.007,-4.007,-4.007,-4.007,-4.007,-4.007,-4.007,-4.007,-4.007,-4.007,-4.007,-4.007,-4.0154,-4.0449,-4.0967,-4.1446,-4.175,-4.2302,-4.2902,-4.341,-4.3497,-4.3497,-4.3497,-4.3497,-4.3497,-4.3497,-4.3497,-4.3497,-4.3497,-4.3497,-4.3497,-4.3497,-4.3497,-4.3497,-4.3497,-4.3497,-4.3497,-4.3497,-4.3497,-4.3497,-4.3497,-4.3497,-4.3497,-4.3497,-4.3497,-4.3497,0.0,0.0,0.0,0.0,0.0,-2.9253,0.0,0.0,0.0,-3.2125,0.0,0.0,0.0,0.0,0.0,0.0,0.0,0.0,0.0,0.0,0.0,0.0,0.0,0.0,0.0,-4.28,-4.2598,-4.2103,-4.1791,-4.1662,-4.1827,-4.1284,-4.1108,-4.1563,-4.0822,-4.0336,-4.007,-4.007,-4.007,-4.007,-4.007,-4.007,-4.007,-4.007,-4.0336,-4.078,-4.149,-4.208,-4.2559,-4.325,-4.3497,-4.3497,-4.3497,-4.3444,-4.3286,-4.2864,-4.2244,-4.1578,-4.1087,-4.0528,-4.007,-4.007,-4.007,-4.007,-4.007,-4.007,-4.007,-4.007,-4.007,-4.007,-4.007,-4.007,-4.007,-4.007,-4.007,-4.007,-4.007,-4.0154,-4.0368,-4.0827,-4.149,-4.1979,-4.1979,-4.2462,-4.3014,-4.3444,-4.3497,-4.3497,-4.3497,-4.3497,-4.3497,-4.3497,-4.3497,-4.3497,-4.3497,-4.3497,-4.3497,-4.3497,-4.3497,-4.3497,-4.3497,-4.3497,-4.3497,-4.3497,-4.3497,-4.3497,-4.3497,-4.3497,-4.3497,-4.3497,-4.3497,-4.3497,0.0,0.0,0.0,0.0,-2.8994,0.0,0.0,0.0,-2.9305,-2.9441,0.0,0.0,0.0,0.0,0.0,0.0,0.0,0.0,0.0,0.0,0.0,0.0,0.0,0.0,0.0,0.0,-4.0561,-4.1203,-3.9918,-3.9423,-4.012,-4.1397,-4.1687,-4.076,-4.1311,-4.1122,-4.0121,-4.007,-4.007,-4.007,-4.007,-4.007,-4.007,-4.007,-4.0121,-4.0254,-4.1331,-4.1853,-4.1979,-4.3069,-4.3497,-4.3497,-4.3497,-4.3214,-4.2788,-4.2711,-4.1979,-4.0995,-4.0903,-4.0528,-4.007,-4.007,-4.007,-4.007,-4.007,-4.007,-4.007,-4.007,-4.007,-4.007,-4.007,-4.007,-4.007,-4.007,-4.007,-4.007,-4.007,-4.0497,-4.0827,-4.0903,-4.181,-4.2616,-4.2616,-4.305,-4.341,-4.3479,-4.3497,-4.3497,-4.3497,-4.3497,-4.3497,-4.3497,-4.3497,-4.3497,-4.3497,-4.3497,-4.3497,-4.3497,-4.3497,-4.3497,-4.3497,-4.3497,-4.3497,-4.3497,-4.3497,-4.3497,-4.3497,-4.3497,-4.3497,-4.3497,-4.3497,-4.3497,0.0,0.0,0.0,0.0,0.0,0.0,-2.9265,0.0,-2.8994,0.0,0.0,0.0,0.0,0.0,0.0,0.0,0.0,0.0,0.0,0.0,0.0,0.0,0.0,0.0,0.0,0.0,0.0,0.0,0.0,-3.9881,-4.0547,-4.0461,-4.0473,-4.0601,-4.0578,-4.0458,-4.0121,-4.007,-4.007,-4.007,-4.007,-4.007,-4.007,-4.007,-4.007,-4.0171,-4.1286,-4.181,-4.1895,-4.3014,-4.3497,-4.3497,-4.3497,-4.3178,-4.2616,-4.1895,-4.1358,-4.0874,-4.0528,-4.0286,-4.007,-4.007,-4.007,-4.007,-4.007,-4.007,-4.007,-4.007,-4.007,-4.007,-4.007,-4.007,-4.007,-4.007,-4.007,-4.007,-4.007,-4.0528,-4.0995,-4.1358,-4.2121,-4.2788,-4.3087,-4.3375,-4.3497,-4.3497,-4.3497,-4.3497,-4.3497,-4.3497,-4.3497,-4.3497,-4.3497,-4.3497,-4.3497,-4.3497,-4.3497,-4.3497,-4.3497,-4.3497,-4.3497,-4.3497,-4.3497,-4.3497,-4.3497,-4.3497,-4.3497,-4.3497,-4.3497,-4.3497,-4.3497,-4.3497,-3.0419,0.0,0.0,0.0,0.0,0.0,0.0,0.0,0.0,0.0,0.0,0.0,0.0,0.0,0.0,0.0,0.0,0.0,0.0,0.0,0.0,0.0,0.0,0.0,0.0,0.0,0.0,0.0,0.0,-3.9659,-4.0712,-3.9792,-3.9553,-4.0265,-4.0071,-4.0008,-4.0121,-4.007,-4.007,-4.007,-4.007,-4.007,-4.007,-4.007,-4.007,-4.0171,-4.115,-4.1664,-4.1895,-4.2865,-4.3375,-4.3497,-4.3339,-4.305,-4.2559,-4.1534,-4.0967,-4.0625,-4.0254,-4.007,-4.007,-4.007,-4.007,-4.007,-4.007,-4.007,-4.007,-4.007,-4.007,-4.007,-4.007,-4.007,-4.007,-4.007,-4.0204,-4.0336,-4.0336,-4.0891,-4.1534,-4.1937,-4.2501,-4.305,-4.3444,-4.3497,-4.3497,-4.3497,-4.3497,-4.3497,-4.3497,-4.3497,-4.3497,-4.3497,-4.3497,-4.3497,-4.3497,-4.3497,-4.3497,-4.3497,-4.3497,-4.3497,-4.3497,-4.3497,-4.3497,-4.3497,-4.3497,-4.3497,-4.3497,-4.3497,-4.3497,-4.3497,-4.3497,-4.3497,0.0,0.0,0.0,-2.9866,0.0,0.0,0.0,0.0,-2.9067,0.0,0.0,0.0,0.0,0.0,0.0,0.0,0.0,0.0,0.0,0.0,0.0,0.0,0.0,0.0,0.0,0.0,0.0,0.0,0.0,0.0,-3.9813,-3.99,-3.9763,-3.9469,-4.0188,-4.0401,-4.0121,-4.007,-4.007,-4.007,-4.007,-4.007,-4.007,-4.007,-4.007,-4.0121,-4.0703,-4.1268,-4.1853,-4.248,-4.3014,-4.3444,-4.2939,-4.2711,-4.2616,-4.1979,-4.1076,-4.0121,-4.0138,-4.007,-4.007,-4.007,-4.007,-4.007,-4.007,-4.007,-4.007,-4.007,-4.007,-4.007,-4.007,-4.007,-4.007,-4.007,-4.0497,-4.0856,-4.0856,-4.181,-4.2655,-4.2673,-4.3105,-4.3479,-4.3497,-4.3497,-4.3497,-4.3497,-4.3497,-4.3497,-4.3497,-4.3497,-4.3497,-4.3497,-4.3497,-4.3497,-4.3497,-4.3497,-4.3497,-4.3497,-4.3497,-4.3497,-4.3497,-4.3497,-4.3497,-4.3497,-4.3497,-4.3497,-4.3497,-4.3497,-4.3497,-4.3497,-4.3497,-4.3497,0.0,0.0,-3.5395,-3.2664,0.0,0.0,0.0,0.0,0.0,0.0,0.0,0.0,0.0,0.0,0.0,0.0,0.0,0.0,0.0,0.0,0.0,0.0,0.0,0.0,0.0,0.0,0.0,0.0,-3.9079,0.0,0.0,-3.968,-3.8964,-3.8673,-3.9411,-3.9696,-3.9343,-3.9834,-4.007,-4.007,-4.007,-4.007,-4.007,-4.007,-4.007,-4.0121,-4.0655,-4.1223,-4.1853,-4.244,-4.3014,-4.3479,-4.3286,-4.3014,-4.2577,-4.1578,-4.0967,-4.0577,-4.0204,-4.007,-4.007,-4.007,-4.007,-4.007,-4.007,-4.007,-4.007,-4.007,-4.007,-4.007,-4.007,-4.007,-4.0204,-4.0528,-4.078,-4.0995,-4.1402,-4.2121,-4.2711,-4.2711,-4.3124,-4.3497,-4.3497,-4.3497,-4.3497,-4.3497,-4.3497,-4.3497,-4.3497,-4.3497,-4.3497,-4.3497,-4.3497,-4.3497,-4.3497,-4.3497,-4.3497,-4.3497,-4.3497,-4.3497,-4.3497,-4.3497,-4.3497,-4.3497,-4.3497,-4.3497,-4.3497,-4.3497,-4.3497,-4.3497,-4.3497,-4.3497,-3.9196,-3.8821,0.0,-3.4611,-3.4525,0.0,-3.1398,0.0,0.0,0.0,0.0,0.0,0.0,0.0,0.0,0.0,0.0,0.0,0.0,-2.5127,0.0,0.0,0.0,0.0,0.0,0.0,0.0,-3.9506,-3.9494,0.0,0.0,0.0,-3.894,-3.8536,-3.9124,-3.9363,-3.9276,-3.9798,-4.007,-4.007,-4.007,-4.007,-4.007,-4.007,-4.007,-4.0121,-4.0449,-4.092,-4.149,-4.1895,-4.2541,-4.3214,-4.2995,-4.2921,-4.2846,-4.1664,-4.0949,-4.0577,-4.0204,-4.007,-4.007,-4.007,-4.007,-4.007,-4.007,-4.007,-4.0121,-4.0409,-4.029,-4.0138,-4.0409,-4.029,-4.0204,-4.0528,-4.092,-4.1313,-4.1725,-4.2404,-4.2976,-4.2976,-4.325,-4.3497,-4.3497,-4.3497,-4.3497,-4.3497,-4.3497,-4.3497,-4.3497,-4.3497,-4.3497,-4.3497,-4.3497,-4.3497,-4.3497,-4.3497,-4.3497,-4.3497,-4.3497,-4.3497,-4.3497,-4.3497,-4.3497,-4.3497,-4.3497,-4.3497,-4.3497,-4.3497,-4.3497,-4.3479,-4.3612,-4.3679]}]]